[[{"header":{"parameterUnit":"m.s-1","parameterCategory":1,"la1":30.6,"la2":28.766,"lo1":-90.7593,"lo2":-88.6598,"dy":0.0162,"dx":0.0183,"nx":116,"ny":114,"refTime":"2023-08-06T12:00:00:Z","depth":0,"parameterNumber":2,"parameterNumberName":"U-component_of_WINDS"},"data":[0.0,0.0,0.0,0.0,0.0,0.0,0.0,0.0,0.0,0.0,0.0,0.0,0.0,0.0,0.0,0.0,0.0,0.0,0.0,0.0,0.0,0.0,0.0,0.0,0.0,0.0,0.0,0.0,0.0,0.0,0.0,0.0,0.0,0.0,0.0,0.0,0.0,0.0,0.0,0.0,0.0,0.0,0.0,0.0,0.0,0.0,0.0,0.0,0.0,0.0,0.0,0.0,0.0,0.0,0.0,0.0,0.0,0.0,0.0,0.0,0.0,0.0,0.0,0.0,0.0,0.0,0.0,0.0,0.0,0.0,0.0,0.0,0.0,0.0,0.0,0.0,0.0,0.0,0.0,0.0,0.0,0.0,0.0,0.0,0.0,0.0,0.0,0.0,0.0,0.0,0.0,0.0,0.0,0.0,0.0,0.0,0.0,0.0,0.0,0.0,0.0,0.0,0.0,0.0,0.0,0.0,0.0,0.0,0.0,0.0,0.0,0.0,0.0,0.0,0.0,0.0,0.0,0.0,0.0,0.0,0.0,0.0,0.0,0.0,0.0,0.0,0.0,0.0,0.0,0.0,0.0,0.0,0.0,0.0,0.0,0.0,0.0,0.0,0.0,0.0,0.0,0.0,0.0,0.0,0.0,0.0,0.0,0.0,0.0,0.0,0.0,0.0,0.0,0.0,0.0,0.0,0.0,0.0,0.0,0.0,0.0,0.0,0.0,0.0,0.0,0.0,0.0,0.0,0.0,0.0,0.0,0.0,0.0,0.0,0.0,0.0,0.0,0.0,0.0,0.0,0.0,0.0,0.0,0.0,0.0,0.0,0.0,0.0,0.0,0.0,0.0,0.0,0.0,0.0,0.0,0.0,0.0,0.0,0.0,0.0,0.0,0.0,0.0,0.0,0.0,0.0,0.0,0.0,0.0,0.0,0.0,0.0,0.0,0.0,0.0,0.0,0.0,0.0,0.0,0.0,0.0,0.0,0.0,0.0,0.0,0.0,0.0,0.0,0.0,0.0,0.0,0.0,0.0,0.0,0.0,0.0,0.0,0.0,0.0,0.0,0.0,0.0,0.0,0.0,0.0,0.0,0.0,0.0,0.0,0.0,0.0,0.0,0.0,0.0,0.0,0.0,0.0,0.0,0.0,0.0,0.0,0.0,0.0,0.0,0.0,0.0,0.0,0.0,0.0,0.0,0.0,0.0,0.0,0.0,0.0,0.0,0.0,0.0,0.0,0.0,0.0,0.0,0.0,0.0,0.0,0.0,0.0,0.0,0.0,0.0,0.0,0.0,0.0,0.0,0.0,0.0,0.0,0.0,0.0,0.0,0.0,0.0,0.0,0.0,0.0,0.0,0.0,0.0,0.0,0.0,0.0,0.0,0.0,0.0,0.0,0.0,0.0,0.0,0.0,0.0,0.0,0.0,0.0,0.0,0.0,0.0,0.0,0.0,0.0,0.0,0.0,0.0,0.0,0.0,0.0,0.0,0.0,0.0,0.0,0.0,0.0,0.0,0.0,0.0,0.0,0.0,0.0,0.0,0.0,0.0,0.0,0.0,0.0,0.0,0.0,0.0,0.0,0.0,0.0,0.0,0.0,0.0,0.0,0.0,0.0,0.0,0.0,0.0,0.0,0.0,0.0,0.0,0.0,0.0,0.0,0.0,0.0,0.0,0.0,0.0,0.0,0.0,0.0,0.0,0.0,0.0,0.0,0.0,0.0,0.0,0.0,0.0,0.0,0.0,0.0,0.0,0.0,0.0,0.0,0.0,0.0,0.0,0.0,0.0,0.0,0.0,0.0,0.0,0.0,0.0,0.0,0.0,0.0,0.0,0.0,0.0,0.0,0.0,0.0,0.0,0.0,0.0,0.0,0.0,0.0,0.0,0.0,0.0,0.0,0.0,0.0,0.0,0.0,0.0,0.0,0.0,0.0,0.0,0.0,0.0,0.0,0.0,0.0,0.0,0.0,0.0,0.0,0.0,0.0,0.0,0.0,0.0,0.0,0.0,0.0,0.0,0.0,0.0,0.0,0.0,0.0,0.0,0.0,0.0,0.0,0.0,0.0,0.0,0.0,0.0,0.0,0.0,0.0,0.0,0.0,0.0,0.0,0.0,0.0,0.0,0.0,0.0,0.0,0.0,0.0,0.0,0.0,0.0,0.0,0.0,0.0,0.0,0.0,0.0,0.0,0.0,0.0,0.0,0.0,0.0,0.0,0.0,0.0,0.0,0.0,0.0,0.0,0.0,0.0,0.0,0.0,0.0,0.0,0.0,0.0,0.0,0.0,0.0,0.0,0.0,0.0,0.0,0.0,0.0,0.0,0.0,0.0,0.0,0.0,0.0,0.0,0.0,0.0,0.0,0.0,0.0,0.0,0.0,0.0,0.0,0.0,0.0,0.0,0.0,0.0,0.0,0.0,0.0,0.0,0.0,0.0,0.0,0.0,0.0,0.0,0.0,0.0,0.0,0.0,0.0,0.0,0.0,0.0,0.0,0.0,0.0,0.0,0.0,0.0,0.0,0.0,0.0,0.0,0.0,0.0,0.0,0.0,0.0,0.0,0.0,0.0,0.0,0.0,0.0,0.0,0.0,0.0,0.0,0.0,0.0,0.0,0.0,0.0,0.0,0.0,0.0,0.0,0.0,0.0,0.0,0.0,0.0,0.0,0.0,0.0,0.0,0.0,0.0,0.0,0.0,0.0,0.0,0.0,0.0,0.0,0.0,0.0,0.0,0.0,0.0,0.0,0.0,0.0,0.0,0.0,0.0,0.0,0.0,0.0,0.0,0.0,0.0,0.0,0.0,0.0,0.0,0.0,0.0,0.0,0.0,0.0,0.0,0.0,0.0,0.0,0.0,0.0,0.0,0.0,0.0,0.0,0.0,0.0,0.0,0.0,0.0,0.0,0.0,0.0,0.0,0.0,0.0,0.0,0.0,0.0,0.0,0.0,0.0,0.0,0.0,0.0,0.0,0.0,0.0,0.0,0.0,0.0,0.0,0.0,0.0,0.0,0.0,0.0,0.0,0.0,0.0,0.0,0.0,0.0,0.0,0.0,0.0,0.0,0.0,0.0,0.0,0.0,0.0,0.0,0.0,0.0,0.0,0.0,0.0,0.0,0.0,0.0,0.0,0.0,0.0,0.0,0.0,0.0,0.0,0.0,0.0,0.0,0.0,0.0,0.0,0.0,0.0,0.0,0.0,0.0,0.0,0.0,0.0,0.0,0.0,0.0,0.0,0.0,0.0,0.0,0.0,0.0,0.0,0.0,0.0,0.0,0.0,0.0,0.0,0.0,0.0,0.0,0.0,0.0,0.0,0.0,0.0,0.0,0.0,0.0,0.0,0.0,0.0,0.0,0.0,0.0,0.0,0.0,0.0,0.0,0.0,0.0,0.0,0.0,0.0,0.0,0.0,0.0,0.0,0.0,0.0,0.0,0.0,0.0,0.0,0.0,0.0,0.0,0.0,0.0,0.0,0.0,0.0,0.0,0.0,0.0,0.0,0.0,0.0,0.0,0.0,0.0,0.0,0.0,0.0,0.0,0.0,0.0,0.0,0.0,0.0,0.0,0.0,0.0,0.0,0.0,0.0,0.0,0.0,0.0,0.0,0.0,0.0,0.0,0.0,0.0,0.0,0.0,0.0,0.0,0.0,0.0,0.0,0.0,0.0,0.0,0.0,0.0,0.0,0.0,0.0,0.0,0.0,0.0,0.0,0.0,0.0,0.0,0.0,0.0,0.0,0.0,0.0,0.0,0.0,0.0,0.0,0.0,0.0,0.0,0.0,0.0,0.0,0.0,0.0,0.0,0.0,0.0,0.0,0.0,0.0,0.0,0.0,0.0,0.0,0.0,0.0,0.0,0.0,0.0,0.0,0.0,0.0,0.0,0.0,0.0,0.0,0.0,0.0,0.0,0.0,0.0,0.0,0.0,0.0,0.0,0.0,0.0,0.0,0.0,0.0,0.0,0.0,0.0,0.0,0.0,0.0,0.0,0.0,0.0,0.0,0.0,0.0,0.0,0.0,0.0,0.0,0.0,0.0,0.0,0.0,0.0,0.0,0.0,0.0,0.0,0.0,0.0,0.0,0.0,0.0,0.0,0.0,0.0,0.0,0.0,0.0,0.0,0.0,0.0,0.0,0.0,0.0,0.0,0.0,0.0,0.0,0.0,0.0,0.0,0.0,0.0,0.0,0.0,0.0,0.0,0.0,0.0,0.0,0.0,0.0,0.0,0.0,0.0,0.0,0.0,0.0,0.0,0.0,0.0,0.0,0.0,0.0,0.0,0.0,0.0,0.0,0.0,0.0,0.0,0.0,0.0,0.0,0.0,0.0,0.0,0.0,0.0,0.0,0.0,0.0,0.0,0.0,0.0,0.0,0.0,0.0,0.0,0.0,0.0,0.0,0.0,0.0,0.0,0.0,0.0,0.0,0.0,0.0,0.0,0.0,0.0,0.0,0.0,0.0,0.0,0.0,0.0,0.0,0.0,0.0,0.0,0.0,0.0,0.0,0.0,0.0,0.0,0.0,0.0,0.0,0.0,0.0,0.0,0.0,0.0,0.0,0.0,0.0,0.0,0.0,0.0,0.0,0.0,0.0,0.0,0.0,0.0,0.0,0.0,0.0,0.0,0.0,0.0,0.0,0.0,0.0,0.0,0.0,0.0,0.0,0.0,0.0,0.0,0.0,0.0,0.0,0.0,0.0,0.0,0.0,0.0,0.0,0.0,0.0,0.0,0.0,0.0,0.0,0.0,0.0,0.0,0.0,0.0,0.0,0.0,0.0,0.0,0.0,0.0,0.0,0.0,0.0,0.0,0.0,0.0,0.0,0.0,0.0,0.0,0.0,0.0,0.0,0.0,0.0,0.0,0.0,0.0,0.0,0.0,0.0,0.0,0.0,0.0,0.0,0.0,0.0,0.0,0.0,0.0,0.0,0.0,0.0,0.0,0.0,0.0,0.0,0.0,0.0,0.0,0.0,0.0,0.0,0.0,0.0,0.0,0.0,0.0,0.0,0.0,0.0,0.0,0.0,0.0,0.0,0.0,0.0,0.0,0.0,0.0,0.0,0.0,0.0,0.0,0.0,0.0,0.0,0.0,0.0,0.0,0.0,0.0,0.0,0.0,0.0,0.0,0.0,0.0,0.0,0.0,0.0,0.0,0.0,0.0,0.0,0.0,0.0,0.0,0.0,0.0,0.0,0.0,0.0,0.0,0.0,0.0,0.0,0.0,0.0,0.0,0.0,0.0,0.0,0.0,0.0,0.0,0.0,0.0,0.0,0.0,0.0,0.0,0.0,0.0,0.0,0.0,0.0,0.0,0.0,0.0,0.0,0.0,0.0,0.0,0.0,0.0,0.0,0.0,0.0,0.0,0.0,0.0,0.0,0.0,0.0,0.0,0.0,0.0,0.0,0.0,0.0,0.0,0.0,0.0,0.0,0.0,0.0,0.0,0.0,0.0,0.0,0.0,0.0,0.0,0.0,0.0,0.0,0.0,0.0,0.0,0.0,0.0,0.0,0.0,0.0,0.0,0.0,0.0,0.0,0.0,0.0,0.0,0.0,0.0,0.0,0.0,0.0,0.0,0.0,0.0,0.0,0.0,0.0,0.0,0.0,0.0,0.0,0.0,0.0,0.0,0.0,0.0,0.0,0.0,0.0,0.0,0.0,0.0,0.0,0.0,0.0,0.0,0.0,0.0,0.0,0.0,0.0,0.0,0.0,0.0,0.0,0.0,0.0,0.0,0.0,0.0,0.0,0.0,0.0,0.0,0.0,0.0,0.0,0.0,0.0,0.0,0.0,0.0,0.0,0.0,0.0,0.0,0.0,0.0,0.0,0.0,0.0,0.0,0.0,0.0,0.0,0.0,0.0,0.0,0.0,0.0,0.0,0.0,0.0,0.0,0.0,0.0,0.0,0.0,0.0,0.0,0.0,0.0,0.0,0.0,0.0,0.0,0.0,0.0,0.0,0.0,0.0,0.0,0.0,0.0,0.0,0.0,0.0,0.0,0.0,0.0,0.0,0.0,0.0,0.0,0.0,0.0,0.0,0.0,0.0,0.0,0.0,0.0,0.0,0.0,0.0,0.0,0.0,0.0,0.0,-5.929,0.0,0.0,0.0,0.0,0.0,0.0,0.0,0.0,0.0,0.0,0.0,0.0,0.0,0.0,0.0,0.0,0.0,0.0,0.0,0.0,0.0,0.0,0.0,0.0,0.0,0.0,0.0,0.0,0.0,0.0,0.0,0.0,0.0,0.0,0.0,0.0,0.0,0.0,0.0,0.0,0.0,0.0,0.0,0.0,0.0,0.0,0.0,0.0,0.0,0.0,0.0,0.0,0.0,0.0,0.0,0.0,0.0,0.0,0.0,0.0,0.0,0.0,0.0,0.0,0.0,0.0,0.0,0.0,0.0,0.0,0.0,0.0,0.0,0.0,0.0,0.0,0.0,0.0,0.0,0.0,0.0,0.0,0.0,0.0,0.0,0.0,0.0,0.0,0.0,0.0,0.0,0.0,0.0,0.0,0.0,0.0,0.0,0.0,0.0,0.0,0.0,0.0,0.0,0.0,0.0,0.0,0.0,0.0,0.0,0.0,0.0,0.0,0.0,0.0,0.0,0.0,-5.9178,0.0,0.0,0.0,0.0,0.0,0.0,0.0,0.0,0.0,0.0,0.0,0.0,0.0,0.0,0.0,0.0,0.0,0.0,0.0,0.0,0.0,0.0,0.0,0.0,0.0,0.0,0.0,0.0,0.0,0.0,0.0,0.0,0.0,0.0,0.0,0.0,0.0,0.0,0.0,0.0,0.0,0.0,0.0,0.0,0.0,0.0,0.0,0.0,0.0,0.0,0.0,0.0,0.0,0.0,0.0,0.0,0.0,0.0,0.0,0.0,0.0,0.0,0.0,0.0,0.0,0.0,0.0,0.0,0.0,0.0,0.0,0.0,0.0,0.0,0.0,0.0,0.0,0.0,0.0,0.0,0.0,0.0,0.0,0.0,0.0,0.0,0.0,0.0,0.0,0.0,0.0,0.0,0.0,0.0,0.0,0.0,0.0,0.0,0.0,0.0,0.0,0.0,0.0,0.0,0.0,0.0,0.0,0.0,-5.8877,-5.8877,-5.8896,-5.9027,-5.9084,-5.9102,-5.9234,-5.9234,-5.9041,0.0,0.0,0.0,0.0,0.0,0.0,0.0,0.0,0.0,0.0,0.0,0.0,0.0,0.0,0.0,0.0,0.0,0.0,0.0,0.0,0.0,0.0,0.0,0.0,0.0,0.0,0.0,0.0,0.0,0.0,0.0,0.0,0.0,0.0,0.0,0.0,0.0,0.0,0.0,-4.7636,-4.7416,-4.7394,-4.7559,-4.8018,0.0,0.0,0.0,0.0,0.0,0.0,0.0,0.0,0.0,0.0,0.0,0.0,0.0,0.0,0.0,0.0,0.0,0.0,0.0,0.0,0.0,0.0,0.0,0.0,0.0,0.0,0.0,0.0,0.0,0.0,0.0,0.0,0.0,0.0,0.0,0.0,0.0,0.0,0.0,0.0,0.0,0.0,0.0,-5.781,-5.7805,0.0,0.0,0.0,0.0,0.0,0.0,0.0,0.0,0.0,0.0,0.0,0.0,0.0,0.0,-5.7206,-5.7206,-5.7206,-5.7206,-5.7206,-5.7206,-5.7244,-5.7938,-5.8276,-5.8296,-5.8934,0.0,-5.8719,-5.7996,0.0,0.0,0.0,0.0,0.0,0.0,0.0,0.0,0.0,0.0,0.0,0.0,0.0,0.0,0.0,0.0,0.0,0.0,0.0,0.0,0.0,0.0,0.0,0.0,0.0,0.0,0.0,0.0,0.0,0.0,0.0,0.0,0.0,0.0,0.0,0.0,-4.7309,-4.7001,-4.6522,-4.6402,-4.6511,-4.6801,-4.7049,-4.7311,-4.7611,-4.7414,0.0,0.0,0.0,0.0,0.0,0.0,0.0,0.0,0.0,0.0,0.0,0.0,0.0,0.0,0.0,0.0,0.0,0.0,0.0,0.0,0.0,0.0,0.0,0.0,0.0,0.0,0.0,0.0,0.0,0.0,0.0,0.0,0.0,0.0,0.0,0.0,0.0,0.0,0.0,-5.7453,-5.7582,-5.7292,-5.746,-5.761,0.0,0.0,0.0,0.0,0.0,0.0,0.0,0.0,0.0,-5.7007,-5.694,-5.6887,-5.6887,-5.6887,-5.6887,-5.6887,-5.6887,-5.6887,-5.6906,-5.7263,-5.7377,-5.7322,-5.7604,-5.762,-5.7399,-5.7451,-5.7067,-5.6371,0.0,0.0,0.0,0.0,0.0,-5.3664,0.0,0.0,0.0,0.0,0.0,0.0,0.0,0.0,0.0,0.0,0.0,0.0,0.0,0.0,0.0,0.0,0.0,0.0,0.0,0.0,0.0,0.0,0.0,0.0,0.0,0.0,0.0,0.0,-4.6567,-4.624,-4.5594,-4.5577,-4.5793,-4.6173,-4.6066,-4.624,-4.6632,-4.6368,-4.6221,0.0,0.0,0.0,0.0,0.0,0.0,0.0,0.0,0.0,0.0,0.0,0.0,0.0,0.0,0.0,0.0,0.0,0.0,0.0,0.0,0.0,0.0,0.0,0.0,0.0,0.0,0.0,0.0,0.0,0.0,0.0,0.0,0.0,0.0,0.0,0.0,0.0,0.0,-5.7481,-5.7128,-5.6742,-5.7009,-5.7263,0.0,0.0,0.0,0.0,0.0,0.0,-5.6878,-5.6589,-5.6417,-5.6417,-5.63,-5.6249,-5.6249,-5.6249,-5.6249,-5.6249,-5.6249,-5.6249,-5.6267,-5.6456,-5.6497,-5.6405,-5.65,-5.6499,-5.6419,-5.6717,-5.6358,-5.5503,-5.457,-5.3789,-5.3201,-5.3201,-5.305,-5.2874,0.0,0.0,0.0,0.0,0.0,0.0,0.0,0.0,0.0,0.0,0.0,0.0,0.0,0.0,0.0,0.0,0.0,0.0,0.0,0.0,0.0,0.0,0.0,0.0,0.0,0.0,0.0,-4.5671,-4.5671,-4.5633,-4.5594,-4.5522,-4.5514,-4.5524,-4.5151,-4.5561,-4.6512,-4.6496,-4.6268,-4.592,0.0,0.0,0.0,0.0,0.0,0.0,0.0,0.0,0.0,0.0,0.0,0.0,0.0,0.0,0.0,0.0,0.0,0.0,0.0,0.0,0.0,0.0,0.0,0.0,0.0,0.0,0.0,0.0,0.0,0.0,0.0,0.0,0.0,0.0,0.0,0.0,0.0,0.0,0.0,-5.6131,-5.5895,0.0,0.0,0.0,0.0,-5.5619,-5.573,-5.5521,-5.4965,-5.5033,-5.492,-5.4555,-5.4521,-5.454,-5.454,-5.454,-5.454,-5.454,-5.454,-5.454,-5.4559,-5.5241,-5.5581,-5.56,-5.6164,-5.6403,-5.6345,-5.5807,-5.5259,-5.4713,-5.413,-5.3627,-5.3201,-5.3201,-5.2716,-5.2039,0.0,0.0,0.0,0.0,0.0,0.0,0.0,0.0,0.0,0.0,0.0,0.0,0.0,0.0,0.0,0.0,0.0,0.0,0.0,0.0,0.0,0.0,0.0,0.0,0.0,0.0,-4.5848,-4.579,-4.579,-4.579,-4.5783,-4.5718,-4.5653,-4.5549,-4.5314,-4.5296,-4.5391,-4.5039,-4.4761,-4.4529,-4.436,-4.4455,0.0,0.0,0.0,0.0,0.0,0.0,0.0,0.0,0.0,0.0,0.0,0.0,0.0,0.0,0.0,0.0,0.0,0.0,0.0,0.0,0.0,0.0,0.0,0.0,0.0,0.0,0.0,0.0,0.0,0.0,0.0,0.0,0.0,0.0,0.0,0.0,0.0,-5.609,-5.6037,0.0,-5.609,-5.601,-5.5947,-5.595,-5.5798,-5.553,-5.5141,-5.4957,-5.4735,-5.4407,-5.4409,-5.4409,-5.4409,-5.4409,-5.4409,-5.4409,-5.4409,-5.4375,-5.4342,-5.4607,-5.4649,-5.454,-5.4764,-5.4801,-5.4706,-5.4491,-5.4252,-5.3941,-5.3394,-5.26,-5.1726,-5.1726,-5.154,-5.1294,0.0,0.0,0.0,0.0,0.0,0.0,0.0,0.0,0.0,0.0,0.0,0.0,0.0,0.0,0.0,0.0,0.0,0.0,0.0,0.0,0.0,0.0,0.0,0.0,0.0,-4.5988,-4.5939,-4.5899,-4.5899,-4.5899,-4.5899,-4.5822,-4.574,-4.5595,-4.5437,-4.5191,-4.4875,-4.4383,-4.403,-4.3791,-4.3565,-4.3669,-4.3999,0.0,0.0,0.0,0.0,0.0,0.0,0.0,0.0,0.0,0.0,0.0,0.0,0.0,0.0,0.0,0.0,0.0,0.0,0.0,0.0,0.0,0.0,0.0,0.0,0.0,0.0,0.0,0.0,0.0,0.0,0.0,0.0,0.0,0.0,0.0,-5.6029,-5.609,-5.6141,-5.6184,-5.6199,-5.6175,-5.6168,-5.6164,-5.5929,-5.568,-5.5431,-5.5088,-5.4821,-5.4536,-5.4458,-5.4409,-5.4409,-5.4409,-5.4409,-5.4409,-5.4409,-5.4357,-5.4308,-5.4254,-5.4146,-5.4,-5.3944,-5.387,-5.3793,-5.3621,-5.3411,-5.3132,-5.2774,-5.193,-5.0891,-5.0891,-5.0891,-5.0891,0.0,0.0,0.0,0.0,0.0,0.0,0.0,0.0,0.0,0.0,0.0,0.0,0.0,0.0,0.0,0.0,0.0,0.0,0.0,0.0,0.0,0.0,0.0,0.0,-4.6082,-4.5983,-4.591,-4.591,-4.591,-4.591,-4.591,-4.5834,-4.5729,-4.5603,-4.539,-4.522,-4.5091,-4.468,-4.424,-4.3807,-4.3646,-4.3426,-4.3196,0.0,0.0,0.0,0.0,0.0,0.0,0.0,0.0,0.0,0.0,0.0,0.0,0.0,0.0,0.0,0.0,0.0,0.0,0.0,0.0,0.0,0.0,0.0,0.0,0.0,0.0,0.0,0.0,0.0,0.0,0.0,0.0,0.0,-5.6012,-5.6012,-5.6029,-5.609,-5.6098,-5.6133,-5.6191,-5.6141,-5.6098,-5.6098,-5.6037,-5.5893,-5.5618,-5.5341,-5.508,-5.4806,-5.4536,-5.4409,-5.4409,-5.4409,-5.4409,-5.4409,-5.4409,-5.4357,-5.429,-5.4163,-5.4055,-5.4,-5.3851,-5.3813,-5.3756,-5.3283,-5.2784,-5.2281,-5.2281,-5.1714,-5.0891,-5.0891,-5.0891,-5.0846,0.0,0.0,0.0,0.0,0.0,0.0,0.0,0.0,0.0,0.0,0.0,0.0,0.0,0.0,0.0,0.0,0.0,0.0,0.0,0.0,0.0,0.0,0.0,0.0,-4.6245,-4.6211,-4.6184,-4.6184,-4.6184,-4.6173,-4.6109,-4.5992,-4.5892,-4.5809,-4.5661,-4.5438,-4.5156,-4.491,-4.4525,-4.4042,-4.3474,-4.3142,-4.2957,0.0,0.0,0.0,0.0,0.0,0.0,0.0,0.0,0.0,0.0,0.0,0.0,0.0,0.0,0.0,0.0,0.0,0.0,0.0,0.0,0.0,0.0,0.0,0.0,0.0,0.0,0.0,0.0,0.0,0.0,0.0,0.0,-5.6012,-5.6012,-5.6037,-5.6082,-5.6098,-5.6133,-5.6182,-5.6199,-5.6223,-5.6223,-5.6184,-5.6149,-5.602,-5.568,-5.5365,-5.508,-5.4806,-5.4536,-5.4409,-5.4409,-5.4409,-5.4409,-5.4409,-5.4359,-5.4253,-5.4146,-5.4074,-5.3945,-5.3851,-5.3813,-5.3813,-5.3756,-5.3283,-5.2784,-5.2276,-5.1934,-5.1434,-5.0891,-5.0891,-5.0819,-5.0657,0.0,0.0,0.0,0.0,0.0,0.0,0.0,0.0,0.0,0.0,0.0,0.0,0.0,0.0,0.0,0.0,0.0,0.0,0.0,0.0,0.0,0.0,0.0,-4.4834,-4.5202,-4.5206,-4.5209,-4.5209,-4.5206,-4.5182,-4.5158,-4.5039,-4.493,-4.4844,-4.4677,-4.4462,-4.418,-4.3893,-4.3743,-4.3635,-4.3008,-4.2814,-4.2863,-4.265,-4.2512,-4.2559,-4.3242,-4.3789,-4.4325,-4.5606,0.0,0.0,0.0,0.0,0.0,0.0,0.0,0.0,0.0,0.0,0.0,0.0,0.0,0.0,0.0,0.0,0.0,0.0,0.0,0.0,0.0,0.0,0.0,0.0,-5.602,-5.6037,-5.6037,-5.6082,-5.6098,-5.6098,-5.6148,-5.6192,-5.6209,-5.6245,-5.6232,-5.6209,-5.6172,-5.6062,-5.5884,-5.5435,-5.5128,-5.4971,-5.4597,-5.4409,-5.4409,-5.4409,-5.4409,-5.4409,-5.4324,-5.4218,-5.4091,-5.4037,-5.3926,0.0,-5.3813,-5.3813,-5.3737,-5.3038,-5.2589,0.0,0.0,0.0,0.0,0.0,-5.0702,-5.0585,0.0,0.0,0.0,0.0,0.0,0.0,0.0,0.0,0.0,0.0,0.0,0.0,0.0,0.0,0.0,0.0,0.0,0.0,0.0,0.0,0.0,-4.3482,-4.2898,-4.2905,-4.3688,-4.3691,-4.3691,-4.3708,-4.3691,-4.3691,-4.3691,-4.3648,-4.3545,-4.3404,-4.3228,-4.303,-4.2805,-4.2419,-4.2492,-4.2847,-4.2526,-4.2622,-4.2957,-4.2901,-4.2652,-4.2417,-4.3111,-4.3414,-4.37,-4.51,0.0,0.0,0.0,0.0,0.0,0.0,0.0,0.0,0.0,0.0,0.0,0.0,0.0,0.0,0.0,0.0,0.0,0.0,0.0,0.0,0.0,0.0,0.0,0.0,-5.6065,-5.6098,-5.6098,-5.6106,-5.6114,-5.6114,-5.6163,-5.6206,-5.6206,-5.6206,-5.6206,-5.6206,-5.6153,-5.6106,-5.6106,0.0,0.0,0.0,0.0,-5.4409,-5.4409,-5.4409,-5.4409,-5.4409,-5.4324,-5.4218,-5.4091,-5.4037,-5.3926,-5.3813,-5.3813,-5.3813,-5.3717,-5.2704,-5.2253,-5.2089,-5.1683,-5.1271,-5.0891,-5.0657,-5.0585,0.0,0.0,0.0,0.0,0.0,0.0,0.0,0.0,0.0,0.0,0.0,0.0,0.0,0.0,0.0,0.0,0.0,0.0,0.0,0.0,0.0,-4.2821,-4.2574,-4.3089,-4.3463,-4.3692,-4.3695,-4.3704,-4.3691,-4.3691,-4.3671,-4.3628,-4.3654,-4.3609,-4.3481,-4.3374,-4.3208,-4.2946,-4.2699,-4.2412,-4.2157,-4.273,-4.3119,-4.3339,-4.2959,-4.2675,-4.2456,-4.2456,-4.2876,-4.3504,-4.3942,-4.5265,-4.6749,-4.7127,0.0,0.0,0.0,0.0,0.0,0.0,0.0,0.0,0.0,0.0,0.0,0.0,0.0,0.0,0.0,0.0,0.0,0.0,0.0,0.0,-5.6012,-5.6065,-5.6098,-5.6098,-5.6153,-5.6178,-5.6178,-5.6239,-5.6285,-5.6285,-5.6285,-5.6285,-5.6285,-5.6216,-5.6184,-5.6184,-5.5555,0.0,-5.5205,-5.4673,-5.4409,-5.4409,-5.4409,-5.4409,-5.4409,0.0,0.0,-5.4091,-5.4037,-5.3926,-5.3813,-5.3813,-5.3813,-5.3717,-5.2704,-5.1843,-5.1158,-5.107,-5.0981,-5.0891,-5.0657,-5.0519,-5.0425,0.0,0.0,0.0,0.0,0.0,0.0,0.0,0.0,0.0,0.0,0.0,0.0,0.0,0.0,0.0,0.0,0.0,0.0,0.0,-4.2363,-4.259,-4.2221,-4.2253,-4.2338,-4.2391,-4.2397,-4.2402,-4.2408,-4.2397,-4.2381,-4.2343,-4.2378,-4.2342,-4.2258,-4.2201,-4.2068,-4.1821,-4.161,-4.1541,-4.1621,-4.1883,-4.259,-4.3419,-4.3188,-4.2885,-4.2596,-4.2521,-4.2751,-4.3185,-4.3682,-4.482,-4.6184,-4.6854,-4.7739,-4.8586,0.0,0.0,0.0,0.0,0.0,0.0,0.0,0.0,0.0,0.0,0.0,0.0,0.0,0.0,-5.5933,0.0,0.0,-5.6012,-5.6012,-5.6082,-5.6149,-5.6149,-5.6216,-5.6239,-5.6199,-5.6252,-5.6291,-5.6291,-5.6291,-5.6291,-5.6291,-5.6245,-5.6202,-5.6199,-5.5607,-5.5231,-5.5205,-5.4673,-5.4409,-5.4409,-5.4409,-5.4409,-5.4409,-5.4324,-5.4218,-5.4091,-5.4037,-5.3926,-5.3813,-5.3813,-5.3813,-5.3717,-5.2704,-5.1739,-5.0891,-5.0891,-5.0891,-5.0863,-5.0592,-5.0453,-5.0387,0.0,0.0,0.0,0.0,0.0,0.0,0.0,0.0,0.0,0.0,0.0,0.0,0.0,0.0,0.0,0.0,0.0,0.0,0.0,-4.1794,-4.2075,-4.1869,-4.1289,-4.0992,-4.1089,-4.1074,-4.1087,-4.11,-4.1109,-4.1097,-4.1093,-4.1094,-4.1067,-4.1019,-4.1008,-4.0898,-4.0705,-4.0472,-4.0652,-4.1049,-4.1018,-4.1867,-4.3176,-4.3339,-4.3171,-4.2884,-4.2885,-4.2885,-4.2994,-4.3647,-4.4485,-4.5384,-4.6323,-4.7334,-4.8301,-4.8883,-4.9839,0.0,0.0,0.0,0.0,0.0,0.0,0.0,0.0,-5.5935,-5.5949,-5.5967,-5.5958,-5.5984,-5.6056,-5.6048,-5.6043,-5.6032,-5.613,-5.6199,-5.6206,-5.6251,-5.6285,-5.6232,-5.6278,-5.6291,-5.6291,-5.6291,-5.6291,-5.6291,-5.6239,-5.6204,-5.6199,-5.568,-5.5317,-5.5205,-5.4716,-5.4458,-5.4409,-5.4409,-5.4409,-5.4409,-5.4359,-5.4235,-5.4091,-5.4037,-5.3926,-5.3813,-5.3813,-5.3737,-5.3601,-5.2678,-5.1813,-5.1034,-5.0945,-5.0891,-5.0819,-5.0499,-5.0415,-5.0359,0.0,0.0,0.0,0.0,0.0,0.0,0.0,0.0,0.0,0.0,0.0,0.0,0.0,0.0,0.0,0.0,0.0,0.0,-4.0253,-4.159,-4.2002,-4.1,-4.0879,-4.0874,-4.1013,-4.1017,-4.1034,-4.1106,-4.1095,-4.1098,-4.1098,-4.1092,-4.1094,-4.1093,-4.1033,-4.0924,-4.0786,-4.0696,-4.0492,-4.0291,-4.1036,-4.1708,-4.2327,-4.3113,-4.3442,-4.3487,-4.3301,-4.3231,-4.3267,-4.3411,-4.4309,-4.5398,-4.5523,-4.6265,-4.7285,-4.8268,-4.8865,-4.9506,-5.1207,-5.2972,-5.4381,-5.4636,-5.5354,-5.6005,0.0,-5.609,-5.6091,-5.6141,-5.6172,-5.6189,-5.6247,-5.6211,-5.6181,-5.6174,-5.6186,-5.6194,-5.6204,-5.6265,-5.6291,-5.6285,-5.6291,-5.6291,-5.6291,-5.6291,-5.6291,-5.6291,-5.6239,-5.6204,-5.6199,-5.5856,-5.5522,-5.5205,-5.4919,-5.4645,-5.439,-5.4409,-5.4409,-5.4409,-5.4392,-5.4287,-5.4109,-5.4091,-5.3981,-5.3813,-5.3813,-5.3562,-5.312,-5.2526,-5.1988,-5.1467,-5.107,-5.0774,-5.0602,-5.0453,-5.0415,-5.0359,0.0,0.0,0.0,0.0,0.0,0.0,0.0,0.0,0.0,0.0,0.0,0.0,0.0,0.0,0.0,0.0,0.0,0.0,-3.9223,-4.1241,-4.1848,-4.0406,-4.0636,-4.0829,-4.0877,-4.0959,-4.1003,-4.1035,-4.1071,-4.1108,-4.1108,-4.1092,-4.1108,-4.1091,-4.1037,-4.0935,-4.0806,-4.0735,-4.0518,-4.0261,-4.0615,-4.1465,-4.252,-4.2781,-4.3479,-4.4266,-4.3594,-4.3685,0.0,0.0,-4.4356,-4.5717,-4.5526,-4.6594,-4.8024,-4.8443,-4.9155,-5.005,-5.1027,-5.2202,-5.3309,-5.4019,-5.484,-5.5608,-5.6094,-5.622,-5.6202,-5.6197,-5.6173,-5.6162,-5.6228,-5.6168,-5.6094,0.0,-5.6175,-5.6194,-5.6192,-5.6252,-5.6291,-5.6291,-5.6291,-5.6291,-5.6291,-5.6291,-5.6291,-5.6291,-5.6239,-5.6204,-5.6199,-5.5874,-5.5544,-5.5205,-5.4947,-5.4657,-5.439,-5.4409,-5.4409,-5.4409,-5.4409,-5.4304,-5.4109,-5.4109,-5.3981,-5.3813,-5.3813,-5.3524,-5.3057,-5.2504,-5.2012,-5.1569,-5.107,-5.0774,-5.0585,-5.0453,-5.0359,-5.0246,0.0,0.0,0.0,0.0,0.0,0.0,0.0,0.0,0.0,0.0,0.0,0.0,0.0,0.0,0.0,0.0,0.0,0.0,0.0,-4.0662,-4.1302,-4.0357,-4.0471,-4.0636,-4.0806,-4.087,-4.092,-4.0962,-4.1011,-4.1054,-4.1074,-4.1051,-4.106,-4.1078,-4.0972,-4.0875,-4.0749,-4.0729,-4.0578,-4.0386,-4.0386,-4.1395,-4.2862,-4.2687,-4.3482,-4.4589,-4.3765,-4.4013,0.0,0.0,-4.4391,-4.5677,-4.5453,-4.6442,-4.7798,-4.8262,-4.9477,-5.067,-5.0695,-5.1462,-5.246,-5.3268,-5.4279,-5.5333,-5.6182,-5.6383,-5.6379,-5.632,-5.623,-5.6206,-5.6269,-5.6161,-5.6083,-5.6136,-5.6187,-5.6214,-5.6225,-5.6278,-5.6291,-5.6291,-5.6291,-5.6291,-5.6291,-5.6291,-5.6291,-5.6291,-5.6272,-5.6211,-5.6199,-5.5975,-5.5649,-5.5218,-5.5012,-5.475,-5.439,-5.4409,-5.4409,-5.4409,-5.4409,-5.4304,-5.4091,-5.4036,-5.3926,-5.3813,-5.3813,-5.3601,-5.3242,-5.2571,-5.2089,-5.1732,-5.1132,-5.0747,-5.0519,-5.0425,-5.0331,-5.0189,0.0,0.0,0.0,0.0,0.0,0.0,0.0,0.0,0.0,0.0,0.0,0.0,0.0,0.0,0.0,0.0,0.0,0.0,0.0,-3.9727,-4.0207,-4.1116,-4.0363,-4.0196,-4.0781,-4.0689,-4.0706,-4.0905,-4.0913,-4.0929,-4.1001,-4.0941,-4.0945,-4.1001,-4.0859,-4.0721,-4.061,-4.0729,-4.0713,-4.06,-4.06,-4.1594,-4.3071,-4.2933,-4.3435,-4.4174,-4.3734,0.0,0.0,0.0,-4.4393,-4.5033,-4.5023,-4.5114,0.0,-4.7395,-4.9421,-5.0907,-5.0136,-5.1144,-5.2436,-5.2593,-5.388,-5.5358,-5.6358,-5.6582,-5.6591,-5.6588,-5.6482,-5.641,-5.648,-5.6324,-5.6213,-5.6272,-5.6239,-5.6228,-5.6285,-5.6291,-5.6291,-5.6291,-5.6291,-5.6291,0.0,-5.6291,-5.6291,-5.6291,-5.6291,-5.6258,-5.6206,-5.6191,-5.5874,-5.5218,-5.5193,-5.4928,-5.4409,-5.4409,-5.4409,-5.4409,-5.4409,-5.4304,-5.4091,-5.3889,-5.3813,-5.3813,-5.3813,-5.3775,-5.3717,-5.2722,-5.2281,-5.2183,-5.1271,-5.071,-5.0415,-5.0415,-5.0331,-5.0189,0.0,0.0,0.0,0.0,0.0,0.0,0.0,0.0,0.0,0.0,0.0,0.0,0.0,0.0,0.0,0.0,0.0,0.0,0.0,-3.9883,-4.0197,-3.9694,-4.0264,-4.0479,-4.0268,-4.0488,-4.0689,-4.0898,-4.0942,-4.0967,-4.0939,-4.0918,-4.0898,-4.0878,-4.0825,-4.0746,-4.0655,-4.053,-4.0388,-4.0298,-4.0701,-4.1636,-4.2757,-4.2776,-4.3429,-4.4253,0.0,0.0,0.0,-4.3532,-4.4283,-4.5557,-4.5279,-4.5827,-4.6913,-4.8703,-4.9736,-5.024,-4.997,-4.9881,-5.0051,-5.0719,-5.2166,-5.3689,-5.4662,-5.5767,-5.661,-5.6603,-5.6469,-5.6333,-5.6363,-5.6206,-5.6106,-5.6225,-5.6216,-5.6228,-5.6285,-5.6291,-5.6291,-5.6291,-5.6291,0.0,0.0,0.0,0.0,-5.6291,-5.6252,-5.6218,-5.6199,-5.6157,-5.5846,-5.5218,-5.5205,-5.4943,-5.4409,-5.4409,-5.4409,-5.4409,-5.4269,-5.4163,-5.4091,-5.3889,-5.3813,-5.3813,-5.3813,-5.3813,-5.3717,-5.2704,-5.2281,-5.2206,-5.1271,-5.0747,-5.0519,-5.0425,-5.0018,-4.9444,0.0,0.0,0.0,0.0,0.0,0.0,0.0,0.0,0.0,0.0,0.0,0.0,0.0,0.0,0.0,0.0,0.0,0.0,0.0,0.0,-3.948,-3.9543,-3.9839,-4.0005,-4.0005,-4.0303,-4.0591,-4.0853,-4.0845,-4.081,-4.079,-4.0653,-4.0565,-4.0548,-4.0467,-4.0431,-4.0388,-4.0516,-4.0578,-4.0597,-4.1007,-4.1823,-4.2747,-4.2505,-4.288,0.0,0.0,0.0,0.0,-4.3753,-4.4692,-4.5963,-4.5691,-4.661,-4.7911,-4.8734,-4.941,-4.9756,-4.9146,-4.8794,-4.8743,-4.9371,-5.086,-5.246,-5.3706,-5.5103,-5.6218,-5.6541,-5.6445,-5.6299,-5.6305,-5.6148,-5.6037,-5.6184,-5.6199,-5.6228,-5.6285,-5.6291,-5.6291,-5.6291,-5.6291,-5.6291,0.0,0.0,0.0,-5.6291,-5.6252,-5.6238,-5.6199,-5.6157,-5.5846,-5.5218,-5.5205,-5.4943,-5.4409,-5.4409,-5.4409,-5.4409,-5.4198,-5.4109,-5.4091,-5.3889,-5.3813,-5.3813,-5.3813,-5.3717,-5.3484,-5.2656,-5.2206,-5.1964,-5.1193,-5.0774,-5.055,-5.014,-4.9618,-4.908,0.0,0.0,0.0,0.0,0.0,0.0,0.0,0.0,0.0,0.0,0.0,0.0,0.0,0.0,0.0,0.0,0.0,0.0,0.0,0.0,0.0,-4.0517,-3.9264,-3.8962,-3.9946,-4.0091,-4.0364,-4.0778,-4.0583,-4.0526,-4.0565,-4.0182,-4.0043,-4.0083,-3.9897,-3.9819,-3.9865,-4.0677,-4.1138,-4.1323,-4.1418,-4.2083,-4.2922,-4.2202,0.0,0.0,0.0,0.0,0.0,-4.4662,-4.5527,-4.6208,-4.6245,-4.7318,-4.8399,-4.7595,-4.8502,-4.9404,-4.7747,-4.7861,-4.8471,-4.8557,-4.9882,-5.1638,-5.3394,-5.4535,-5.5456,-5.6307,-5.6363,-5.6275,-5.6247,0.0,-5.6037,-5.6184,-5.6199,-5.6228,-5.6285,-5.6291,-5.6291,0.0,0.0,0.0,0.0,0.0,0.0,-5.6291,0.0,-5.6265,-5.6206,-5.6199,-5.5883,-5.5231,-5.5205,-5.4943,-5.4409,-5.4409,-5.4409,-5.4409,-5.4198,-5.4109,-5.4091,-5.3889,-5.3813,-5.3813,-5.3813,-5.3542,-5.3078,-5.2544,-5.2036,-5.1576,-5.1044,-5.0704,-5.0445,-4.9547,-4.9132,-4.8959,0.0,0.0,0.0,0.0,0.0,0.0,0.0,0.0,0.0,0.0,0.0,0.0,0.0,0.0,0.0,0.0,0.0,0.0,0.0,0.0,0.0,0.0,0.0,0.0,0.0,0.0,0.0,0.0,0.0,-4.0309,-4.0229,-4.0167,-4.0091,-4.0024,-4.0023,-4.0002,-3.9962,-4.0026,-4.0087,-4.017,0.0,-4.1204,-4.182,0.0,0.0,0.0,0.0,0.0,-4.4517,-4.4816,-4.548,-4.6302,-4.6908,-4.7407,-4.7852,-4.8222,-4.8191,-4.7929,-4.7436,-4.6987,-4.6678,-4.6744,-4.807,-4.9662,-5.0834,-5.2695,-5.4275,-5.4603,-5.5457,-5.5968,-5.5429,-5.5694,-5.6037,-5.6184,-5.6199,0.0,-5.6285,-5.6291,0.0,-5.6291,-5.6291,-5.6291,-5.6291,-5.6291,0.0,0.0,-5.6291,-5.6272,-5.6204,-5.6194,-5.5921,-5.5293,-5.5231,-5.4943,-5.4409,-5.4409,-5.4409,-5.4409,-5.4198,-5.4109,-5.4091,-5.3889,-5.3813,-5.3813,-5.3813,-5.3737,-5.3543,-5.2678,-5.2229,-5.1964,-5.0547,-4.9978,-4.9793,-4.8782,-4.8048,-4.7499,0.0,0.0,0.0,0.0,0.0,0.0,0.0,0.0,0.0,0.0,0.0,0.0,0.0,0.0,0.0,0.0,0.0,0.0,0.0,0.0,0.0,0.0,0.0,0.0,0.0,0.0,0.0,0.0,0.0,0.0,0.0,-4.081,-4.0882,-4.0912,-4.0755,-4.0743,-4.0886,0.0,0.0,0.0,0.0,0.0,0.0,0.0,0.0,0.0,0.0,0.0,-4.5367,-4.5348,-4.5718,-4.6331,-4.7142,-4.7457,-4.7574,-4.8004,-4.7739,-4.7217,-4.6804,-4.6286,-4.5879,-4.5956,-4.6999,-4.8273,-4.9196,-5.1062,-5.2745,-5.3192,-5.4508,-5.5442,-5.5032,-5.5535,-5.6037,0.0,0.0,0.0,-5.6285,-5.6291,-5.6291,-5.6291,-5.6291,-5.6291,-5.6291,-5.6291,-5.6291,0.0,-5.6291,-5.6278,-5.6199,-5.6202,-5.5921,-5.5317,-5.5231,-5.4943,-5.4409,-5.4409,-5.4409,-5.4409,-5.4198,-5.4109,-5.4091,-5.3889,-5.3813,-5.3813,0.0,-5.3543,-5.3101,-5.2526,-5.1867,-5.1044,-5.0082,-4.9486,-4.9091,-4.7998,-4.7361,-4.6908,0.0,0.0,0.0,0.0,0.0,0.0,0.0,0.0,0.0,0.0,0.0,0.0,0.0,0.0,0.0,0.0,0.0,0.0,0.0,0.0,0.0,0.0,0.0,0.0,0.0,0.0,0.0,0.0,0.0,0.0,0.0,0.0,0.0,0.0,0.0,0.0,0.0,0.0,0.0,0.0,0.0,0.0,0.0,0.0,0.0,0.0,0.0,0.0,-4.6037,-4.604,-4.6183,-4.649,-4.7309,-4.7507,-4.7462,-4.7529,-4.7295,-4.6832,-4.608,-4.5807,-4.5733,-4.5796,-4.6429,-4.7254,-4.8133,-4.9657,-5.1111,-5.1915,-5.3553,-5.4846,-5.475,-5.5432,-5.6046,-5.6184,-5.6206,-5.6216,-5.6285,-5.6291,-5.6291,-5.6291,-5.6291,-5.6291,-5.6291,-5.6291,-5.6291,-5.6291,-5.6291,-5.6278,-5.6225,-5.6202,-5.5921,-5.5305,-5.5154,-5.4876,-5.439,-5.4409,-5.4409,-5.4409,-5.4217,-5.4109,-5.4091,-5.3907,-5.3813,-5.3813,0.0,0.0,-5.2318,-5.2223,-5.1209,-4.9713,-4.9495,-4.8995,-4.8319,-4.7256,-4.6856,-4.67,0.0,0.0,0.0,0.0,0.0,0.0,0.0,0.0,0.0,0.0,-3.752,-3.6881,0.0,0.0,0.0,0.0,0.0,0.0,0.0,0.0,0.0,0.0,0.0,0.0,0.0,0.0,0.0,0.0,0.0,0.0,0.0,0.0,0.0,0.0,0.0,0.0,0.0,0.0,0.0,0.0,0.0,0.0,0.0,0.0,0.0,0.0,0.0,-4.5518,-4.5804,-4.6568,-4.6981,-4.7334,-4.8137,-4.7825,-4.7319,-4.8087,-4.7191,-4.5949,-4.5833,-4.5807,-4.58,-4.5794,-4.5964,-4.635,-4.7226,-4.8697,-4.9944,-5.0277,-5.268,-5.4556,-5.3942,-5.5063,-5.6098,-5.6191,-5.6209,-5.6225,-5.6285,-5.6291,-5.6291,-5.6291,-5.6291,-5.6291,-5.6291,-5.6291,0.0,0.0,0.0,-5.6291,-5.6285,-5.6236,-5.5902,-5.5243,-5.4776,-5.4505,-5.4409,-5.4409,-5.4409,-5.4409,-5.4324,-5.42,-5.4091,-5.4019,-5.3888,-5.3813,0.0,0.0,-5.2486,-5.1708,-5.0814,-4.9788,-4.8346,-4.7713,-4.7477,-4.6512,-4.6106,-4.5961,0.0,0.0,0.0,0.0,0.0,0.0,0.0,-3.6897,-3.7208,-3.8089,-3.7955,-3.7535,-3.6896,-3.6184,0.0,0.0,0.0,0.0,0.0,0.0,0.0,0.0,0.0,0.0,0.0,0.0,-4.0877,-4.1138,0.0,0.0,0.0,0.0,0.0,0.0,0.0,0.0,0.0,0.0,0.0,0.0,0.0,0.0,0.0,0.0,0.0,0.0,0.0,-4.5645,-4.5765,-4.622,-4.7062,-4.8068,-4.8858,-4.8197,-4.7279,-4.8171,-4.7112,-4.565,-4.5685,-4.5661,-4.5648,-4.5648,-4.5696,-4.5865,-4.6315,-4.7603,-4.8919,-4.9595,-5.1942,-5.3945,-5.4177,-5.525,-5.6114,-5.6191,-5.6197,-5.6213,-5.6291,-5.6291,-5.6291,-5.6291,-5.6291,-5.6291,-5.6291,-5.6291,-5.6291,0.0,0.0,-5.6291,-5.6291,-5.5943,-5.5495,-5.5012,-5.4613,-5.4409,-5.4409,-5.4409,-5.4409,-5.4409,-5.4271,-5.4163,-5.4091,-5.3963,-5.3628,-5.3181,-5.3181,0.0,-5.1501,-5.0845,-4.9956,-4.89,-4.7826,-4.7134,-4.6705,-4.6188,-4.5922,-4.577,0.0,0.0,0.0,0.0,0.0,0.0,0.0,-3.6492,-3.6883,-3.7553,-3.7962,-3.7939,-3.7275,-3.6353,-3.5872,0.0,0.0,0.0,0.0,0.0,0.0,0.0,0.0,0.0,0.0,0.0,0.0,-4.1189,-4.239,0.0,0.0,0.0,0.0,0.0,-4.2885,0.0,0.0,0.0,0.0,0.0,0.0,0.0,0.0,0.0,0.0,0.0,0.0,-4.5587,-4.5847,-4.6056,-4.7155,-4.8561,-4.9461,-4.875,-4.7708,-4.8226,-4.7138,-4.5731,-4.5566,-4.5419,-4.5342,-4.5342,-4.54,-4.5448,-4.5522,-4.6724,-4.8132,-4.9228,-5.1356,-5.3356,-5.4504,-5.5434,-5.6065,-5.6184,-5.6197,-5.6213,-5.6291,-5.6291,-5.6291,-5.6291,-5.6291,0.0,-5.6291,-5.6291,0.0,0.0,0.0,0.0,-5.6185,-5.5613,-5.5154,-5.4806,-5.4536,-5.4409,-5.4409,-5.4409,-5.4409,-5.4409,-5.4252,-5.4051,-5.3829,-5.3665,-5.3144,-5.2345,-5.2345,0.0,0.0,-4.9965,-4.9055,-4.7941,-4.7364,-4.6765,-4.6172,-4.6048,-4.5922,-4.577,0.0,0.0,0.0,0.0,0.0,0.0,0.0,-3.5251,-3.5735,-3.5815,-3.7232,-3.7872,-3.7021,-3.706,-3.6685,0.0,0.0,0.0,0.0,0.0,0.0,0.0,0.0,0.0,0.0,0.0,0.0,-4.2416,-4.2585,0.0,0.0,0.0,0.0,0.0,0.0,-4.2631,0.0,0.0,0.0,0.0,0.0,0.0,0.0,0.0,0.0,0.0,0.0,-4.5262,-4.6013,-4.6872,-4.7745,-4.8675,-4.9801,-4.9699,-4.9061,-4.8486,-4.7376,-4.6165,-4.5443,-4.5044,-4.4861,-4.4861,-4.4861,-4.4915,-4.5041,-4.6359,-4.7812,-4.8766,-5.0987,-5.3096,-5.4231,-5.5141,-5.5837,-5.6149,0.0,-5.6213,-5.6291,-5.6291,-5.6291,-5.6291,0.0,0.0,-5.6291,-5.6291,0.0,0.0,0.0,0.0,-5.5768,-5.5473,-5.5154,-5.4806,-5.4536,-5.4409,-5.4409,-5.4409,-5.4409,-5.4409,-5.4373,-5.3893,-5.3007,-5.2989,-5.2434,-5.1509,0.0,0.0,0.0,-4.9255,-4.8405,-4.7551,-4.6655,-4.6267,-4.6172,-4.6048,-4.5922,-4.577,0.0,0.0,0.0,0.0,0.0,0.0,-3.4793,-3.4873,-3.5251,-3.6241,-3.7014,-3.7491,-3.7644,-3.7797,-3.7491,0.0,0.0,0.0,0.0,0.0,0.0,0.0,0.0,0.0,0.0,0.0,-4.1924,-4.2172,-4.2452,0.0,0.0,0.0,0.0,0.0,0.0,-4.2026,-4.1749,0.0,0.0,0.0,0.0,0.0,0.0,0.0,0.0,0.0,0.0,0.0,-4.68,-4.7174,-4.7818,-4.857,-4.9036,-4.942,-4.9468,-4.8295,-4.7092,-4.5972,-4.519,-4.4872,-4.4788,-4.4788,-4.4825,-4.4872,-4.4985,-4.6605,-4.8397,-4.946,-5.158,-5.3587,-5.4673,-5.5247,-5.564,-5.5863,0.0,0.0,-5.6285,-5.6291,-5.6291,-5.6291,-5.6291,0.0,0.0,0.0,0.0,0.0,0.0,0.0,-5.55,-5.5355,-5.5063,-5.4565,-5.4458,-5.4409,-5.4409,-5.4409,-5.4409,-5.439,-5.3832,-5.3334,-5.2876,-5.2301,-5.1542,-5.0673,0.0,0.0,0.0,-4.8433,-4.7901,-4.7506,-4.6572,-4.6196,-4.6196,-4.6147,-4.5972,-4.5726,0.0,0.0,0.0,0.0,0.0,-3.4483,-3.477,-3.4712,-3.4888,-3.5683,-3.6413,-3.7053,-3.74,-3.7886,-3.8028,-3.7607,0.0,0.0,0.0,0.0,0.0,0.0,0.0,0.0,0.0,0.0,-4.1644,-4.1813,-4.2127,-4.2145,0.0,0.0,-4.1938,-4.134,0.0,0.0,0.0,0.0,0.0,0.0,0.0,0.0,0.0,0.0,0.0,0.0,0.0,0.0,0.0,0.0,0.0,-4.8635,-4.8735,-4.9178,-4.9442,-4.8312,-4.7377,-4.6497,-4.5665,-4.538,-4.53,-4.53,-4.5353,-4.5475,-4.5817,-4.737,-4.9108,-5.0423,-5.2186,-5.3811,-5.4887,-5.5218,-5.5435,0.0,0.0,-5.6071,-5.6278,-5.6291,-5.6291,-5.6291,0.0,-5.6291,0.0,-5.6291,0.0,0.0,0.0,0.0,0.0,-5.5235,-5.4969,-5.4407,-5.4409,-5.4409,-5.4409,-5.4165,-5.4052,-5.4033,-5.3103,-5.2493,-5.2147,-5.1481,-5.0668,-4.98,0.0,0.0,0.0,-4.7959,-4.7611,-4.7506,-4.6572,-4.6196,-4.6214,-4.6147,-4.5858,-4.5378,0.0,0.0,0.0,0.0,0.0,0.0,-3.406,-3.4632,-3.4714,-3.3316,-3.5318,-3.6557,-3.5695,-3.7155,-3.8202,-3.8188,0.0,0.0,0.0,0.0,0.0,0.0,0.0,0.0,0.0,0.0,-4.1076,-4.1604,-4.1604,-4.1604,-4.1604,-4.1604,-4.1604,-4.1639,0.0,0.0,0.0,0.0,0.0,0.0,0.0,0.0,0.0,0.0,0.0,0.0,0.0,0.0,0.0,0.0,0.0,0.0,0.0,-4.926,0.0,0.0,-4.8497,-4.8097,-4.7222,-4.6719,-4.6492,-4.6492,-4.6538,-4.6824,-4.7775,-4.8642,-4.9789,-5.152,-5.2585,-5.3545,-5.4614,-5.4919,-5.5148,-5.5623,0.0,0.0,-5.6272,-5.6291,-5.6291,0.0,0.0,-5.6291,-5.6291,0.0,0.0,0.0,0.0,0.0,0.0,-5.5088,-5.489,-5.4407,-5.4409,-5.4409,-5.4409,-5.3618,-5.3205,-5.3205,-5.2325,-5.1382,-5.043,-5.0411,-4.9862,0.0,0.0,0.0,0.0,-4.7959,-4.7611,-4.7506,-4.6572,-4.6196,-4.6172,-4.6048,-4.5459,-4.4672,0.0,0.0,0.0,0.0,0.0,0.0,0.0,-3.4584,-3.4364,-3.4517,-3.5397,-3.6108,-3.6439,-3.7515,-3.824,-3.8404,0.0,0.0,0.0,0.0,0.0,0.0,0.0,0.0,0.0,0.0,-4.1693,-4.2429,-4.2429,-4.2765,-4.3456,-4.3456,-4.3545,-4.3717,-4.3983,-4.409,0.0,0.0,0.0,0.0,0.0,0.0,0.0,0.0,0.0,0.0,0.0,0.0,0.0,0.0,0.0,0.0,0.0,0.0,0.0,-4.8517,-4.8306,-4.79,-4.7023,-4.6725,-4.6632,-4.6632,-4.7124,-4.7691,-4.8003,-4.9621,-5.1241,-5.1783,-5.3038,-5.4123,-5.4465,-5.4757,-5.5014,-5.5249,0.0,0.0,0.0,0.0,0.0,-5.5954,-5.5954,-5.5988,0.0,0.0,0.0,0.0,0.0,0.0,0.0,-5.5012,-5.4791,-5.4407,-5.3864,-5.3581,-5.3581,-5.2738,-5.2306,-5.2306,-5.1461,-5.0836,-5.0374,-4.9832,0.0,0.0,0.0,0.0,0.0,-4.7959,-4.7611,-4.7506,-4.6572,-4.6196,-4.6144,-4.5586,-4.5145,-4.4673,0.0,0.0,0.0,0.0,0.0,0.0,0.0,-3.4919,-3.4616,-3.4979,-3.556,-3.6143,-3.668,-3.7672,-3.8366,-3.8478,0.0,0.0,0.0,0.0,0.0,0.0,0.0,0.0,-4.1263,-4.1754,-4.2457,-4.3356,-4.3356,-4.3739,-4.4445,-4.4445,-4.4533,-4.4721,-4.4989,-4.5132,0.0,0.0,0.0,0.0,0.0,0.0,-4.6005,0.0,0.0,0.0,0.0,0.0,0.0,0.0,0.0,0.0,0.0,0.0,0.0,0.0,-4.8326,-4.8103,-4.7512,-4.7313,-4.733,-4.7467,-4.818,-4.8971,-4.9386,-5.1,-5.2475,-5.2775,-5.3677,-5.4407,-5.4455,-5.4698,-5.4952,-5.5147,0.0,0.0,0.0,0.0,0.0,-5.5798,0.0,0.0,0.0,0.0,0.0,0.0,0.0,0.0,0.0,-5.4547,-5.4219,-5.3956,-5.3468,-5.3036,-5.27,-5.1874,-5.1442,-5.1442,-5.0585,-5.0092,-4.9926,-4.9388,0.0,0.0,0.0,0.0,0.0,-4.7959,-4.7611,-4.747,-4.6277,-4.5775,-4.5688,-4.494,-4.4394,-4.389,0.0,0.0,0.0,0.0,0.0,0.0,0.0,0.0,-3.532,-3.4806,-3.5811,-3.6577,-3.6577,-3.7763,-3.8589,-3.8626,0.0,0.0,0.0,0.0,0.0,0.0,0.0,0.0,-4.2654,-4.2732,-4.3286,-4.4359,-4.4382,-4.4574,-4.4886,-4.4886,-4.4886,-4.4943,-4.564,-4.5944,0.0,0.0,0.0,0.0,-4.7043,-4.7025,0.0,0.0,0.0,0.0,0.0,0.0,0.0,0.0,0.0,0.0,0.0,0.0,0.0,0.0,0.0,0.0,0.0,-4.8345,-4.842,-4.8789,-4.9525,-5.0447,-5.16,-5.258,0.0,-5.424,-5.4409,-5.4441,-5.4581,-5.4757,-5.4981,-5.5244,0.0,0.0,0.0,-5.576,0.0,0.0,-5.5789,0.0,0.0,0.0,0.0,0.0,0.0,0.0,0.0,-5.3748,-5.3217,-5.3017,-5.3017,-5.2642,-5.1818,-5.1011,-5.0598,-5.0598,-4.973,-4.926,-4.9197,-4.9135,0.0,0.0,0.0,0.0,0.0,-4.7939,-4.7554,-4.7301,-4.5705,-4.5062,-4.4922,-4.4115,-4.3308,-4.2602,0.0,0.0,0.0,0.0,0.0,0.0,0.0,0.0,0.0,0.0,-3.6402,-3.7271,-3.7467,-3.8535,-3.9398,0.0,0.0,0.0,0.0,0.0,0.0,0.0,0.0,0.0,-4.239,-4.3053,-4.3871,-4.4835,-4.5252,-4.5869,-4.6675,-4.6675,-4.6802,-4.7009,-4.719,-4.7262,0.0,0.0,0.0,0.0,-4.7298,-4.7359,0.0,0.0,0.0,0.0,-4.7785,-4.7845,0.0,0.0,0.0,0.0,0.0,0.0,0.0,0.0,-4.7888,-4.7909,-4.7868,0.0,-4.8698,-4.9381,-5.0176,-5.1083,0.0,-5.3141,-5.3847,-5.4301,-5.4409,-5.4441,-5.4581,-5.4757,-5.4956,-5.5116,0.0,-5.5472,-5.5502,0.0,0.0,-5.5621,-5.5558,0.0,0.0,0.0,0.0,0.0,0.0,0.0,0.0,-5.2774,-5.196,-5.1308,-5.1289,-5.1196,-5.0973,-5.0185,-4.9721,-4.9621,-4.9418,-4.9246,-4.9116,-4.9101,0.0,0.0,0.0,0.0,-4.8401,-4.7818,-4.7057,-4.6149,-4.5394,-4.4711,-4.4097,-4.3342,-4.2933,-4.2642,0.0,0.0,0.0,0.0,0.0,0.0,0.0,0.0,0.0,0.0,0.0,0.0,0.0,0.0,0.0,0.0,0.0,0.0,0.0,0.0,0.0,0.0,0.0,-4.3558,-4.3767,-4.4231,-4.4984,-4.6074,-4.6347,-4.6823,-4.749,-4.749,-4.7554,-4.7717,-4.7717,-4.7717,-4.7717,-4.7717,-4.7717,-4.7696,-4.7533,0.0,0.0,0.0,0.0,0.0,-4.7717,-4.7717,0.0,-4.7717,-4.7717,-4.7717,0.0,0.0,0.0,0.0,-4.795,-4.8239,-4.8239,-4.8475,-4.8869,-4.9428,-5.0498,-5.1592,-5.2493,-5.3311,-5.3999,-5.4339,-5.4409,-5.4441,-5.4581,-5.4695,-5.4833,-5.5066,-5.52,0.0,0.0,0.0,-5.5422,-5.5495,0.0,0.0,0.0,0.0,0.0,0.0,0.0,0.0,0.0,-5.1847,-5.1142,-5.0707,-5.0335,-5.0147,-5.0147,-4.9715,-4.9474,-4.939,-4.9311,-4.923,-4.915,-4.9049,0.0,0.0,0.0,0.0,-4.8231,-4.7395,-4.656,-4.5673,-4.45,-4.3781,-4.3307,-4.2535,-4.2254,-4.2179,0.0,0.0,0.0,0.0,0.0,0.0,0.0,0.0,0.0,0.0,0.0,0.0,0.0,0.0,0.0,0.0,0.0,0.0,0.0,0.0,0.0,0.0,-4.4044,-4.4406,-4.5407,-4.5537,-4.6098,-4.7236,-4.7302,-4.749,-4.7717,-4.7717,-4.7717,-4.7717,-4.7717,-4.7717,-4.7717,-4.7717,-4.7717,-4.7717,-4.7717,0.0,0.0,0.0,0.0,0.0,0.0,0.0,0.0,-4.7823,-4.7877,-4.7916,-4.8043,0.0,0.0,0.0,0.0,0.0,-4.9094,-4.9162,-4.9321,-4.9542,-5.0665,-5.1896,-5.2585,-5.3274,-5.387,-5.4233,-5.4321,-5.4371,-5.4565,-5.4597,-5.4723,0.0,0.0,0.0,-5.5332,-5.5345,-5.5377,-5.539,0.0,0.0,0.0,0.0,0.0,0.0,0.0,0.0,0.0,0.0,0.0,-5.0519,-4.9865,-4.9509,-4.9509,-4.9509,-4.9474,-4.9443,-4.9279,-4.9179,-4.9146,-4.8978,-4.8909,0.0,0.0,0.0,-4.7896,-4.666,-4.5827,-4.5174,-4.3467,-4.2728,-4.2535,-4.185,-4.1604,-4.1604,0.0,0.0,0.0,0.0,0.0,0.0,0.0,0.0,0.0,0.0,0.0,0.0,0.0,0.0,0.0,0.0,0.0,0.0,0.0,0.0,0.0,-4.5925,-4.4737,-4.4406,-4.5161,-4.5614,-4.6213,-4.6954,-4.7407,-4.7657,-4.7717,-4.7717,-4.7717,-4.7717,-4.7717,-4.7717,-4.7717,-4.7717,-4.7717,-4.7717,-4.7717,0.0,0.0,0.0,0.0,0.0,0.0,0.0,0.0,-4.8475,-4.871,-4.8818,-4.951,0.0,0.0,0.0,0.0,0.0,-4.9908,-5.0397,-5.0945,-5.0971,-5.1193,-5.1649,-5.2697,-5.3059,-5.33,-5.387,-5.3981,-5.4107,-5.4514,-5.4597,-5.4723,0.0,0.0,-5.5107,0.0,0.0,-5.5214,0.0,0.0,0.0,0.0,0.0,0.0,0.0,0.0,0.0,0.0,0.0,0.0,-4.9678,-4.9565,-4.9509,-4.9509,-4.9509,-4.9409,-4.9246,-4.9195,-4.9113,-4.8943,-4.8926,-4.8909,0.0,0.0,-4.711,-4.6604,-4.5375,-4.424,-4.3228,-4.2926,-4.2394,-4.178,-4.1657,-4.1604,-4.1582,0.0,0.0,0.0,0.0,0.0,0.0,0.0,0.0,0.0,0.0,0.0,0.0,0.0,0.0,0.0,0.0,0.0,0.0,0.0,0.0,-4.6424,-4.6876,-4.6312,-4.6272,-4.6882,-4.7445,-4.804,-4.8623,-4.8876,-4.9003,-4.9003,-4.9003,-4.9003,-4.9003,-4.9003,-4.9003,-4.9003,-4.9003,-4.9003,-4.9003,0.0,0.0,0.0,0.0,0.0,0.0,0.0,0.0,0.0,0.0,-4.9546,-4.9601,-4.9985,0.0,0.0,0.0,0.0,0.0,-5.0764,-5.1344,-5.1937,-5.1937,-5.1937,-5.2141,-5.2842,-5.2999,-5.313,-5.3545,-5.3776,-5.3981,0.0,0.0,-5.4568,-5.4799,0.0,-5.4985,-5.4985,0.0,0.0,0.0,0.0,0.0,0.0,0.0,0.0,0.0,0.0,0.0,0.0,0.0,0.0,0.0,-4.9509,-4.9509,-4.9509,-4.9424,-4.9343,-4.926,-4.9181,-4.91,-4.8996,-4.848,-4.8259,-4.8186,0.0,-4.6191,-4.5649,-4.4444,-4.3491,-4.2763,-4.2324,-4.1938,-4.1604,-4.1604,-4.1604,-4.1582,0.0,0.0,0.0,0.0,0.0,0.0,0.0,0.0,0.0,0.0,0.0,0.0,0.0,0.0,0.0,0.0,0.0,0.0,0.0,0.0,-4.7183,-4.7871,-4.819,-4.8424,-4.862,-4.9059,-4.9546,-5.0112,-5.0112,-5.0112,-5.0112,-5.0112,-5.0112,-5.0112,-5.0112,-5.0112,-5.0112,-5.0112,-5.0112,-5.0112,0.0,0.0,0.0,0.0,0.0,0.0,0.0,0.0,0.0,0.0,0.0,0.0,0.0,0.0,0.0,-5.0673,-5.1086,-5.1574,-5.1574,-5.2027,-5.2498,-5.2498,-5.2498,-5.2567,-5.2824,-5.289,-5.2959,-5.3242,-5.3505,-5.3738,0.0,-5.4197,0.0,-5.4552,-5.4695,-5.4822,0.0,0.0,0.0,0.0,0.0,0.0,0.0,0.0,0.0,0.0,0.0,0.0,0.0,0.0,0.0,0.0,-4.9509,-4.9474,-4.944,-4.9155,-4.9089,-4.9276,-4.8945,-4.8787,-4.8751,-4.7828,-4.7423,-4.735,-4.6154,-4.5351,-4.4816,-4.3619,-4.2871,-4.2464,-4.185,-4.1604,-4.1604,-4.1604,-4.1604,-4.1604,0.0,0.0,0.0,0.0,0.0,0.0,0.0,0.0,0.0,0.0,0.0,0.0,0.0,0.0,0.0,0.0,0.0,0.0,0.0,0.0,-4.8877,-4.9433,-5.0112,-5.0083,-4.924,-4.9293,-4.9546,-5.0112,-5.0112,-5.0112,-5.0112,-5.0112,-5.0112,-5.0112,-5.0112,-5.0112,-5.0112,-5.0112,-5.0112,-5.0112,-5.0112,0.0,0.0,0.0,0.0,0.0,0.0,0.0,0.0,0.0,0.0,0.0,0.0,0.0,-5.2317,-5.2317,-5.2371,-5.2408,-5.2408,-5.2462,-5.2498,-5.2498,-5.2498,-5.2521,-5.2544,-5.2544,-5.264,-5.2959,-5.3063,-5.3238,-5.3795,-5.4281,-5.4552,-5.4441,-5.4519,0.0,0.0,0.0,0.0,0.0,0.0,0.0,0.0,0.0,0.0,0.0,0.0,0.0,0.0,0.0,0.0,0.0,0.0,-4.944,-4.9324,-4.8496,-4.8482,-4.9195,-4.8313,-4.786,-4.7774,-4.6958,-4.6587,-4.6515,-4.5307,-4.451,-4.4005,-4.2774,-4.2051,-4.1692,-4.1622,-4.1604,-4.1604,-4.1604,-4.1604,-4.1604,0.0,0.0,0.0,0.0,0.0,0.0,0.0,0.0,0.0,0.0,0.0,0.0,0.0,0.0,0.0,0.0,0.0,0.0,0.0,-4.8644,-4.9256,-5.0241,-5.0544,-5.0899,-5.1285,-5.1285,-5.1396,-5.1574,-5.1574,-5.1574,-5.1574,-5.1574,-5.1574,-5.1574,-5.1574,-5.1574,-5.1574,-5.1574,-5.1574,-5.1574,-5.1574,-5.1574,0.0,0.0,0.0,0.0,0.0,0.0,0.0,0.0,-5.18,-5.1538,0.0,0.0,-5.1933,-5.1933,-5.2228,-5.2498,-5.2498,-5.2498,-5.2498,-5.2498,-5.2498,-5.2498,-5.2498,-5.2498,-5.2544,-5.2663,-5.2846,-5.3175,-5.3795,0.0,-5.4213,-5.4373,0.0,0.0,0.0,0.0,0.0,0.0,0.0,0.0,0.0,0.0,0.0,0.0,0.0,0.0,0.0,0.0,0.0,0.0,0.0,-4.8624,-4.8556,-4.761,-4.7269,-4.7586,-4.7187,-4.6973,-4.6921,-4.6122,-4.5751,-4.5663,-4.4161,-4.3413,-4.3188,-4.2237,-4.174,-4.1604,-4.1604,-4.1604,-4.1552,-4.1078,-4.0924,-4.0832,0.0,0.0,0.0,0.0,0.0,0.0,0.0,0.0,0.0,0.0,0.0,0.0,0.0,0.0,0.0,0.0,0.0,0.0,-4.8564,-4.8923,-4.961,-5.0653,-5.0885,-5.1457,-5.2475,-5.2498,-5.2498,-5.2498,-5.2498,-5.2498,-5.2498,-5.2498,-5.2498,-5.2498,-5.2498,-5.2498,-5.2498,-5.2498,-5.2498,-5.2498,-5.2498,-5.2498,0.0,0.0,0.0,0.0,0.0,0.0,0.0,0.0,-5.2228,-5.186,0.0,0.0,0.0,0.0,-5.1884,-5.2251,-5.2434,-5.2498,-5.2498,-5.2498,-5.2498,-5.2498,-5.2498,-5.2498,-5.2498,-5.2498,-5.2775,-5.313,-5.3543,-5.3681,0.0,0.0,0.0,0.0,0.0,0.0,0.0,0.0,0.0,0.0,0.0,0.0,0.0,0.0,0.0,0.0,0.0,0.0,0.0,0.0,0.0,-4.7701,-4.7635,-4.6688,-4.6217,-4.6201,-4.5858,-4.5844,-4.6085,-4.5268,-4.4878,-4.4809,-4.3539,-4.2922,-4.2753,-4.2071,-4.1719,-4.1604,-4.1604,-4.1464,-4.1183,-4.0695,-4.0344,-4.0024,0.0,0.0,0.0,0.0,0.0,0.0,0.0,0.0,0.0,0.0,0.0,0.0,0.0,0.0,0.0,0.0,0.0,0.0,-4.8818,-4.9496,-5.0142,-5.0697,-5.126,-5.1884,-5.2498,-5.2498,-5.2498,-5.2498,-5.2498,-5.2498,-5.2498,-5.2498,-5.2498,-5.2498,-5.2498,-5.2498,-5.2498,-5.2498,-5.2498,-5.2498,-5.2498,-5.2498,-5.2498,0.0,0.0,0.0,0.0,0.0,0.0,0.0,-5.2498,-5.2387,0.0,0.0,0.0,0.0,-5.1594,-5.1719,-5.2322,-5.2498,-5.2498,-5.2498,-5.2498,-5.2498,-5.2498,-5.2498,-5.2498,-5.2498,-5.2757,-5.2999,-5.2999,-5.3219,0.0,0.0,0.0,0.0,0.0,0.0,0.0,0.0,0.0,0.0,0.0,0.0,0.0,0.0,0.0,0.0,0.0,0.0,0.0,0.0,0.0,0.0,-4.6587,-4.5786,-4.5363,-4.5268,-4.4413,-4.4451,-4.5249,-4.4395,-4.4005,-4.3989,-4.3559,-4.3177,-4.2772,-4.236,-4.1963,-4.1604,-4.1604,-4.113,-4.0502,-4.0485,-3.9972,-3.9284,0.0,0.0,0.0,0.0,0.0,0.0,0.0,0.0,0.0,0.0,0.0,0.0,0.0,0.0,0.0,0.0,0.0,0.0,-4.8818,-4.9496,-5.0142,-5.0697,-5.126,-5.1884,-5.2498,-5.2498,-5.2498,-5.2498,-5.2498,-5.2498,-5.2498,-5.2498,-5.2498,-5.2498,-5.2498,-5.2498,-5.2498,-5.2498,-5.2498,-5.2498,-5.2498,-5.2498,-5.2498,0.0,0.0,0.0,0.0,0.0,0.0,0.0,0.0,0.0,0.0,0.0,0.0,-5.0394,-5.0678,-5.1087,-5.1719,-5.186,-5.1975,-5.2387,-5.2498,-5.2498,-5.2498,-5.2498,-5.2498,-5.2498,-5.2572,-5.2731,-5.2955,-5.3066,0.0,0.0,0.0,0.0,0.0,0.0,0.0,0.0,0.0,0.0,0.0,0.0,0.0,0.0,0.0,0.0,0.0,0.0,0.0,0.0,0.0,0.0,-4.5749,-4.4848,-4.4408,-4.4376,-4.4116,-4.4135,-4.4376,-4.4116,-4.4005,-4.3989,-4.3559,-4.3177,-4.2753,-4.205,-4.1719,-4.1552,-4.1025,-4.0695,-4.0362,-3.9217,-3.8655,-3.8392,0.0,0.0,0.0,0.0,0.0,0.0,0.0,0.0,0.0,0.0,-4.3384,-4.3762,0.0,0.0,0.0,0.0,0.0,0.0,0.0,-4.9727,-5.0359,-5.0697,-5.1508,-5.2138,-5.2498,-5.2498,-5.2498,-5.2498,-5.2498,-5.2498,-5.2498,-5.2498,-5.2498,-5.2498,-5.2498,-5.2498,-5.2498,-5.2498,-5.2498,-5.2498,-5.2498,-5.2498,-5.2498,0.0,0.0,0.0,0.0,0.0,0.0,0.0,0.0,0.0,0.0,0.0,0.0,-5.017,-5.0442,-5.0885,-5.1743,-5.1975,-5.2048,-5.241,-5.2498,-5.2498,-5.2498,-5.2498,-5.2498,-5.2498,-5.2498,-5.2549,-5.2757,-5.2802,0.0,0.0,0.0,0.0,0.0,0.0,0.0,0.0,0.0,0.0,0.0,0.0,0.0,0.0,0.0,0.0,0.0,0.0,0.0,0.0,0.0,0.0,-4.4845,-4.4278,-4.4005,-4.4005,-4.4005,-4.4005,-4.4005,-4.4005,-4.4005,-4.3974,-4.3406,-4.2829,-4.2244,-4.1492,-4.1148,-4.1078,-4.0305,-3.9814,-3.9427,-3.8462,-3.7918,-3.7602,0.0,0.0,0.0,0.0,0.0,0.0,0.0,0.0,0.0,0.0,-4.3596,-4.4073,0.0,0.0,0.0,0.0,0.0,0.0,0.0,0.0,-5.0707,-5.0778,-5.1884,-5.2498,-5.2498,-5.2498,-5.2498,-5.2498,-5.2498,-5.2498,-5.2498,-5.2498,-5.2498,-5.2498,-5.2498,-5.2498,-5.2498,-5.2498,-5.2498,-5.2498,-5.2498,-5.2498,-5.2498,-5.2498,0.0,0.0,0.0,0.0,0.0,0.0,0.0,0.0,-4.9999,-4.9832,-4.9902,-5.0415,-5.0589,-5.0885,-5.2006,-5.2387,-5.2434,-5.2498,-5.2498,-5.2498,-5.2498,-5.2498,-5.2498,-5.2498,0.0,-5.2498,-5.2498,-5.2498,0.0,0.0,0.0,0.0,0.0,0.0,0.0,0.0,0.0,0.0,0.0,0.0,0.0,0.0,0.0,0.0,0.0,0.0,0.0,0.0,0.0,0.0,-4.4005,-4.4005,-4.4005,0.0,-4.4005,-4.4005,-4.4005,-4.4005,-4.3989,-4.3908,-4.3141,-4.2344,-4.1512,-4.0805,-4.0467,-4.0309,-3.9498,-3.8743,-3.8093,-3.8023,-3.7567,-3.7007,0.0,0.0,0.0,0.0,0.0,0.0,0.0,0.0,0.0,0.0,0.0,0.0,0.0,0.0,0.0,0.0,0.0,0.0,0.0,0.0,-5.0911,-5.1381,-5.2096,-5.2498,-5.2498,-5.2498,-5.2498,-5.2498,-5.2498,-5.2498,-5.2498,-5.2498,-5.2498,-5.2498,-5.2498,-5.2498,-5.2498,-5.2498,-5.2498,-5.2498,-5.2498,-5.2498,-5.2498,-5.2498,-5.2498,0.0,0.0,0.0,0.0,0.0,0.0,0.0,-4.9509,-4.9199,-4.9229,-4.9316,-4.9698,-5.0226,-5.0902,-5.1432,-5.1909,-5.2387,-5.2498,-5.2498,-5.2498,-5.2498,-5.2498,-5.2498,-5.2498,-5.2498,-5.2498,0.0,0.0,0.0,0.0,0.0,0.0,0.0,0.0,0.0,0.0,0.0,0.0,0.0,0.0,0.0,0.0,0.0,0.0,0.0,0.0,0.0,0.0,-4.402,-4.4005,-4.4005,-4.4005,0.0,-4.4005,-4.4005,-4.4005,-4.4005,-4.3825,-4.3491,-4.3014,-4.2199,-4.1164,-4.0704,-4.0133,-3.948,-3.8673,-3.8251,-3.8041,-3.7444,-3.7148,-3.7007,0.0,0.0,0.0,0.0,0.0,0.0,0.0,0.0,0.0,0.0,0.0,0.0,0.0,0.0,0.0,0.0,0.0,0.0,0.0,0.0,-5.1113,-5.2,-5.2322,-5.2498,-5.2498,-5.2498,-5.2498,-5.2498,-5.2498,-5.2498,-5.2498,-5.2498,-5.2498,-5.2498,-5.2498,-5.2498,-5.2498,-5.2498,-5.2498,-5.2498,-5.2498,-5.2498,-5.2498,-5.2498,-5.2498,-5.2498,-5.2498,0.0,0.0,0.0,0.0,0.0,0.0,0.0,-4.9063,-4.9333,-4.9656,-5.0074,-5.092,-5.1278,-5.1543,-5.2156,0.0,-5.234,-5.2475,-5.2498,-5.2498,-5.2498,-5.2498,-5.2498,0.0,0.0,0.0,0.0,0.0,0.0,0.0,0.0,0.0,0.0,0.0,0.0,0.0,0.0,0.0,0.0,0.0,0.0,0.0,0.0,0.0,0.0,-4.3848,-4.3809,-4.4005,-4.4005,-4.4005,-4.4005,-4.4005,-4.3801,-4.3448,-4.3819,-4.3474,-4.2575,-4.2359,-4.1493,-4.0202,-3.9708,-3.9197,-3.8655,-3.7983,-3.7646,-3.7532,-3.7148,-3.7007,-3.7007,0.0,0.0,0.0,0.0,0.0,0.0,0.0,0.0,0.0,0.0,0.0,0.0,0.0,0.0,0.0,0.0,0.0,0.0,0.0,0.0,0.0,-5.2475,-5.2498,-5.2498,-5.2498,-5.2498,-5.2498,-5.2498,-5.2498,-5.2498,-5.2498,-5.2498,-5.2498,-5.2498,-5.2498,-5.2498,-5.2498,-5.2498,-5.2498,-5.2498,-5.2498,-5.2498,-5.2498,-5.2498,-5.2498,-5.2498,-5.2498,-5.2186,-5.1644,-5.0955,0.0,0.0,0.0,0.0,-4.9077,-4.9615,-4.9832,-5.0102,-5.1044,-5.1244,-5.1339,-5.1963,-5.2102,0.0,-5.2364,-5.2428,-5.2452,-5.2498,-5.2498,0.0,0.0,0.0,0.0,0.0,0.0,0.0,0.0,0.0,0.0,0.0,0.0,0.0,0.0,0.0,0.0,0.0,0.0,0.0,0.0,0.0,-4.3524,-4.3396,-4.3321,-4.3418,-4.3688,-4.3622,-4.3564,-4.3481,-4.3481,-4.3098,-4.2421,-4.3185,-4.2803,-4.1542,-4.1488,-4.0609,-3.9162,-3.8618,-3.8263,-3.7968,-3.7487,-3.7201,-3.7046,-3.7009,-3.7007,-3.7007,0.0,0.0,0.0,0.0,0.0,0.0,0.0,0.0,0.0,0.0,-4.5861,-4.6675,0.0,0.0,0.0,0.0,0.0,0.0,0.0,0.0,0.0,-5.2498,-5.2498,-5.2498,-5.2498,-5.2498,-5.2498,-5.2498,-5.2498,-5.2498,-5.2498,-5.2498,-5.2498,-5.2498,-5.2498,-5.2498,-5.2498,-5.2498,-5.2498,-5.2498,-5.2498,-5.2498,-5.2498,-5.2498,-5.2498,-5.2498,-5.2498,-5.2434,-5.2209,-5.1087,-5.0643,0.0,0.0,0.0,-4.9001,-4.9094,-4.9496,-4.993,-5.0074,0.0,-5.1339,0.0,-5.2102,-5.2126,0.0,0.0,-5.2222,0.0,0.0,0.0,0.0,0.0,0.0,0.0,0.0,0.0,0.0,0.0,0.0,0.0,0.0,0.0,0.0,0.0,0.0,0.0,0.0,0.0,0.0,-4.4587,-4.4057,-4.3414,-4.3057,-4.2741,-4.2428,-4.2137,-4.1789,-4.1409,-4.1409,-4.1191,-4.0829,-4.1409,-4.1358,-4.0812,-4.0635,-3.9877,-3.8765,-3.8506,-3.8118,-3.7646,-3.7389,-3.7278,-3.7239,-3.7066,-3.7007,-3.7007,0.0,0.0,0.0,0.0,0.0,0.0,0.0,0.0,0.0,0.0,0.0,-4.6864,0.0,0.0,0.0,-4.9001,0.0,0.0,0.0,0.0,0.0,-5.2498,-5.2498,-5.2498,-5.2498,-5.2498,-5.2498,-5.2498,-5.2498,-5.234,-5.2,-5.2,-5.2162,-5.2498,-5.2498,-5.2298,-5.2,-5.2,-5.1793,-5.1508,-5.186,-5.2,-5.2024,-5.2364,-5.2498,-5.2498,-5.2498,-5.2275,-5.186,-5.0991,-5.0497,-5.0113,-4.9273,0.0,0.0,0.0,-4.9199,-4.9496,-4.9971,-5.0338,-5.0741,0.0,-5.1304,-5.1244,-5.1381,0.0,-5.1914,0.0,0.0,0.0,0.0,0.0,0.0,0.0,0.0,0.0,0.0,0.0,0.0,0.0,0.0,0.0,0.0,0.0,0.0,0.0,0.0,-4.5182,-4.3886,-4.323,-4.2424,-4.1484,-4.1271,-4.1215,-4.1263,-4.1088,-4.0924,-4.0715,-4.0715,-4.0411,-3.9838,-4.0195,-4.0128,-3.975,-3.9767,-3.9139,-3.8094,-3.8113,-3.7898,-3.7577,-3.7503,-3.7391,-3.7278,-3.7085,-3.7007,-3.7007,0.0,0.0,0.0,0.0,0.0,0.0,0.0,0.0,0.0,0.0,0.0,0.0,0.0,0.0,0.0,0.0,-4.9555,0.0,0.0,0.0,0.0,-5.2498,-5.2498,-5.2498,-5.2498,-5.2498,-5.2498,-5.2498,-5.2364,-5.2048,-5.1594,-5.1432,-5.1601,-5.2048,-5.2048,-5.1793,-5.1381,-5.1381,-5.1113,-5.0751,-5.1183,-5.1381,-5.1432,-5.2048,-5.2275,-5.2298,-5.2434,-5.2114,-5.15,-5.0885,-5.0331,-4.9803,-4.9199,-4.9001,0.0,0.0,0.0,-4.9152,-4.9925,0.0,-4.9999,-5.048,-5.0452,-5.0415,0.0,0.0,0.0,0.0,0.0,0.0,0.0,0.0,0.0,0.0,0.0,0.0,0.0,0.0,0.0,0.0,0.0,0.0,0.0,0.0,0.0,0.0,0.0,-4.4044,-4.2306,-4.1657,-4.0824,-3.9775,-3.9759,-3.9829,-4.0041,-3.9824,-3.9698,-3.9608,-3.9698,-3.9409,-3.8797,-3.9091,-3.904,-3.8726,-3.892,-3.8525,-3.7757,-3.7864,-3.7846,-3.7757,-3.7703,-3.7558,-3.7353,-3.7163,-3.7046,-3.7007,0.0,0.0,0.0,0.0,0.0,0.0,0.0,0.0,0.0,0.0,0.0,0.0,-4.8798,-4.897,-4.9001,-4.9001,-4.9555,-5.0366,-5.1525,-5.2162,0.0,-5.2498,-5.2498,0.0,-5.2498,-5.2498,-5.2498,-5.2498,-5.1927,-5.1644,-5.1576,-5.1008,-5.0778,-5.0805,-5.0805,-5.0778,-5.0751,-5.0751,-5.0724,-5.0707,-5.0724,-5.0751,-5.0805,-5.1406,-5.1644,-5.1719,-5.2298,-5.2114,-5.15,-5.0885,-5.0331,-4.9803,-4.9199,-4.9001,-4.9001,0.0,0.0,0.0,-4.9517,-4.9445,0.0,-4.9763,-4.9833,0.0,0.0,0.0,0.0,0.0,0.0,0.0,0.0,0.0,0.0,0.0,0.0,0.0,0.0,0.0,0.0,0.0,0.0,0.0,0.0,0.0,0.0,0.0,0.0,0.0,-4.0748,-4.0573,-4.0186,-3.9361,-3.9325,-3.9161,-3.879,-3.8042,-3.75,-3.7191,-3.75,-3.7557,-3.7425,-3.7951,-3.8107,-3.7953,-3.8089,-3.8174,-3.814,-3.7969,-3.8021,-3.8158,-3.7951,-3.7757,-3.7558,-3.7353,-3.7163,-3.7007,0.0,0.0,0.0,0.0,0.0,0.0,0.0,0.0,0.0,0.0,0.0,0.0,0.0,-4.9001,-4.9001,-4.9001,-4.9855,-5.092,-5.2114,-5.2387,0.0,-5.2498,-5.2498,-5.2498,-5.2498,-5.2498,-5.2298,-5.1909,-5.1694,-5.1244,-5.0505,-5.0282,-4.9971,-4.9639,-5.0369,-5.0525,-5.0198,-5.0198,-4.9971,-4.9639,-5.0028,-5.0198,-5.0237,-5.0822,-5.1034,-5.1061,-5.1286,-5.0973,-5.0477,-5.0254,-4.9786,-4.9273,-4.9063,-4.9001,-4.9001,-4.9001,-4.8956,-4.9001,-4.961,0.0,0.0,-4.9385,-4.9325,-4.9144,-4.9295,-4.9593,0.0,0.0,0.0,0.0,0.0,0.0,0.0,0.0,0.0,0.0,0.0,0.0,0.0,0.0,0.0,0.0,0.0,0.0,0.0,0.0,0.0,0.0,-3.9796,-3.9234,-3.8602,-3.7848,-3.7812,-3.7981,-3.8314,-3.8543,-3.8604,-3.848,-3.8728,-3.8809,-3.8805,-3.9281,-3.95,-3.9445,-3.9571,-3.9097,-3.8192,-3.8106,-3.8123,-3.8175,-3.7969,-3.7793,-3.7576,-3.7372,-3.7182,-3.7007,0.0,0.0,0.0,0.0,0.0,0.0,0.0,0.0,-4.5499,-4.6638,0.0,0.0,0.0,0.0,-4.9094,-4.9273,-5.0163,-5.1113,-5.2138,-5.2387,-5.2498,-5.2498,-5.2498,-5.2498,-5.2498,-5.2298,-5.2,-5.1601,-5.1218,-5.0642,-4.989,-4.9686,-4.9394,-4.9032,-4.9797,-4.9942,-4.9615,-4.9615,-4.9364,-4.9032,-4.9453,-4.9615,-4.9656,-5.0237,-5.0535,-5.0697,-5.0697,-5.047,-5.0142,-4.9959,-4.9466,-4.8956,-4.897,-4.9001,-4.9001,-4.9001,-4.8956,-4.894,-4.9346,-4.892,-4.8483,0.0,0.0,-4.8562,-4.8671,0.0,0.0,0.0,0.0,0.0,0.0,0.0,0.0,0.0,0.0,0.0,0.0,0.0,0.0,0.0,0.0,0.0,0.0,0.0,0.0,0.0,0.0,0.0,-3.9336,-3.8775,-3.8286,-3.7777,-3.776,-3.8006,-3.8515,-3.902,-3.9325,-3.9391,-3.9537,-3.968,-3.9856,-4.0161,-4.0328,-4.0365,-4.0474,-3.993,-3.8971,-3.8971,-3.8971,-3.8917,-3.8543,-3.8277,-3.8061,-3.7573,-3.7278,-3.7085,0.0,0.0,0.0,0.0,0.0,0.0,0.0,0.0,-4.5536,-4.6638,0.0,0.0,0.0,0.0,0.0,-4.9861,-5.0387,-5.0955,-5.1551,-5.2162,-5.2457,-5.2457,0.0,0.0,0.0,-5.1884,-5.1569,-5.1551,-5.0449,-4.989,-4.9861,-4.9273,-4.9001,-4.9001,-4.9001,-4.9001,-4.9001,-4.9001,-4.9001,-4.9001,-4.9001,-4.9001,-4.9063,-4.9644,-5.0198,-5.0643,-5.0643,-5.0643,-5.0562,-5.0028,-4.9394,-4.8832,-4.894,-4.9001,-4.9001,-4.9001,-4.9001,-4.894,0.0,0.0,0.0,-4.8131,0.0,0.0,-4.8574,0.0,0.0,0.0,0.0,0.0,0.0,0.0,0.0,0.0,0.0,0.0,0.0,0.0,0.0,0.0,0.0,0.0,0.0,0.0,0.0,0.0,0.0,-4.0133,-3.9336,-3.9284,-3.9284,-3.9284,-3.9319,-3.9357,-3.9357,-3.9354,-3.9461,-3.9671,-3.9691,-3.9927,-4.0363,-4.0363,-4.0455,-4.0564,-4.0546,-4.0528,-4.0528,-4.0474,-4.0474,-4.0383,-3.9659,-3.9246,-3.8959,-3.7971,-3.7484,-3.7259,0.0,0.0,0.0,0.0,0.0,0.0,-4.3949,-4.5184,-4.6272,0.0,0.0,0.0,-4.897,-4.9001,-4.9243,-4.9861,-5.0387,-5.0955,-5.1551,-5.1761,-5.186,-5.186,-5.1432,-5.1191,-5.1191,-5.1034,-5.0742,-5.0366,-5.0045,-4.9674,-4.926,-4.9094,-4.9001,-4.9001,-4.9001,-4.9001,-4.9001,-4.9001,-4.9001,-4.9001,-4.9001,-4.9001,-4.9032,-4.9199,-4.9346,-4.9479,-4.9479,-4.9479,-4.9466,-4.9303,-4.9107,-4.8956,-4.9001,-4.9001,-4.9001,-4.9001,-4.8925,-4.8863,-4.8877,0.0,0.0,0.0,0.0,0.0,0.0,0.0,0.0,0.0,0.0,0.0,0.0,0.0,0.0,0.0,0.0,0.0,0.0,0.0,0.0,0.0,0.0,0.0,0.0,0.0,0.0,0.0,-4.0375,-3.9533,-3.9301,-3.9284,-3.9284,-3.9284,-3.9866,-4.0186,-4.0186,-4.0691,-4.1063,-4.1279,-4.1446,-4.1687,-4.1981,-4.2117,-4.2193,-4.2194,-4.1614,-4.1361,-4.127,-4.0166,-3.9695,-3.9623,-3.8826,-3.8415,-3.8187,-3.7775,-3.7484,-3.7259,0.0,0.0,0.0,0.0,0.0,0.0,-4.4089,-4.5463,-4.6553,0.0,0.0,0.0,-4.9001,-4.9001,-4.9138,-4.9496,-5.0056,-5.0515,-5.0884,-5.1105,-5.1235,-5.1235,-5.0885,-5.0697,-5.0697,-5.048,-5.0209,-4.989,-4.9644,-4.9333,-4.9001,-4.9001,-4.9001,-4.9001,-4.9001,-4.9001,-4.9001,-4.9001,-4.9001,-4.9001,-4.9001,-4.9001,-4.9001,-4.9001,-4.9168,-4.9333,-4.9094,-4.9168,-4.9333,-4.9077,-4.9001,-4.9001,-4.8909,-4.894,-4.9001,-4.9001,-4.894,-4.8863,-4.8815,-4.8392,-4.7968,-4.7873,0.0,0.0,-4.6475,-4.5864,0.0,0.0,0.0,0.0,0.0,0.0,0.0,0.0,0.0,0.0,0.0,0.0,0.0,0.0,0.0,0.0,0.0,0.0,0.0,0.0,-4.0481,-3.9937,-4.0253,-4.027,-4.027,-4.027,-4.0709,-4.0955,-4.0955,-4.1464,-4.1849,-4.2061,-4.231,-4.253,-4.2728,-4.25,-4.2393,-4.2357,-4.1542,-4.1198,-4.1107,-3.9894,-3.9568,-3.9786,-3.8989,-3.863,-3.8455,-3.7828,-3.7539,-3.7391,0.0,0.0,0.0,0.0,0.0,0.0,-4.4205,-4.5536,-4.662,0.0,-4.828,-4.9238,-4.9238,-4.9171,-4.9171,-4.9238,-4.9727,-5.0011,-5.0011,-5.0471,-5.0704,-5.0616,-5.0562,-5.0507,-5.0507,-5.0056,0.0,0.0,0.0,0.0,0.0,-4.9001,-4.9001,-4.9001,-4.9001,-4.9001,-4.9001,-4.9001,-4.9001,-4.9001,-4.9001,-4.9001,-4.9001,-4.9001,-4.9333,-4.9715,-4.9199,-4.9333,-4.9715,-4.9168,-4.9001,-4.897,-4.8863,-4.8894,-4.9001,-4.9001,-4.8951,-4.879,-4.8493,-4.7972,-4.7418,-4.6934,-4.6354,0.0,-4.5713,-4.5102,-4.4572,0.0,0.0,0.0,0.0,0.0,0.0,0.0,0.0,0.0,0.0,0.0,0.0,0.0,0.0,0.0,0.0,-4.0787,-4.045,-4.1463,-4.0972,-4.0924,-4.1569,-4.1516,-4.1481,-4.1481,-4.1394,-4.1358,-4.1363,-4.1558,-4.1774,-4.206,-4.2241,-4.2456,-4.2592,-4.1904,-4.156,-4.1524,-4.0709,-4.0383,-4.0311,-3.9568,-3.9713,-4.0293,-3.955,-3.9278,-3.9135,-3.8008,-3.7594,-3.7485,-4.329,0.0,0.0,0.0,0.0,0.0,-4.4065,-4.5572,-4.6987,-4.7607,-4.9493,-5.0762,-5.0762,-5.0236,-5.0118,-5.0727,-5.0792,-5.0792,-5.0792,-5.0875,-5.0685,-5.0091,-4.9598,-4.9316,-4.9316,-4.9212,0.0,0.0,0.0,0.0,0.0,0.0,-4.9001,-4.9001,-4.9001,-4.9001,-4.9001,-4.9001,-4.9001,-4.9001,-4.9001,-4.9001,-4.9001,-4.9001,-4.9077,-4.9168,-4.9032,-4.9094,-4.9168,-4.9032,-4.9001,-4.9001,-4.897,-4.897,-4.9001,-4.9001,-4.8486,-4.7939,-4.7861,-4.7155,-4.6388,-4.6279,-4.5621,0.0,-4.4934,-4.434,-4.3797,0.0,0.0,0.0,0.0,0.0,0.0,0.0,0.0,0.0,0.0,0.0,0.0,0.0,0.0,0.0,0.0,-4.0594,-4.0868,-4.1117,-4.1268,-4.1446,-4.1604,-4.1025,-4.0713,-4.0713,-4.0095,-3.9845,-3.9994,-4.0017,-4.0239,-4.061,-4.0648,-4.0761,-4.0963,-4.08,-4.0727,-4.0691,-3.9948,-3.9604,-3.955,-3.8753,-3.8898,-3.9532,-3.8735,-3.8444,-3.8375,-3.7811,-3.7429,-3.7147,-4.329,-4.329,0.0,0.0,0.0,0.0,0.0,-4.6219,-4.7468,-4.7846,-4.9524,-5.0659,-5.0659,-5.0659,-5.0811,-5.1183,-5.1148,-5.1097,-5.1097,-5.0755,-5.0393,-5.0017,-4.9372,-4.9001,-4.9001,-4.9001,-4.9001,0.0,0.0,0.0,0.0,0.0,0.0,-4.8894,-4.897,-4.897,-4.8894,-4.897,-4.9001,-4.9001,-4.9001,0.0,-4.9001,-4.9001,-4.9001,-4.9001,-4.9001,-4.9001,-4.9001,-4.9001,-4.9001,0.0,-4.9001,-4.894,-4.881,-4.847,-4.7976,-4.7452,-4.7021,-4.6232,-4.5513,-4.5421,-4.4765,0.0,0.0,-4.3876,-4.3598,0.0,0.0,0.0,0.0,0.0,0.0,0.0,0.0,0.0,0.0,0.0,0.0,0.0,0.0,0.0,0.0,-4.0221,-4.0597,-4.0977,-4.0856,-4.0827,-4.1042,-4.0305,-3.9901,-3.9901,-3.9515,-3.9409,-3.9595,-3.9716,-3.9895,-4.0199,-4.0311,-4.0402,-4.0474,-4.013,-3.9948,-3.9912,-3.9134,-3.8807,-3.8753,-3.8372,-3.8444,-3.877,-3.8372,-3.8209,-3.8123,-3.7558,-3.7242,-3.7013,-4.329,-4.329,-4.3384,0.0,0.0,0.0,0.0,-4.6909,-4.8083,-4.8679,-4.9934,-5.0693,-5.0524,-5.093,-5.1185,-5.1185,-5.1082,-5.1065,-5.12,-5.0642,-5.0236,-5.0101,-4.9526,-4.9154,-4.9001,-4.9001,-4.9001,0.0,0.0,0.0,0.0,0.0,0.0,-4.8801,-4.8877,-4.8863,-4.8818,-4.8925,-4.8987,-4.9001,0.0,-4.9001,-4.9001,-4.9001,-4.9001,-4.9001,-4.9001,-4.9001,-4.9001,-4.9001,-4.9001,-4.9001,-4.9001,-4.8824,0.0,-4.7858,-4.7334,-4.6798,-4.6091,-4.5313,-4.4687,0.0,0.0,-4.3598,0.0,0.0,0.0,0.0,0.0,0.0,0.0,0.0,0.0,0.0,0.0,0.0,0.0,0.0,0.0,0.0,0.0,0.0,0.0,-3.9741,-3.9951,-4.0618,-4.006,-3.9825,-4.0166,-3.9456,-3.9076,-3.9076,-3.8957,-3.9012,-3.9195,-3.941,-3.962,-3.9824,-3.9968,-4.0075,-4.0039,-3.9441,-3.9187,-3.9115,-3.848,-3.8209,-3.8209,-3.8209,-3.814,-3.8071,-3.8157,-3.814,-3.7985,-3.7337,-3.6993,-3.6759,-4.329,-4.329,-4.3384,0.0,0.0,0.0,0.0,0.0,-4.883,-5.1479,-5.2588,-5.2841,-5.2131,-5.1555,-5.1185,-5.1185,-5.0608,-5.0507,-5.1166,-5.1133,-5.0777,-5.0118,-5.0016,-4.9661,-4.9018,-4.9001,-4.9001,0.0,0.0,0.0,0.0,0.0,0.0,0.0,-4.8627,-4.8658,-4.8818,-4.8818,-4.8894,0.0,-4.9001,-4.9001,0.0,-4.9001,-4.9001,-4.9001,-4.9001,-4.9001,-4.9001,0.0,-4.9001,-4.9001,0.0,-4.847,-4.7807,-4.7706,0.0,0.0,0.0,0.0,0.0,0.0,-4.3648,0.0,0.0,0.0,-4.34,-4.2754,0.0,0.0,0.0,0.0,0.0,0.0,0.0,0.0,0.0,0.0,0.0,0.0,0.0,0.0,0.0,0.0,-3.9073,-3.9463,-3.9134,-3.8937,-3.8981,-3.851,-3.8251,-3.8251,-3.778,-3.7619,-3.7844,-3.8044,-3.8221,-3.8428,-3.8445,-3.8462,-3.8462,-3.8372,-3.8354,-3.8336,-3.8245,-3.8209,-3.8209,-3.8209,-3.795,-3.7614,-3.8037,-3.795,-3.7541,-3.7225,-3.6658,-3.5994,-4.329,-4.329,-4.3384,-4.3651,0.0,0.0,0.0,0.0,-5.0393,-5.2082,-5.2587,-5.2689,-5.2334,-5.2452,-5.2536,-5.2536,-5.2249,-5.2012,-5.186,-5.1454,-5.0879,-5.0118,-4.9678,-4.9323,-4.9018,-4.9001,-4.9001,-4.9001,-4.9001,0.0,0.0,0.0,0.0,0.0,-4.8483,-4.8483,-4.8468,-4.8564,-4.8738,0.0,0.0,0.0,0.0,-4.9001,-4.9001,-4.9001,-4.9001,-4.9001,-4.8934,0.0,-4.8376,0.0,0.0,0.0,0.0,-4.6287,0.0,0.0,0.0,0.0,0.0,0.0,0.0,0.0,-4.3052,0.0,-4.2738,0.0,0.0,0.0,0.0,0.0,0.0,0.0,-3.9763,0.0,0.0,0.0,0.0,0.0,0.0,0.0,0.0,0.0,0.0,0.0,0.0,-3.7665,-3.8083,-3.7516,-3.7263,-3.7461,-3.7358,-3.7391,-3.7595,-3.7811,-3.8003,-3.8209,-3.8209,-3.8209,-3.8209,-3.8209,-3.8209,-3.8209,-3.8209,-3.8209,-3.8192,-3.7915,-3.7667,-3.7505,-3.745,-3.7339,-3.7094,-3.66,-3.6186,-3.582,-4.329,-4.329,-4.3423,-4.3714,0.0,0.0,0.0,-5.0289,-5.2029,-5.2553,-5.2638,-5.2536,-5.2317,-5.2824,-5.3095,-5.2892,-5.2875,-5.2723,-5.2334,-5.1809,-5.1183,-5.0422,-4.9898,-4.9407,-4.9018,-4.9001,-4.9001,0.0,0.0,0.0,0.0,0.0,0.0,0.0,0.0,-4.7992,-4.7928,0.0,-4.796,-4.8133,-4.8147,-4.8239,-4.8443,-4.8849,-4.8883,-4.8714,-4.8714,-4.8578,-4.8325,-4.7784,-4.7567,0.0,-4.6713,0.0,-4.5828,0.0,0.0,0.0,-4.3731,0.0,0.0,0.0,0.0,0.0,0.0,0.0,0.0,0.0,0.0,0.0,0.0,0.0,-3.9928,-3.9398,0.0,-3.9299,0.0,0.0,0.0,0.0,0.0,0.0,0.0,0.0,0.0,0.0,-3.6589,0.0,-3.6986,-3.6696,-3.6606,-3.6869,-3.7201,-3.7466,-3.7595,-3.7846,-3.8073,-3.8209,-3.8209,-3.8209,-3.8209,-3.8209,-3.8209,-3.8209,-3.8209,-3.8123,-3.7967,-3.7632,-3.7377,-3.7151,-3.6841,-3.6661,-3.6498,-3.6058,-3.582,-3.5661,-4.329,-4.329,-4.3463,-4.3895,-4.4519,0.0,0.0,-5.1903,-5.3433,-5.3467,-5.3467,-5.3162,-5.2384,-5.2317,-5.2063,-5.132,-5.1252,-5.1589,-5.2249,-5.2283,-5.1944,-5.1185,-5.1134,-5.0473,-4.9035,-4.9001,-4.9001,0.0,0.0,0.0,0.0,0.0,0.0,0.0,-4.7303,-4.7053,-4.7178,-4.6493,-4.6252,-4.6388,-4.6522,-4.6688,-4.7022,0.0,-4.8578,-4.7922,-4.7922,0.0,0.0,-4.6836,-4.6714,0.0,0.0,0.0,0.0,0.0,0.0,0.0,0.0,0.0,0.0,-4.2704,0.0,0.0,0.0,0.0,-4.1243,0.0,0.0,0.0,0.0,-3.9332,-3.9332,-3.9299,-3.9299,0.0,0.0,0.0,0.0,0.0,0.0,0.0,0.0,0.0,0.0,-3.6067,-3.5686,-3.5458,-3.5481,-3.6127,-3.6502,-3.6523,-3.7222,-3.7577,-3.7595,-3.8003,-3.8192,-3.8209,-3.8209,-3.8209,-3.8209,-3.8209,-3.8209,-3.8209,-3.8209,-3.795,-3.7523,-3.7505,-3.7055,-3.6343,-3.6322,-3.6045,-3.565,-3.5837,-3.5655,-3.5291,-4.329,-4.329,-4.3463,-4.391,-4.4534,-4.612,0.0,-5.197,-5.3501,-5.3501,-5.3501,-5.3399,-5.3129,-5.3095,-5.2993,-5.2756,-5.2723,-5.2604,-5.2317,-5.23,-5.1758,-5.0524,-5.0473,-5.0016,-4.9018,-4.9001,-4.9001,0.0,0.0,0.0,0.0,0.0,0.0,0.0,0.0,-4.621,0.0,0.0,0.0,0.0,0.0,-4.6455,-4.6671,0.0,0.0,-4.7175,-4.7175,-4.7005,0.0,-4.6094,-4.582,-4.566,-4.5001,-4.4536,-4.4264,-4.4129,-4.3857,0.0,0.0,0.0,-4.2688,-4.1972,0.0,0.0,0.0,0.0,0.0,0.0,0.0,0.0,0.0,-3.8925,-3.8772,-3.9245,-3.8925,-3.8799,0.0,0.0,0.0,0.0,0.0,0.0,0.0,0.0,0.0,-3.5313,-3.515,-3.5165,0.0,-3.5854,-3.622,-3.6502,-3.7222,-3.7595,-3.7595,-3.8003,-3.8209,-3.8209,-3.8209,-3.8209,-3.8209,-3.8209,-3.8209,-3.8209,-3.8209,-3.7933,-3.7487,-3.7209,-3.6799,-3.628,-3.5958,-3.5711,-3.552,-3.5509,-3.5412,-3.5268,-4.329,-4.3512,-4.3786,-4.3988,-4.5349,-4.7334,0.0,0.0,0.0,-5.3501,-5.3501,-5.3501,-5.3501,-5.3501,-5.3501,-5.3501,-5.3501,-5.3281,-5.2756,-5.2469,-5.1758,-5.0541,-5.0236,-4.9746,-4.9018,-4.9001,-4.8987,-4.8925,0.0,-4.8595,0.0,0.0,0.0,0.0,0.0,-4.54,-4.5384,-4.5135,-4.5097,0.0,0.0,-4.555,0.0,0.0,-4.6131,-4.6397,0.0,-4.6123,-4.5819,-4.5173,-4.4917,-4.4729,-4.409,-4.3868,-4.3713,-4.3313,-4.3201,-4.3035,-4.2307,-4.2092,0.0,-4.1226,-4.1044,0.0,-4.0177,0.0,0.0,0.0,0.0,0.0,0.0,-3.8072,-3.7838,-3.8466,-3.8003,-3.7769,0.0,-3.8112,0.0,0.0,0.0,0.0,0.0,0.0,-3.5413,-3.4932,-3.4899,-3.4977,0.0,0.0,-3.5924,-3.6367,-3.7052,-3.7522,-3.7703,-3.8038,-3.8209,-3.8209,-3.8209,-3.8209,-3.8209,-3.8209,-3.8209,-3.8192,-3.802,-3.7703,-3.7265,-3.6841,-3.6451,-3.6023,-3.5689,-3.5543,-3.5492,-3.5354,-3.5245,-3.5111,-4.329,-4.3966,-4.4427,-4.4134,-4.685,0.0,0.0,0.0,-5.3501,0.0,-5.3501,-5.3501,-5.3501,-5.3501,-5.3501,-5.3501,-5.3501,-5.3484,-5.345,-5.2723,-5.1961,-5.12,-5.0473,-4.9746,-4.9018,-4.897,-4.8909,-4.8786,0.0,0.0,0.0,0.0,0.0,0.0,-4.5237,0.0,-4.4589,-4.391,-4.3598,-4.3628,-4.3793,-4.3969,-4.4097,-4.4224,0.0,-4.5595,-4.5416,-4.4887,-4.4281,-4.4126,-4.3998,-4.3898,-4.3864,-4.3713,-4.34,-4.2655,-4.244,-4.2274,-4.1558,-4.1331,-4.1193,-4.0525,0.0,0.0,0.0,0.0,-3.825,0.0,0.0,0.0,0.0,0.0,-3.6479,-3.7056,-3.6637,-3.6395,-3.6976,-3.7027,-3.6746,0.0,0.0,0.0,0.0,-3.5313,-3.4899,-3.4899,-3.4899,-3.4899,0.0,0.0,0.0,-3.6147,-3.6741,-3.7318,-3.7828,-3.8055,-3.8175,-3.8175,-3.8192,-3.8209,-3.8209,-3.8209,-3.8192,-3.814,-3.7685,-3.7265,-3.6841,-3.6451,-3.6023,-3.56,-3.552,-3.5492,-3.5469,-3.5337,-3.5111,-3.4899,-4.329,-4.4082,-4.4854,0.0,-4.7741,-5.0185,0.0,0.0,0.0,0.0,-5.3501,-5.3501,-5.3501,-5.3501,-5.3501,-5.3501,-5.3501,0.0,0.0,-5.2418,-5.1725,-5.0439,-5.0092,-4.9607,-4.8849,-4.8721,-4.861,-4.8595,0.0,0.0,-4.7396,0.0,0.0,0.0,0.0,-4.3406,-4.3863,-4.3664,-4.3598,-4.3598,-4.3674,-4.3793,0.0,0.0,-4.4202,-4.4514,-4.4567,-4.4392,-4.4126,-4.3998,-4.3927,-4.3768,-4.3086,-4.2829,-4.2638,-4.1893,-4.1662,-4.1541,-4.0829,-4.0647,-4.0464,-3.9763,-3.9221,-3.8791,0.0,0.0,0.0,0.0,0.0,0.0,0.0,0.0,0.0,-3.6282,-3.6324,-3.6215,-3.6266,-3.5891,0.0,-3.5215,0.0,0.0,0.0,-3.5015,-3.4899,-3.4899,-3.4899,0.0,0.0,0.0,0.0,-3.5744,-3.6287,-3.6698,-3.6915,-3.7431,-3.7667,-3.7667,-3.8037,-3.8209,-3.8209,-3.8209,-3.802,-3.7667,-3.7542,-3.7113,-3.6451,-3.6343,-3.6023,-3.56,-3.552,-3.5377,-3.5198,-3.5158,-3.5041,-3.4899,-4.329,-4.4335,-4.5646,-4.7109,0.0,0.0,-5.0458,-5.1964,0.0,-5.2418,-5.3027,0.0,-5.3501,-5.3196,-5.2976,-5.2976,-5.2689,0.0,-5.186,0.0,0.0,-5.0057,-4.956,-4.9095,-4.8675,-4.8547,-4.8307,-4.7902,-4.7408,0.0,-4.6519,0.0,0.0,0.0,0.0,-4.3235,-4.3598,-4.3598,-4.3598,-4.3598,-4.3598,0.0,0.0,-4.3868,-4.3681,-4.3439,-4.3583,-4.3801,-4.3948,-4.344,-4.3281,-4.3149,-4.2299,-4.2009,-4.1889,-4.1177,-4.0961,-4.0812,-4.0111,-3.9704,-3.938,-3.8969,-3.8151,-3.7488,-3.7488,-3.6745,-3.5978,0.0,0.0,0.0,0.0,0.0,0.0,-3.4415,-3.4946,-3.5249,-3.5193,0.0,0.0,0.0,-3.4899,0.0,0.0,-3.4899,-3.4899,-3.4899,0.0,0.0,0.0,0.0,0.0,-3.5722,-3.6015,-3.6354,-3.6719,-3.7075,-3.7246,-3.7246,-3.7685,-3.788,-3.788,-3.788,-3.7756,-3.7487,-3.7132,-3.6719,-3.628,-3.6088,-3.5822,-3.5526,-3.5383,-3.5198,-3.5018,-3.5018,-3.497,-3.4899,-4.329,-4.4586,-4.639,0.0,0.0,0.0,0.0,-5.0216,0.0,-5.0857,0.0,-5.3095,-5.318,-5.257,-5.2164,-5.2131,0.0,-5.1102,-5.1017,-5.0266,-4.9814,-4.9714,-4.8916,-4.8452,-4.8452,-4.8351,-4.7899,-4.7073,0.0,0.0,0.0,0.0,0.0,0.0,0.0,0.0,0.0,-4.3598,-4.3598,-4.3598,-4.3598,-4.3532,-4.3479,-4.366,-4.3149,-4.2386,-4.2546,-4.3019,-4.344,-4.263,-4.2357,-4.2224,-4.1508,-4.1276,-4.1143,-4.0475,-4.0205,-4.0001,-3.934,-3.8624,-3.8064,-3.8064,-3.7109,-3.6143,-3.6143,-3.5181,-3.4264,-3.4172,-3.3713,0.0,0.0,0.0,0.0,-3.2502,-3.3272,0.0,0.0,0.0,0.0,0.0,0.0,0.0,0.0,0.0,0.0,0.0,0.0,0.0,0.0,0.0,0.0,0.0,-3.582,0.0,-3.6701,0.0,-3.6821,-3.6821,-3.7227,-3.7432,-3.7432,-3.7432,-3.7377,-3.7303,-3.6597,-3.628,-3.6174,-3.5756,-3.5526,-3.5423,-3.5198,-3.5018,-3.4899,-3.4899,-3.4899,-3.4899,-4.329,-4.4586,-4.5853,0.0,0.0,-4.6231,-4.616,-4.7971,-4.9496,-4.9944,-5.0387,-5.0928,-5.1541,-5.1488,-5.1355,-5.1242,-5.1124,0.0,0.0,0.0,0.0,-4.8782,-4.8423,-4.826,-4.826,-4.7549,-4.7105,0.0,0.0,0.0,0.0,0.0,0.0,0.0,0.0,0.0,-4.3598,-4.3598,0.0,-4.3598,-4.3598,-4.3234,-4.2688,-4.2717,-4.2253,-4.1607,-4.1636,-4.1735,-4.1818,-4.1657,-4.1579,-4.1475,-4.0779,-4.0591,-4.0442,-3.9713,-3.9095,-3.8625,-3.8495,-3.7605,-3.6731,-3.6731,-3.5734,-3.4742,-3.4742,-3.418,-3.3502,-3.2961,-3.2736,-3.2527,-3.1944,0.0,0.0,0.0,0.0,0.0,0.0,0.0,0.0,0.0,0.0,-3.4423,0.0,0.0,0.0,0.0,0.0,0.0,0.0,0.0,0.0,0.0,0.0,0.0,0.0,0.0,0.0,-3.6409,-3.6801,-3.7017,-3.7017,-3.7017,-3.6821,-3.6512,-3.6364,-3.6088,-3.5711,-3.5566,-3.5383,-3.5175,-3.5128,-3.5018,-3.4899,-3.4899,-3.4899,-3.4899,-4.4472,0.0,-4.5221,-4.5624,0.0,0.0,0.0,-4.5641,0.0,-4.7766,-4.8784,-4.9487,-4.985,-4.9571,-4.9271,-4.9117,-4.8721,-4.8326,-4.7879,-4.7761,-4.753,-4.7187,-4.6659,-4.6379,-4.6379,-4.5632,-4.5025,-4.4637,0.0,0.0,-4.2469,0.0,0.0,0.0,0.0,-4.1884,0.0,0.0,0.0,-4.2507,-4.2472,-4.2241,-4.1926,-4.1926,-4.1508,-4.0878,-4.0878,-4.0402,-3.9881,-4.0646,-4.0649,-4.0246,-3.9526,-3.91,-3.8764,-3.8424,-3.7838,-3.7306,-3.7306,-3.6368,-3.5344,-3.5344,-3.4382,-3.3408,-3.3408,-3.29,-3.2363,-3.2049,-3.1974,-3.1884,-3.157,-3.1754,0.0,0.0,0.0,0.0,0.0,0.0,-3.3481,0.0,0.0,0.0,0.0,0.0,0.0,0.0,0.0,0.0,0.0,0.0,0.0,0.0,0.0,0.0,0.0,0.0,0.0,-3.5937,-3.6388,-3.6577,-3.6577,-3.6577,-3.6492,-3.628,-3.6045,-3.58,-3.5526,-3.536,-3.5222,-3.5088,-3.5018,-3.497,-3.4899,-3.4899,-3.4899,-3.4875,-4.4893,-4.4489,0.0,0.0,-4.4558,0.0,-4.4457,-4.3996,-4.4178,-4.5715,-4.7225,-4.8236,-4.8379,-4.8034,-4.771,-4.7499,-4.6948,-4.6475,-4.6156,-4.5962,-4.5757,-4.5456,-4.4823,-4.4503,-4.4503,-4.3841,-4.3151,0.0,0.0,0.0,0.0,0.0,0.0,0.0,0.0,0.0,0.0,0.0,-4.1074,-4.1057,-4.103,-4.0923,-4.0775,-4.0775,-4.0348,-3.9769,-3.9769,-3.9068,-3.829,-3.9388,-3.9398,-3.885,-3.8286,-3.7697,-3.7178,-3.7178,-3.6614,-3.5962,-3.5962,-3.5027,-3.3992,-3.3992,-3.3138,-3.2273,-3.2273,-3.1869,-3.1511,-3.1511,-3.1511,-3.1511,-3.1511,-3.1511,0.0,0.0,0.0,0.0,0.0,0.0,0.0,0.0,0.0,0.0,-3.4529,0.0,0.0,0.0,0.0,0.0,0.0,0.0,0.0,0.0,0.0,0.0,-3.5446,0.0,-3.56,0.0,-3.598,-3.6152,-3.6152,-3.6152,-3.6152,-3.6131,-3.5756,-3.5503,-3.54,-3.5198,-3.5065,-3.5041,-3.4947,-3.4899,-3.4899,-3.4899,-3.4899,-3.4851,0.0,0.0,0.0,0.0,0.0,0.0,0.0,-4.3849,-4.3723,-4.4776,-4.5807,-4.6679,-4.7368,-4.8034,-4.8343,-4.8148,-4.8049,-4.7375,-4.5922,-4.5822,-4.5245,-4.3974,-4.3825,-4.3778,-4.3778,-4.3097,-4.2665,0.0,0.0,-4.0365,0.0,0.0,0.0,0.0,0.0,0.0,0.0,-3.996,-3.969,-3.969,-3.9688,-3.9321,-3.878,-3.878,-3.8321,-3.7671,-3.7671,-3.761,-3.7488,-3.7655,-3.7642,-3.7567,-3.7504,-3.7015,-3.6479,-3.6479,-3.5571,-3.4606,-3.4606,-3.3648,-3.2691,-3.2691,-3.2137,-3.1585,-3.1585,-3.1555,-3.1511,-3.1511,-3.1511,-3.1511,-3.1511,-3.1511,-3.1697,0.0,0.0,0.0,0.0,0.0,-3.1966,-3.2492,0.0,0.0,0.0,0.0,0.0,0.0,0.0,0.0,0.0,0.0,0.0,-3.4923,0.0,-3.5314,-3.5314,-3.5503,0.0,-3.56,-3.5644,-3.5667,-3.5667,-3.5667,-3.5667,-3.5667,-3.5543,-3.536,-3.5152,-3.5111,-3.5018,-3.4923,-3.4899,-3.4899,-3.4899,-3.4899,-3.4899,-3.4828,0.0,0.0,0.0,0.0,0.0,0.0,0.0,-4.2378,-4.2301,-4.2705,-4.353,-4.4208,-4.4507,-4.4476,-4.4331,-4.4134,-4.4134,-4.3845,-4.3185,-4.3169,-4.2901,-4.2349,-4.1914,-4.1715,-4.1715,-4.104,-4.0668,0.0,0.0,0.0,0.0,0.0,0.0,0.0,0.0,-3.8378,-3.8604,-3.835,-3.823,-3.8247,-3.8227,-3.8078,-3.784,-3.784,-3.7666,-3.7399,-3.7399,-3.6878,-3.6206,-3.6206,-3.6206,-3.6206,-3.6206,-3.5472,-3.465,-3.465,-3.3983,-3.3259,-3.3259,-3.2584,-3.1899,-3.1899,-3.1705,-3.1511,-3.1511,-3.1511,-3.1511,-3.1511,-3.1511,-3.1511,-3.1511,-3.1511,-3.1582,0.0,0.0,0.0,0.0,0.0,0.0,-3.237,0.0,-3.296,0.0,0.0,0.0,0.0,0.0,0.0,0.0,0.0,0.0,-3.4899,0.0,-3.5175,-3.5175,-3.5429,-3.5543,-3.5543,-3.5594,-3.56,-3.56,-3.5549,-3.5498,-3.5412,-3.5314,-3.5198,-3.5088,-3.5018,-3.4947,-3.4899,-3.4899,-3.4899,-3.4899,-3.4899,-3.4626,-3.4185,-4.1878,0.0,-4.0861,0.0,-4.1085,-4.116,-4.1354,-4.1422,-4.1422,-4.1422,-4.1738,-4.2168,-4.2614,-4.2434,-4.2239,-4.2108,-4.2071,-4.1884,-4.1496,-4.1444,-4.1257,-4.0853,-4.0367,0.0,-4.0113,-3.9649,-3.932,-3.9125,-3.9125,0.0,0.0,0.0,0.0,0.0,-3.7225,-3.7135,-3.7124,-3.6912,-3.685,-3.6836,-3.6832,-3.6845,-3.6845,-3.6845,-3.6705,-3.6564,-3.6564,-3.5812,-3.482,-3.482,-3.4728,-3.4561,-3.4759,-3.4091,-3.32,-3.32,-3.2736,-3.2198,-3.2198,-3.1854,-3.1511,-3.1511,-3.1511,-3.1511,-3.1511,-3.1511,-3.1511,-3.1511,-3.1511,-3.1511,-3.1511,-3.1511,-3.1511,-3.1511,0.0,0.0,0.0,0.0,0.0,0.0,-3.2477,-3.2772,-3.2949,0.0,0.0,0.0,0.0,0.0,0.0,0.0,0.0,0.0,0.0,0.0,0.0,0.0,-3.5469,-3.5492,-3.5543,-3.5571,-3.5571,-3.5475,-3.5377,-3.5245,-3.5152,-3.5065,-3.5018,-3.4947,-3.4899,-3.4899,-3.4899,-3.4787,-3.4667,-3.4602,-3.4161,-3.3521,-4.037,-3.9945,-3.9649,-4.0307,-4.0412,-4.0636,-4.128,-4.1422,-4.1422,-4.1422,-4.0816,-4.0969,-4.2365,-4.3196,-4.3683,-4.3683,-4.3683,-4.3088,-4.1696,-4.1595,-4.0949,0.0,0.0,-3.9388,-3.9388,-3.9388,-3.9095,-3.8407,0.0,0.0,-3.6522,0.0,0.0,-3.7375,-3.6776,-3.6492,-3.6447,-3.5789,-3.5519,-3.5519,-3.5537,-3.5537,-3.5537,-3.5537,-3.5117,-3.455,-3.455,-3.4099,-3.353,-3.353,-3.3066,-3.2647,-3.3305,-3.3051,-3.2497,-3.2497,-3.2034,-3.1511,-3.1511,-3.1511,-3.1511,-3.1511,-3.1511,-3.1511,-3.1511,-3.1511,-3.1511,-3.1511,-3.1511,-3.1511,-3.1511,-3.1511,-3.1511,-3.1511,0.0,0.0,0.0,0.0,0.0,-3.1511,-3.1511,-3.1739,-3.2342,0.0,0.0,0.0,0.0,0.0,0.0,0.0,0.0,-3.4875,-3.5018,0.0,-3.5088,-3.5222,-3.5377,-3.5492,-3.5492,-3.5492,-3.5492,-3.536,-3.5222,-3.5088,-3.5088,-3.5018,-3.4899,-3.4899,-3.4899,-3.4899,-3.4899,-3.457,-3.4101,-3.3894,-3.3453,-3.2933,-3.9681,-3.9553,-3.9484,-3.9694,-3.9723,-3.9798,-4.0008,-4.0053,-4.0053,-4.0053,-3.9858,-3.9871,-4.0341,-4.0608,-4.0771,0.0,-4.0771,-4.0588,0.0,-4.0105,-3.9871,-3.9424,-3.8975,-3.8721,-3.8721,-3.8272,-3.7943,-3.7719,0.0,0.0,0.0,-3.6492,-3.6357,-3.6103,-3.5908,-3.5818,-3.5804,-3.5594,-3.5504,-3.5504,-3.5504,-3.522,-3.4801,-3.4801,-3.4382,-3.3799,-3.3799,-3.338,-3.2826,-3.2826,-3.2363,-3.1854,-3.2064,-3.1989,-3.1809,-3.1809,-3.1675,-3.1511,-3.1511,-3.1511,-3.1511,-3.1511,-3.1511,-3.1511,-3.1511,-3.1511,-3.1511,-3.1511,-3.1511,-3.1511,-3.1511,-3.1511,-3.1511,-3.1511,0.0,0.0,0.0,0.0,0.0,-3.1511,-3.1511,-3.1754,0.0,-3.2547,0.0,0.0,0.0,0.0,0.0,0.0,0.0,0.0,-3.4947,0.0,-3.497,-3.5105,-3.5198,-3.5222,-3.5314,-3.5331,-3.5222,-3.5175,-3.5088,-3.497,-3.497,-3.4947,-3.4899,-3.4899,-3.4899,-3.4859,-3.4497,-3.425,-3.4034,-3.3459,-3.2837,-3.2226,-3.8661,-3.8661,-3.8661,-3.8661,-3.8871,-3.8945,-3.8706,-3.8871,-3.8945,-3.8691,-3.8661,-3.8661,-3.8661,-3.8661,0.0,-3.9005,-3.9035,-3.8931,-3.8676,-3.8661,-3.8661,-3.8661,-3.8257,-3.8018,-3.8018,0.0,0.0,-3.706,-3.6821,-3.6492,-3.6118,-3.6118,-3.5893,-3.5504,-3.5504,-3.5504,-3.5489,-3.5235,-3.5115,-3.51,-3.4846,-3.4502,-3.4098,-3.4098,-3.3709,-3.3125,-3.3125,-3.2706,-3.2108,-3.2108,-3.1854,-3.1511,-3.1511,-3.1511,-3.1511,-3.1511,-3.1511,-3.1511,-3.1511,-3.1511,-3.1511,-3.1511,-3.1511,-3.1511,-3.1511,-3.1511,-3.1511,-3.1511,-3.1511,-3.1511,-3.1511,-3.1511,-3.1511,-3.1511,0.0,-3.1511,-3.1511,0.0,0.0,0.0,0.0,0.0,0.0,-3.2398,0.0,0.0,0.0,0.0,0.0,0.0,0.0,-3.4899,-3.4899,0.0,-3.4899,-3.497,-3.5041,-3.5088,-3.5182,-3.5175,-3.5088,-3.5041,-3.497,-3.4899,-3.4899,-3.4899,-3.4899,-3.4667,-3.4594,-3.4546,-3.3968,-3.3636,-3.3403,-3.2799,-3.217,-3.1551,-3.7404,-3.7404,0.0,0.0,-3.7913,0.0,-3.7509,-3.7928,-3.8108,-3.7494,-3.7404,-3.7404,-3.7404,-3.7404,-3.7644,-3.8212,0.0,0.0,0.0,-3.7404,-3.7404,-3.7404,-3.736,0.0,-3.7345,-3.73,-3.6985,-3.6417,-3.5804,-3.5504,-3.5504,-3.5504,-3.5504,-3.5504,-3.5459,-3.5429,-3.5385,-3.4728,-3.4444,-3.4384,-3.3739,-3.3469,-3.3425,-3.3425,-3.3021,-3.2437,-3.2437,-3.2019,-3.1511,-3.1511,-3.1511,-3.1511,-3.1511,-3.1511,-3.1511,-3.1511,-3.1511,-3.1511,-3.1511,-3.1511,-3.1511,-3.1511,-3.1511,-3.1511,-3.1511,-3.1511,-3.1511,-3.1511,-3.1511,-3.1511,-3.1511,-3.1511,-3.1511,-3.1511,-3.1511,-3.1511,-3.1511,0.0,0.0,0.0,0.0,0.0,0.0,-3.2398,-3.2629,0.0,0.0,0.0,0.0,0.0,-3.3681,-3.4811,-3.4875,-3.4875,-3.4835,-3.4875,-3.497,-3.5105,-3.5105,-3.5065,-3.5018,-3.4899,-3.4835,-3.4851,-3.4787,-3.4811,-3.4804,-3.4275,-3.405,-3.3984,-3.3397,-3.2841,-3.2355,-3.199,-3.1537,-3.1043,0.0,0.0,-3.7404,-3.7404,-3.7539,-3.7584,-3.7434,-3.7539,-3.7584,-3.7434,-3.7404,-3.7404,-3.7404,-3.7404,-3.7285,-3.6971,-3.736,-3.7584,-3.7419,-3.7404,-3.7404,-3.7404,-3.6956,-3.6701,-3.6701,-3.6207,-3.5893,-3.5744,-3.5579,-3.5504,-3.5504,-3.5504,-3.5504,-3.5489,-3.4966,-3.4758,-3.4681,-3.4008,-3.3724,-3.3709,-3.3559,-3.3185,-3.2751,-3.2751,-3.2303,-3.1735,-3.1735,-3.163,-3.1511,-3.1511,-3.1511,-3.1511,-3.1511,-3.1511,-3.1511,-3.1511,-3.1511,-3.1511,-3.1511,-3.1511,-3.1511,-3.1511,-3.1511,-3.1511,-3.1511,-3.1511,-3.1511,-3.1511,-3.1511,-3.1511,-3.1511,-3.1511,-3.1511,-3.1511,-3.1511,-3.1511,-3.1511,-3.1511,0.0,0.0,-3.1511,-3.1754,-3.2342,-3.2398,-3.2437,0.0,0.0,0.0,0.0,0.0,-3.3097,-3.4234,-3.4691,-3.4691,-3.43,-3.4707,-3.4923,-3.4947,-3.4947,-3.4715,-3.4325,-3.43,-3.43,-3.4275,-3.3809,-3.3876,-3.4234,-3.3672,-3.3407,-3.3371,-3.2803,-3.252,-3.2315,-3.1567,-3.122,-3.1043,-3.6537,-3.6537,-3.6537,-3.6537,-3.6791,-3.6881,-3.6582,-3.6791,-3.6881,-3.6582,-3.6537,-3.6537,-3.6537,-3.6537,-3.6402,-3.6073,-3.6611,-3.6866,-3.6552,-3.6537,-3.6537,-3.6537,-3.6222,-3.6028,-3.6028,-3.5684,-3.5504,-3.5504,-3.519,-3.504,-3.5026,-3.4726,-3.4592,-3.4577,-3.4203,-3.4054,-3.3978,-3.332,-3.3036,-3.3021,-3.2721,-3.2377,-3.2034,-3.2034,-3.1809,-3.1511,-3.1511,-3.1511,-3.1511,-3.1511,-3.1511,-3.1511,-3.1511,-3.1511,-3.1511,-3.1511,-3.1511,-3.1511,-3.1511,-3.1511,-3.1511,-3.1511,-3.1511,-3.1511,-3.1511,-3.1511,-3.1511,-3.1511,-3.1511,-3.1511,-3.1511,-3.1511,-3.1511,-3.1511,-3.1511,-3.1511,-3.1511,-3.1511,0.0,-3.1511,-3.1511,-3.164,-3.1966,-3.1994,-3.1994,-3.1994,0.0,0.0,-3.1994,-3.2477,-3.3055,-3.3672,-3.3977,-3.3977,-3.3697,-3.3977,-3.4127,-3.4127,-3.4127,-3.3977,-3.3697,-3.3697,-3.3697,-3.3672,-3.3329,-3.3381,-3.3646,-3.3082,-3.2841,-3.2761,-3.2216,-3.1951,-3.1838,-3.1307,-3.1043,-3.0925,-3.5537,-3.5504,-3.5504,-3.5504,-3.5968,-3.6148,-3.5594,-3.5983,-3.6133,-3.5579,-3.5504,-3.5504,-3.5504,-3.5504,-3.5504,-3.5504,-3.5923,-3.5998,-3.5534,-3.5504,-3.5504,-3.5504,-3.54,-3.5355,-3.5355,-3.525,-3.5205,-3.5205,-3.4622,-3.4354,-3.4354,-3.3754,-3.3499,-3.3499,-3.3395,-3.335,-3.3305,-3.2647,-3.2333,-3.2288,-3.1735,-3.1511,-3.1511,-3.1511,-3.1511,-3.1511,-3.1511,-3.1511,-3.1511,-3.1511,-3.1511,-3.1511,-3.1511,-3.1511,-3.1511,-3.1511,-3.1511,-3.1511,-3.1511,-3.1511,-3.1511,-3.1511,-3.1511,-3.1511,-3.1511,-3.1511,-3.1511,-3.1511,-3.1511,-3.1511,-3.1511,-3.1511,-3.1511,-3.1511,-3.1511,-3.1511,-3.1511,0.0,-3.1511,-3.1511,-3.1511,-3.1511,-3.1511,-3.1511,-3.1511,-3.1511,-3.1966,0.0,0.0,-3.2407,-3.2933,-3.2933,-3.3119,-3.3182,-3.3182,-3.3119,-3.3119,-3.3182,-3.3182,-3.3172,-3.3093,-3.3093,-3.3093,-3.3066,-3.2986,-3.3013,-3.3039,-3.2492,-3.2259,-3.2203,-3.1697,-3.1409,-3.1292,-3.1132,-3.0955,-3.0791,-3.5587,-3.5504,-3.5504,-3.5504,-3.5594,-3.5624,-3.5519,-3.5594,-3.5624,-3.5519,-3.5504,-3.5504,-3.5504,-3.5504,-3.5504,-3.5504,-3.507,-3.5028,-3.5474,-3.5504,-3.5504,-3.5504,-3.4951,-3.4668,-3.4668,-3.4098,-3.3799,-3.3799,-3.3709,-3.3649,-3.3649,-3.3544,-3.3499,-3.3469,-3.2916,-3.2662,-3.2617,-3.1929,-3.166,-3.1645,-3.154,-3.1511,-3.1511,-3.1511,-3.1511,-3.1511,-3.1511,-3.1511,-3.1511,-3.1511,-3.1511,-3.1511,-3.1511,-3.1511,-3.1511,-3.1511,-3.1511,-3.1511,-3.1511,-3.1511,-3.1511,-3.1511,-3.1511,-3.1511,-3.1511,-3.1511,-3.1511,-3.1511,-3.1511,-3.1511,-3.1511,-3.1511,-3.1511,-3.1511,-3.1511,-3.1511,-3.1511,0.0,-3.1511,-3.1511,-3.1511,-3.1511,-3.1511,-3.1511,-3.1511,-3.1511,-3.1582,-3.1582,-3.1511,-3.1653,-3.1768,-3.1768,-3.2707,-3.3182,-3.3182,-3.2734,-3.2734,-3.3182,-3.3182,-3.296,-3.252,-3.252,-3.252,-3.2492,-3.1979,-3.2064,-3.2465,-3.1881,-3.164,-3.1611,-3.1409,-3.1322,-3.1248,-3.0969,-3.0821,-3.0791,-3.5429,-3.5396,-3.5422,-3.5494,-3.5504,-3.5504,-3.5504,-3.5504,-3.5504,-3.5504,-3.519,-3.4951,-3.4951,-3.4637,-3.4412,-3.4412,-3.4128,-3.4083,-3.4397,-3.4412,-3.4412,-3.4412,-3.4128,-3.3948,-3.3948,-3.3649,-3.3499,-3.3499,-3.314,-3.2961,-3.2961,-3.2602,-3.2407,-3.2392,-3.2093,-3.1959,-3.1929,-3.163,-3.1511,-3.1511,-3.1511,-3.1511,-3.1511,-3.1511,-3.1511,-3.1511,-3.1511,-3.1511,-3.1511,-3.1511,-3.1511,-3.1511,-3.1511,-3.1511,-3.1511,-3.1511,-3.1511,-3.1511,-3.1511,-3.1511,-3.1511,-3.1511,-3.1511,-3.1511,-3.1511,-3.1511,-3.1511,-3.1511,-3.1511,-3.1511,-3.1511,-3.1511,-3.1511,-3.1511,-3.1511,0.0,0.0,-3.1511,-3.1511,-3.1511,-3.1511,-3.1511,-3.1511,-3.1511,-3.1511,-3.1511,-3.1511,-3.1511,-3.1511,-3.1511,-3.1511,-3.1511,-3.1992,-3.2284,-3.2284,-3.2035,-3.2035,-3.2284,-3.2284,-3.216,-3.191,-3.191,-3.191,-3.191,-3.1611,-3.1668,-3.1881,-3.1611,-3.1511,-3.1511,-3.1351,-3.1263,-3.1161,-3.0881,-3.0762,-3.0672,-3.5268,-3.5153,-3.5125,-3.5396,-3.5329,-3.5234,-3.5234,-3.5121,-3.504,-3.504,-3.4577,-3.4279,-3.4279,-3.3799,-3.3499,-3.3499,-3.3365,-3.326,-3.326,-3.3125,-3.317,-3.3484,-3.335,-3.32,-3.3036,-3.3036,-3.3036,-3.3036,-3.2512,-3.2258,-3.2243,-3.1735,-3.1511,-3.1511,-3.1511,-3.1511,-3.1511,-3.1511,-3.1511,-3.1511,-3.1511,-3.1511,-3.1511,-3.1511,-3.1511,-3.1511,-3.1511,-3.1511,-3.1511,-3.1511,-3.1511,-3.1511,-3.1511,-3.1511,-3.1511,-3.1511,-3.1511,-3.1511,-3.1511,-3.1511,-3.1511,-3.1511,-3.1511,-3.1511,-3.1511,-3.1511,-3.1511,-3.1511,-3.1511,-3.1511,-3.1511,-3.1511,-3.1511,-3.1511,0.0,0.0,0.0,-3.1511,-3.1511,-3.1511,-3.1511,-3.1511,-3.1511,-3.1511,-3.1511,-3.1511,-3.1511,-3.1511,-3.1511,-3.1511,-3.1511,-3.1511,-3.1511,-3.1511,-3.1511,-3.1511,-3.1511,-3.1511,-3.1511,-3.1511,-3.1511,-3.1511,-3.1511,-3.1511,-3.1511,-3.1511,-3.1511,-3.1511,-3.1511,-3.1467,-3.1322,-3.1176,-3.1087,-3.0821,-3.0702,-3.0598,-3.5222,-3.4765,-3.4562,-3.5102,-3.4756,-3.4388,-3.4388,-3.397,-3.3649,-3.3649,-3.3604,-3.3559,-3.3559,-3.3529,-3.3499,-3.3499,-3.2946,-3.2557,-3.2557,-3.1989,-3.2183,-3.344,-3.2916,-3.2273,-3.166,-3.1645,-3.1645,-3.1645,-3.16,-3.157,-3.157,-3.1525,-3.1511,-3.1511,-3.1511,-3.1511,-3.1511,-3.1511,-3.1511,-3.1511,-3.1511,-3.1511,-3.1511,-3.1511,-3.1511,-3.1511,-3.1511,-3.1511,-3.1511,-3.1511,-3.1511,-3.1511,-3.1511,-3.1511,-3.1511,-3.1511,-3.1511,-3.1511,-3.1511,-3.1511,-3.1511,-3.1511,-3.1511,-3.1511,-3.1511,-3.1511,-3.1511,-3.1511,-3.1511,-3.1511,-3.1511,-3.1511,-3.1511,-3.1511,0.0,0.0,-3.1511,-3.1511,-3.1511,-3.1511,-3.1511,-3.1511,-3.1511,-3.1511,-3.1511,-3.1511,-3.1511,-3.1511,-3.1511,-3.1511,-3.1511,-3.1511,-3.1511,-3.1511,-3.1511,-3.1511,-3.1511,-3.1511,-3.1511,-3.1511,-3.1511,-3.1511,-3.1511,-3.1511,-3.1511,-3.1511,-3.1511,-3.1511,-3.1511,-3.1467,-3.122,-3.1117,-3.1043,-3.0732,-3.0598,-3.0598,-3.507,-3.4892,-3.4845,-3.5137,-3.5018,-3.486,-3.486,-3.4674,-3.4428,-3.4044,-3.3664,-3.3318,-3.2916,-3.2497,-3.2243,-3.2243,-3.2019,-3.1869,-3.1869,-3.1645,-3.1735,-3.2228,-3.2019,-3.1765,-3.1511,-3.1511,-3.1511,-3.1511,-3.1511,-3.1511,-3.1511,-3.1511,-3.1511,-3.1511,-3.1511,-3.1511,-3.1511,-3.1511,-3.1511,-3.1511,-3.1511,-3.1511,-3.1511,-3.1511,-3.1511,-3.1511,-3.1511,-3.1511,-3.1511,-3.1511,-3.1511,-3.1511,-3.1511,-3.1511,-3.1511,-3.1511,-3.1511,-3.1511,-3.1511,-3.1511,-3.1511,-3.1511,-3.1511,-3.1511,-3.1511,-3.1511,-3.1511,-3.1511,-3.1511,-3.1511,-3.1511,-3.1511,-3.1511,-3.1511,0.0,-3.1511,-3.1511,-3.1511,-3.1511,-3.1511,-3.1511,-3.1511,-3.1511,-3.1511,-3.1511,-3.1511,-3.1511,-3.1511,-3.1511,-3.1511,-3.1511,-3.1511,-3.1511,-3.1511,-3.1511,-3.1511,-3.1511,-3.1511,-3.1511,-3.1511,-3.1511,-3.1511,-3.1511,-3.1511,-3.1511,-3.1511,-3.1511,-3.1511,-3.1511,-3.1467,-3.119,-3.1117,-3.1043,-3.0732,-3.0598,-3.0539,-3.4911,-3.4832,-3.4797,-3.5059,-3.4967,-3.4859,-3.4859,-3.4679,-3.4359,-3.3794,-3.3478,-3.3131,-3.2533,-3.2068,-3.1768,-3.1768,-3.1611,-3.1511,-3.1511,-3.1511,-3.1511,-3.1511,-3.1511,-3.1511,-3.1511,-3.1511,-3.1511,-3.1511,-3.1511,-3.1511,-3.1511,-3.1511,-3.1511,-3.1511,-3.1511,-3.1511,-3.1511,-3.1511,-3.1511,-3.1511,-3.1511,-3.1511,-3.1511,-3.1511,-3.1511,-3.1511,-3.1511,-3.1511,-3.1511,-3.1511,-3.1511,-3.1511,-3.1511,-3.1511,-3.1511,-3.1511,-3.1511,-3.1511,-3.1511,-3.1511,-3.1511,-3.1511,-3.1511,-3.1511,-3.1511,-3.1511,-3.1511,-3.1511,-3.1511,-3.1511,-3.1511,-3.1511,-3.1511,-3.1511,-3.1511,-3.1511,-3.1511,-3.1511,-3.1511,-3.1511,-3.1511,-3.1511,-3.1511,-3.1511,-3.1511,-3.1511,-3.1511,-3.1511,-3.1511,-3.1511,-3.1511,-3.1511,-3.1511,-3.1511,-3.1511,-3.1511,-3.1511,-3.1511,-3.1511,-3.1511,-3.1511,-3.1511,-3.1511,-3.1511,-3.1511,-3.1511,-3.1511,-3.1511,-3.1511,-3.1482,-3.1249,-3.1028,-3.0792,-3.0499,-3.025,-2.9973,-3.4804,-3.4472,-3.4275,-3.4804,-3.4448,-3.4101,-3.4101,-3.3594,-3.3013,-3.2465,-3.2868,-3.2986,-3.2465,-3.2398,-3.2398,-3.2398,-3.1853,-3.1511,-3.1511,-3.1511,-3.1511,-3.1511,-3.1511,-3.1511,-3.1511,-3.1511,-3.1511,-3.1511,-3.1511,-3.1511,-3.1511,-3.1511,-3.1511,-3.1511,-3.1511,-3.1511,-3.1511,-3.1511,-3.1511,-3.1511,-3.1511,-3.1511,-3.1511,-3.1511,-3.1511,-3.1511,-3.1511,-3.1511,-3.1511,-3.1511,-3.1511,-3.1511,-3.1511,-3.1511,-3.1511,-3.1511,-3.1511,-3.1511,-3.1511,-3.1511,-3.1511,-3.1511,-3.1511,-3.1511,-3.1511,-3.1511,-3.1511,-3.1511,-3.1511,-3.1511,-3.1511,-3.1511,-3.1511,-3.1511,-3.1511,-3.1511,-3.1511,-3.1511,-3.1511,-3.1511,-3.1511,-3.1511,-3.1511,-3.1511,-3.1511,-3.1511,-3.1511,-3.1511,-3.1511,-3.1511,-3.1511,-3.1511,-3.1511,-3.1511,-3.1511,-3.1511,-3.1511,-3.1511,-3.1511,-3.1511,-3.1511,-3.1511,-3.1511,-3.1511,-3.1511,-3.1511,-3.1511,-3.1511,-3.1511,-3.1467,-3.1336,-3.0877,-3.0269,-2.9999,-2.9461,-2.8892,-3.4875,-3.4763,-3.4715,-3.4875,-3.478,-3.4667,-3.4667,-3.4505,-3.4218,-3.3662,-3.3739,-3.3594,-3.3029,-3.2614,-3.2398,-3.2398,-3.1853,-3.1511,-3.1511,-3.1511,-3.1511,-3.1511,-3.1511,-3.1511,-3.1511,-3.1511,-3.1511,-3.1511,-3.1511,-3.1511,-3.1511,-3.1511,-3.1511,-3.1511,-3.1511,-3.1511,-3.1511,-3.1511,-3.1511,-3.1511,-3.1511,-3.1511,-3.1511,-3.1511,-3.1511,-3.1511,-3.1511,-3.1511,-3.1511,-3.1511,-3.1511,-3.1511,-3.1511,-3.1511,-3.1511,-3.1511,-3.1511,-3.1511,-3.1511,-3.1511,-3.1511,-3.1511,-3.1511,-3.1511,-3.1511,-3.1511,-3.1511,-3.1511,-3.1511,-3.1511,-3.1511,-3.1511,-3.1511,-3.1511,-3.1511,-3.1511,-3.1511,-3.1511,-3.1511,-3.1511,-3.1511,-3.1511,-3.1511,-3.1511,-3.1511,-3.1511,-3.1511,-3.1511,-3.1511,-3.1511,-3.1511,-3.1511,-3.1511,-3.1511,-3.1511,-3.1511,-3.1511,-3.1511,-3.1511,-3.1511,-3.1511,-3.1511,-3.1511,-3.1511,-3.1511,-3.1511,-3.1511,-3.1511,-3.1212,-3.0778,-3.0651,-3.0208,-2.9574,-2.9407,-2.915,-2.8819,-3.4899,-3.4899,-3.4899,-3.4899,-3.4899,-3.4899,-3.4899,-3.4899,-3.4707,-3.4176,-3.4275,-3.4209,-3.362,-3.3256,-3.306,-3.306,-3.2342,-3.1739,-3.1511,-3.1511,-3.1511,-3.1511,-3.1511,-3.1511,-3.1511,-3.1511,-3.1511,-3.1511,-3.1511,-3.1511,-3.1511,-3.1511,-3.1511,-3.1511,-3.1511,-3.1511,-3.1511,-3.1511,-3.1511,-3.1511,-3.1511,-3.1511,-3.1511,-3.1511,-3.1511,-3.1511,-3.1511,-3.1511,-3.1511,-3.1511,-3.1511,-3.1511,-3.1511,-3.1511,-3.1511,-3.1511,-3.1511,-3.1511,-3.1511,-3.1511,-3.1511,-3.1511,-3.1511,-3.1511,-3.1511,-3.1511,-3.1511,-3.1511,-3.1511,-3.1511,-3.1511,-3.1511,-3.1511,-3.1511,-3.1511,-3.1511,-3.1511,-3.1511,-3.1511,-3.1511,-3.1511,-3.1511,-3.1511,-3.1511,-3.1511,-3.1511,-3.1511,-3.1511,-3.1511,-3.1511,-3.1511,-3.1511,-3.1511,-3.1511,-3.1511,-3.1511,-3.1511,-3.1511,-3.1511,-3.1511,-3.1511,-3.1511,-3.1511,-3.1511,-3.1511,-3.1346,-3.1092,-3.1092,-3.0731,-3.0148,-3.0037,-2.9622,-2.9015,-2.8865,-2.8609,-2.8236,-3.4947,-3.4947,-3.4923,-3.4923,-3.4923,-3.4923,-3.4899,-3.4899,-3.4715,-3.4226,-3.4594,-3.4715,-3.4226,-3.4126,-3.4101,-3.4101,-3.306,-3.2176,-3.1611,-3.1524,-3.1511,-3.1511,-3.1511,-3.1511,-3.1511,-3.1511,-3.1511,-3.1511,-3.1511,-3.1511,-3.1511,-3.1511,-3.1511,-3.1511,-3.1511,-3.1511,-3.1511,-3.1511,-3.1511,-3.1511,-3.1511,-3.1511,-3.1511,-3.1511,-3.1511,-3.1511,-3.1511,-3.1511,-3.1511,-3.1511,-3.1511,-3.1511,-3.1511,-3.1511,-3.1511,-3.1511,-3.1511,-3.1511,-3.1511,-3.1511,-3.1496,-3.1436,-3.1406,-3.1436,-3.1496,-3.1511,-3.1511,-3.1511,-3.1511,-3.1511,-3.1511,-3.1451,-3.1406,-3.1406,-3.1376,-3.1331,-3.1331,-3.1331,-3.1331,-3.1331,-3.1331,-3.1331,-3.1331,-3.1376,-3.1406,-3.1406,-3.1466,-3.1511,-3.1511,-3.1511,-3.1511,-3.1511,-3.1511,-3.1511,-3.1511,-3.1511,-3.1511,-3.1511,-3.1511,-3.1511,-3.1511,-3.1511,-3.1511,-3.1511,-3.1436,-3.1062,-3.0507,-3.0447,-3.0058,-2.9517,-2.9517,-2.9086,-2.8502,-2.8371,-2.7932,-2.735,-3.5222,-3.5222,-3.5175,-3.5065,-3.5058,-3.5018,-3.4923,-3.4899,-3.4875,-3.4739,-3.4828,-3.4851,-3.4739,-3.4349,-3.4101,-3.4101,-3.306,-3.2342,-3.2203,-3.1768,-3.1511,-3.1511,-3.1511,-3.1511,-3.1511,-3.1511,-3.1511,-3.1511,-3.1511,-3.1511,-3.1511,-3.1511,-3.1511,-3.1511,-3.1511,-3.1511,-3.1511,-3.1511,-3.1511,-3.1511,-3.1511,-3.1511,-3.1511,-3.1511,-3.1511,-3.1511,-3.1511,-3.1511,-3.1511,-3.1511,-3.1511,-3.1511,-3.1511,-3.1511,-3.1511,-3.1511,-3.1511,-3.1511,-3.1511,-3.1511,-3.1376,-3.0866,-3.0731,-3.0838,-3.1376,-3.1511,-3.1511,-3.1511,-3.1511,-3.1511,-3.1511,-3.1062,-3.0731,-3.0731,-3.0313,-2.9998,-2.9998,-2.9998,-2.9998,-2.9998,-2.9998,-2.9998,-2.9998,-3.0447,-3.0731,-3.0731,-3.1197,-3.1511,-3.1511,-3.1511,-3.1511,-3.1511,-3.1511,-3.1511,-3.1511,-3.1511,-3.1511,-3.1511,-3.1511,-3.1511,-3.1511,-3.1511,-3.1511,-3.1466,-3.0928,-3.0642,-3.0462,-2.9983,-2.94,-2.8816,-2.8816,-2.8423,-2.7824,-2.7784,-2.7607,-2.735,-3.5291,-3.5291,-3.5268,-3.5198,-3.5198,-3.5175,-3.5088,-3.5058,-3.4994,-3.4994,-3.4947,-3.4899,-3.4899,-3.4643,-3.4259,-3.3723,-3.3135,-3.2559,-3.2023,-3.1668,-3.1511,-3.1511,-3.1511,-3.1511,-3.1511,-3.1511,-3.1511,-3.1511,-3.1511,-3.1511,-3.1511,-3.1511,-3.1511,-3.1511,-3.1511,-3.1511,-3.1511,-3.1511,-3.1511,-3.1511,-3.1511,-3.1511,-3.1511,-3.1511,-3.1511,-3.1511,-3.1511,-3.1511,-3.1511,-3.1511,-3.1511,-3.1511,-3.1511,-3.1511,-3.1436,-3.1122,-3.1017,-3.0943,-3.0687,-3.0597,-3.0507,-3.0163,-3.0058,-3.0163,-3.0522,-3.0597,-3.0597,-3.0597,-3.0597,-3.0597,-3.0597,-3.0313,-3.0058,-3.0058,-2.9816,-2.9606,-2.9606,-2.9606,-2.9606,-2.9606,-2.9606,-2.9606,-2.9606,-2.9906,-3.0058,-3.0058,-3.0402,-3.0731,-3.1002,-3.1017,-3.1167,-3.1496,-3.1511,-3.1511,-3.1511,-3.1511,-3.1346,-3.1017,-3.1346,-3.1511,-3.1496,-3.1167,-3.1017,-3.0972,-3.0357,-2.9879,-2.9564,-2.925,-2.8738,-2.8113,-2.8113,-2.7914,-2.76,-2.76,-2.7514,-2.7376,-3.536,-3.536,-3.5337,-3.5337,-3.5331,-3.5291,-3.5268,-3.5152,-3.5065,-3.5065,-3.497,-3.4899,-3.4899,-3.4899,-3.4513,-3.3563,-3.3407,-3.2922,-3.1866,-3.1682,-3.1611,-3.1496,-3.1511,-3.1511,-3.1511,-3.1511,-3.1511,-3.1511,-3.1511,-3.1511,-3.1511,-3.1511,-3.1511,-3.1511,-3.1511,-3.1511,-3.1511,-3.1511,-3.1511,-3.1511,-3.1511,-3.1511,-3.1511,-3.1511,-3.1511,-3.1511,-3.1511,-3.1511,-3.1511,-3.1511,-3.1421,-3.1331,-3.1331,-3.1256,-3.1062,-3.0507,-3.0342,-3.0238,-2.9756,-2.9606,-2.9577,-2.9472,-2.9442,-2.9412,-2.9292,-2.9442,-2.9606,-2.9606,-2.9606,-2.9606,-2.9606,-2.9517,-2.9442,-2.9442,-2.9337,-2.9262,-2.9262,-2.9262,-2.9262,-2.9262,-2.9262,-2.9262,-2.9262,-2.9367,-2.9442,-2.9442,-2.9547,-2.9831,-3.0313,-3.0342,-3.0612,-3.1152,-3.1182,-3.1182,-3.1182,-3.1182,-3.0883,-3.0357,-3.0898,-3.1182,-3.1152,-3.0612,-3.0342,-3.0313,-2.9684,-2.9101,-2.8592,-2.8472,-2.8109,-2.76,-2.76,-2.76,-2.76,-2.76,-2.7539,-2.7412,-3.5554,-3.5554,-3.5549,-3.5492,-3.5377,-3.5268,-3.5135,-3.5018,-3.4923,-3.4923,-3.4923,-3.4899,-3.4899,-3.4899,-3.4835,-3.4675,-3.4259,-3.3672,-3.3013,-3.2532,-3.2051,-3.1524,-3.1511,-3.1511,-3.1511,-3.1511,-3.1511,-3.1511,-3.1511,-3.1511,-3.1511,-3.1511,-3.1511,-3.1511,-3.1511,-3.1511,-3.1511,-3.1511,-3.1511,-3.1511,-3.1511,-3.1511,-3.1511,-3.1511,-3.1511,-3.1511,-3.1511,-3.1511,-3.1511,-3.1511,-3.1107,-3.0642,-3.0642,-3.0283,-2.9846,-2.9756,-2.9726,-2.9711,-2.9636,-2.9606,-2.9472,-2.8876,-2.8742,-2.8577,-2.8004,-2.8768,-2.9606,-2.9606,-2.9606,-2.9606,-2.9606,-2.9116,-2.8742,-2.8742,-2.8259,-2.7869,-2.7869,-2.7869,-2.7869,-2.7869,-2.7869,-2.7869,-2.7869,-2.8382,-2.8742,-2.8742,-2.9265,-2.9651,-2.9726,-2.9726,-2.9744,-2.9849,-2.9849,-2.9849,-2.9849,-2.9849,-2.9804,-2.9726,-2.9804,-2.9849,-2.9849,-2.9744,-2.9726,-2.9669,-2.9011,-2.8682,-2.8562,-2.7974,-2.7675,-2.76,-2.76,-2.76,-2.76,-2.76,-2.76,-2.7549,-3.56,-3.56,-3.5577,-3.5549,-3.5503,-3.5458,-3.5373,-3.5228,-3.5111,-3.5111,-3.4994,-3.4899,-3.4899,-3.4899,-3.4626,-3.4011,-3.3732,-3.3214,-3.2312,-3.2035,-3.1783,-3.1496,-3.1511,-3.1511,-3.1511,-3.1511,-3.1511,-3.1511,-3.1511,-3.1511,-3.1511,-3.1511,-3.1511,-3.1511,-3.1511,-3.1511,-3.1511,-3.1511,-3.1511,-3.1511,-3.1511,-3.1511,-3.1511,-3.1511,-3.1511,-3.1451,-3.1077,-3.0731,-3.0447,-3.0447,-3.0238,-2.9983,-2.9983,-2.9804,-2.9532,-2.9146,-2.9026,-2.8951,-2.8588,-2.8483,-2.8408,-2.8124,-2.8049,-2.7974,-2.766,-2.8064,-2.8483,-2.8483,-2.8483,-2.8483,-2.8483,-2.8244,-2.8049,-2.8049,-2.7794,-2.76,-2.76,-2.76,-2.76,-2.76,-2.76,-2.76,-2.76,-2.7869,-2.8049,-2.8049,-2.8319,-2.8663,-2.9011,-2.9026,-2.9205,-2.9592,-2.9606,-2.9606,-2.9606,-2.9606,-2.9427,-2.9026,-2.9026,-2.922,-2.9592,-2.9205,-2.9026,-2.8996,-2.8323,-2.8049,-2.8034,-2.772,-2.76,-2.76,-2.76,-2.76,-2.76,-2.76,-2.76,-2.76]},{"header":{"parameterUnit":"m.s-1","parameterCategory":1,"la1":30.6,"la2":28.766,"lo1":-90.7593,"lo2":-88.6598,"dy":0.0162,"dx":0.0183,"nx":116,"ny":114,"refTime":"2023-08-06T12:00:00:Z","depth":0,"parameterNumber":3,"parameterNumberName":"V-component_of_WINDS"},"data":[0.0,0.0,0.0,0.0,0.0,0.0,0.0,0.0,0.0,0.0,0.0,0.0,0.0,0.0,0.0,0.0,0.0,0.0,0.0,0.0,0.0,0.0,0.0,0.0,0.0,0.0,0.0,0.0,0.0,0.0,0.0,0.0,0.0,0.0,0.0,0.0,0.0,0.0,0.0,0.0,0.0,0.0,0.0,0.0,0.0,0.0,0.0,0.0,0.0,0.0,0.0,0.0,0.0,0.0,0.0,0.0,0.0,0.0,0.0,0.0,0.0,0.0,0.0,0.0,0.0,0.0,0.0,0.0,0.0,0.0,0.0,0.0,0.0,0.0,0.0,0.0,0.0,0.0,0.0,0.0,0.0,0.0,0.0,0.0,0.0,0.0,0.0,0.0,0.0,0.0,0.0,0.0,0.0,0.0,0.0,0.0,0.0,0.0,0.0,0.0,0.0,0.0,0.0,0.0,0.0,0.0,0.0,0.0,0.0,0.0,0.0,0.0,0.0,0.0,0.0,0.0,0.0,0.0,0.0,0.0,0.0,0.0,0.0,0.0,0.0,0.0,0.0,0.0,0.0,0.0,0.0,0.0,0.0,0.0,0.0,0.0,0.0,0.0,0.0,0.0,0.0,0.0,0.0,0.0,0.0,0.0,0.0,0.0,0.0,0.0,0.0,0.0,0.0,0.0,0.0,0.0,0.0,0.0,0.0,0.0,0.0,0.0,0.0,0.0,0.0,0.0,0.0,0.0,0.0,0.0,0.0,0.0,0.0,0.0,0.0,0.0,0.0,0.0,0.0,0.0,0.0,0.0,0.0,0.0,0.0,0.0,0.0,0.0,0.0,0.0,0.0,0.0,0.0,0.0,0.0,0.0,0.0,0.0,0.0,0.0,0.0,0.0,0.0,0.0,0.0,0.0,0.0,0.0,0.0,0.0,0.0,0.0,0.0,0.0,0.0,0.0,0.0,0.0,0.0,0.0,0.0,0.0,0.0,0.0,0.0,0.0,0.0,0.0,0.0,0.0,0.0,0.0,0.0,0.0,0.0,0.0,0.0,0.0,0.0,0.0,0.0,0.0,0.0,0.0,0.0,0.0,0.0,0.0,0.0,0.0,0.0,0.0,0.0,0.0,0.0,0.0,0.0,0.0,0.0,0.0,0.0,0.0,0.0,0.0,0.0,0.0,0.0,0.0,0.0,0.0,0.0,0.0,0.0,0.0,0.0,0.0,0.0,0.0,0.0,0.0,0.0,0.0,0.0,0.0,0.0,0.0,0.0,0.0,0.0,0.0,0.0,0.0,0.0,0.0,0.0,0.0,0.0,0.0,0.0,0.0,0.0,0.0,0.0,0.0,0.0,0.0,0.0,0.0,0.0,0.0,0.0,0.0,0.0,0.0,0.0,0.0,0.0,0.0,0.0,0.0,0.0,0.0,0.0,0.0,0.0,0.0,0.0,0.0,0.0,0.0,0.0,0.0,0.0,0.0,0.0,0.0,0.0,0.0,0.0,0.0,0.0,0.0,0.0,0.0,0.0,0.0,0.0,0.0,0.0,0.0,0.0,0.0,0.0,0.0,0.0,0.0,0.0,0.0,0.0,0.0,0.0,0.0,0.0,0.0,0.0,0.0,0.0,0.0,0.0,0.0,0.0,0.0,0.0,0.0,0.0,0.0,0.0,0.0,0.0,0.0,0.0,0.0,0.0,0.0,0.0,0.0,0.0,0.0,0.0,0.0,0.0,0.0,0.0,0.0,0.0,0.0,0.0,0.0,0.0,0.0,0.0,0.0,0.0,0.0,0.0,0.0,0.0,0.0,0.0,0.0,0.0,0.0,0.0,0.0,0.0,0.0,0.0,0.0,0.0,0.0,0.0,0.0,0.0,0.0,0.0,0.0,0.0,0.0,0.0,0.0,0.0,0.0,0.0,0.0,0.0,0.0,0.0,0.0,0.0,0.0,0.0,0.0,0.0,0.0,0.0,0.0,0.0,0.0,0.0,0.0,0.0,0.0,0.0,0.0,0.0,0.0,0.0,0.0,0.0,0.0,0.0,0.0,0.0,0.0,0.0,0.0,0.0,0.0,0.0,0.0,0.0,0.0,0.0,0.0,0.0,0.0,0.0,0.0,0.0,0.0,0.0,0.0,0.0,0.0,0.0,0.0,0.0,0.0,0.0,0.0,0.0,0.0,0.0,0.0,0.0,0.0,0.0,0.0,0.0,0.0,0.0,0.0,0.0,0.0,0.0,0.0,0.0,0.0,0.0,0.0,0.0,0.0,0.0,0.0,0.0,0.0,0.0,0.0,0.0,0.0,0.0,0.0,0.0,0.0,0.0,0.0,0.0,0.0,0.0,0.0,0.0,0.0,0.0,0.0,0.0,0.0,0.0,0.0,0.0,0.0,0.0,0.0,0.0,0.0,0.0,0.0,0.0,0.0,0.0,0.0,0.0,0.0,0.0,0.0,0.0,0.0,0.0,0.0,0.0,0.0,0.0,0.0,0.0,0.0,0.0,0.0,0.0,0.0,0.0,0.0,0.0,0.0,0.0,0.0,0.0,0.0,0.0,0.0,0.0,0.0,0.0,0.0,0.0,0.0,0.0,0.0,0.0,0.0,0.0,0.0,0.0,0.0,0.0,0.0,0.0,0.0,0.0,0.0,0.0,0.0,0.0,0.0,0.0,0.0,0.0,0.0,0.0,0.0,0.0,0.0,0.0,0.0,0.0,0.0,0.0,0.0,0.0,0.0,0.0,0.0,0.0,0.0,0.0,0.0,0.0,0.0,0.0,0.0,0.0,0.0,0.0,0.0,0.0,0.0,0.0,0.0,0.0,0.0,0.0,0.0,0.0,0.0,0.0,0.0,0.0,0.0,0.0,0.0,0.0,0.0,0.0,0.0,0.0,0.0,0.0,0.0,0.0,0.0,0.0,0.0,0.0,0.0,0.0,0.0,0.0,0.0,0.0,0.0,0.0,0.0,0.0,0.0,0.0,0.0,0.0,0.0,0.0,0.0,0.0,0.0,0.0,0.0,0.0,0.0,0.0,0.0,0.0,0.0,0.0,0.0,0.0,0.0,0.0,0.0,0.0,0.0,0.0,0.0,0.0,0.0,0.0,0.0,0.0,0.0,0.0,0.0,0.0,0.0,0.0,0.0,0.0,0.0,0.0,0.0,0.0,0.0,0.0,0.0,0.0,0.0,0.0,0.0,0.0,0.0,0.0,0.0,0.0,0.0,0.0,0.0,0.0,0.0,0.0,0.0,0.0,0.0,0.0,0.0,0.0,0.0,0.0,0.0,0.0,0.0,0.0,0.0,0.0,0.0,0.0,0.0,0.0,0.0,0.0,0.0,0.0,0.0,0.0,0.0,0.0,0.0,0.0,0.0,0.0,0.0,0.0,0.0,0.0,0.0,0.0,0.0,0.0,0.0,0.0,0.0,0.0,0.0,0.0,0.0,0.0,0.0,0.0,0.0,0.0,0.0,0.0,0.0,0.0,0.0,0.0,0.0,0.0,0.0,0.0,0.0,0.0,0.0,0.0,0.0,0.0,0.0,0.0,0.0,0.0,0.0,0.0,0.0,0.0,0.0,0.0,0.0,0.0,0.0,0.0,0.0,0.0,0.0,0.0,0.0,0.0,0.0,0.0,0.0,0.0,0.0,0.0,0.0,0.0,0.0,0.0,0.0,0.0,0.0,0.0,0.0,0.0,0.0,0.0,0.0,0.0,0.0,0.0,0.0,0.0,0.0,0.0,0.0,0.0,0.0,0.0,0.0,0.0,0.0,0.0,0.0,0.0,0.0,0.0,0.0,0.0,0.0,0.0,0.0,0.0,0.0,0.0,0.0,0.0,0.0,0.0,0.0,0.0,0.0,0.0,0.0,0.0,0.0,0.0,0.0,0.0,0.0,0.0,0.0,0.0,0.0,0.0,0.0,0.0,0.0,0.0,0.0,0.0,0.0,0.0,0.0,0.0,0.0,0.0,0.0,0.0,0.0,0.0,0.0,0.0,0.0,0.0,0.0,0.0,0.0,0.0,0.0,0.0,0.0,0.0,0.0,0.0,0.0,0.0,0.0,0.0,0.0,0.0,0.0,0.0,0.0,0.0,0.0,0.0,0.0,0.0,0.0,0.0,0.0,0.0,0.0,0.0,0.0,0.0,0.0,0.0,0.0,0.0,0.0,0.0,0.0,0.0,0.0,0.0,0.0,0.0,0.0,0.0,0.0,0.0,0.0,0.0,0.0,0.0,0.0,0.0,0.0,0.0,0.0,0.0,0.0,0.0,0.0,0.0,0.0,0.0,0.0,0.0,0.0,0.0,0.0,0.0,0.0,0.0,0.0,0.0,0.0,0.0,0.0,0.0,0.0,0.0,0.0,0.0,0.0,0.0,0.0,0.0,0.0,0.0,0.0,0.0,0.0,0.0,0.0,0.0,0.0,0.0,0.0,0.0,0.0,0.0,0.0,0.0,0.0,0.0,0.0,0.0,0.0,0.0,0.0,0.0,0.0,0.0,0.0,0.0,0.0,0.0,0.0,0.0,0.0,0.0,0.0,0.0,0.0,0.0,0.0,0.0,0.0,0.0,0.0,0.0,0.0,0.0,0.0,0.0,0.0,0.0,0.0,0.0,0.0,0.0,0.0,0.0,0.0,0.0,0.0,0.0,0.0,0.0,0.0,0.0,0.0,0.0,0.0,0.0,0.0,0.0,0.0,0.0,0.0,0.0,0.0,0.0,0.0,0.0,0.0,0.0,0.0,0.0,0.0,0.0,0.0,0.0,0.0,0.0,0.0,0.0,0.0,0.0,0.0,0.0,0.0,0.0,0.0,0.0,0.0,0.0,0.0,0.0,0.0,0.0,0.0,0.0,0.0,0.0,0.0,0.0,0.0,0.0,0.0,0.0,0.0,0.0,0.0,0.0,0.0,0.0,0.0,0.0,0.0,0.0,0.0,0.0,0.0,0.0,0.0,0.0,0.0,0.0,0.0,0.0,0.0,0.0,0.0,0.0,0.0,0.0,0.0,0.0,0.0,0.0,0.0,0.0,0.0,0.0,0.0,0.0,0.0,0.0,0.0,0.0,0.0,0.0,0.0,0.0,0.0,0.0,0.0,0.0,0.0,0.0,0.0,0.0,0.0,0.0,0.0,0.0,0.0,0.0,0.0,0.0,0.0,0.0,0.0,0.0,0.0,0.0,0.0,0.0,0.0,0.0,0.0,0.0,0.0,0.0,0.0,0.0,0.0,0.0,0.0,0.0,0.0,0.0,0.0,0.0,0.0,0.0,0.0,0.0,0.0,0.0,0.0,0.0,0.0,0.0,0.0,0.0,0.0,0.0,0.0,0.0,0.0,0.0,0.0,0.0,0.0,0.0,0.0,0.0,0.0,0.0,0.0,0.0,0.0,0.0,0.0,0.0,0.0,0.0,0.0,0.0,0.0,0.0,0.0,0.0,0.0,0.0,0.0,0.0,0.0,0.0,0.0,0.0,0.0,0.0,0.0,0.0,0.0,0.0,0.0,0.0,0.0,0.0,0.0,0.0,0.0,0.0,0.0,0.0,0.0,0.0,0.0,0.0,0.0,0.0,0.0,0.0,0.0,0.0,0.0,0.0,0.0,0.0,0.0,0.0,0.0,0.0,0.0,0.0,0.0,0.0,0.0,0.0,0.0,0.0,0.0,0.0,0.0,0.0,0.0,0.0,0.0,0.0,0.0,0.0,0.0,0.0,0.0,0.0,0.0,0.0,0.0,0.0,0.0,0.0,0.0,0.0,0.0,0.0,0.0,0.0,0.0,0.0,0.0,0.0,0.0,0.0,0.0,0.0,0.0,0.0,0.0,0.0,0.0,0.0,0.0,0.0,0.0,0.0,0.0,0.0,0.0,0.0,0.0,0.0,0.0,0.0,0.0,0.0,0.0,0.0,0.0,0.0,0.0,0.0,0.0,0.0,0.0,0.0,0.0,0.0,0.0,0.0,0.0,0.0,0.0,0.0,0.0,0.0,0.0,0.0,0.0,0.0,0.0,0.0,0.0,0.0,0.0,0.0,0.0,0.0,0.0,0.0,0.0,0.0,0.0,0.0,0.0,0.0,0.0,0.0,0.0,0.0,0.0,0.0,0.0,-1.7001,0.0,0.0,0.0,0.0,0.0,0.0,0.0,0.0,0.0,0.0,0.0,0.0,0.0,0.0,0.0,0.0,0.0,0.0,0.0,0.0,0.0,0.0,0.0,0.0,0.0,0.0,0.0,0.0,0.0,0.0,0.0,0.0,0.0,0.0,0.0,0.0,0.0,0.0,0.0,0.0,0.0,0.0,0.0,0.0,0.0,0.0,0.0,0.0,0.0,0.0,0.0,0.0,0.0,0.0,0.0,0.0,0.0,0.0,0.0,0.0,0.0,0.0,0.0,0.0,0.0,0.0,0.0,0.0,0.0,0.0,0.0,0.0,0.0,0.0,0.0,0.0,0.0,0.0,0.0,0.0,0.0,0.0,0.0,0.0,0.0,0.0,0.0,0.0,0.0,0.0,0.0,0.0,0.0,0.0,0.0,0.0,0.0,0.0,0.0,0.0,0.0,0.0,0.0,0.0,0.0,0.0,0.0,0.0,0.0,0.0,0.0,0.0,0.0,0.0,0.0,0.0,-1.7389,0.0,0.0,0.0,0.0,0.0,0.0,0.0,0.0,0.0,0.0,0.0,0.0,0.0,0.0,0.0,0.0,0.0,0.0,0.0,0.0,0.0,0.0,0.0,0.0,0.0,0.0,0.0,0.0,0.0,0.0,0.0,0.0,0.0,0.0,0.0,0.0,0.0,0.0,0.0,0.0,0.0,0.0,0.0,0.0,0.0,0.0,0.0,0.0,0.0,0.0,0.0,0.0,0.0,0.0,0.0,0.0,0.0,0.0,0.0,0.0,0.0,0.0,0.0,0.0,0.0,0.0,0.0,0.0,0.0,0.0,0.0,0.0,0.0,0.0,0.0,0.0,0.0,0.0,0.0,0.0,0.0,0.0,0.0,0.0,0.0,0.0,0.0,0.0,0.0,0.0,0.0,0.0,0.0,0.0,0.0,0.0,0.0,0.0,0.0,0.0,0.0,0.0,0.0,0.0,0.0,0.0,0.0,0.0,-1.6883,-1.6883,-1.6888,-1.6926,-1.6942,-1.6947,-1.7055,-1.7335,-1.798,0.0,0.0,0.0,0.0,0.0,0.0,0.0,0.0,0.0,0.0,0.0,0.0,0.0,0.0,0.0,0.0,0.0,0.0,0.0,0.0,0.0,0.0,0.0,0.0,0.0,0.0,0.0,0.0,0.0,0.0,0.0,0.0,0.0,0.0,0.0,0.0,0.0,0.0,0.0,-1.0452,-1.1493,-1.2147,-1.2521,-1.3656,0.0,0.0,0.0,0.0,0.0,0.0,0.0,0.0,0.0,0.0,0.0,0.0,0.0,0.0,0.0,0.0,0.0,0.0,0.0,0.0,0.0,0.0,0.0,0.0,0.0,0.0,0.0,0.0,0.0,0.0,0.0,0.0,0.0,0.0,0.0,0.0,0.0,0.0,0.0,0.0,0.0,0.0,0.0,-1.275,-1.2683,0.0,0.0,0.0,0.0,0.0,0.0,0.0,0.0,0.0,0.0,0.0,0.0,0.0,0.0,-1.6404,-1.6404,-1.6404,-1.6404,-1.6404,-1.6404,-1.6414,-1.6614,-1.671,-1.6785,-1.7248,0.0,-1.9008,-2.0823,0.0,0.0,0.0,0.0,0.0,0.0,0.0,0.0,0.0,0.0,0.0,0.0,0.0,0.0,0.0,0.0,0.0,0.0,0.0,0.0,0.0,0.0,0.0,0.0,0.0,0.0,0.0,0.0,0.0,0.0,0.0,0.0,0.0,0.0,0.0,0.0,-0.8822,-0.9083,-0.899,-0.9493,-1.0205,-1.1128,-1.1676,-1.3065,-1.5012,-1.5749,0.0,0.0,0.0,0.0,0.0,0.0,0.0,0.0,0.0,0.0,0.0,0.0,0.0,0.0,0.0,0.0,0.0,0.0,0.0,0.0,0.0,0.0,0.0,0.0,0.0,0.0,0.0,0.0,0.0,0.0,0.0,0.0,0.0,0.0,0.0,0.0,0.0,0.0,0.0,-1.2277,-1.2043,-1.1007,-1.2148,-1.2838,0.0,0.0,0.0,0.0,0.0,0.0,0.0,0.0,0.0,-1.5742,-1.6126,-1.6312,-1.6312,-1.6312,-1.6312,-1.6312,-1.6312,-1.6312,-1.6317,-1.642,-1.6588,-1.6776,-1.72,-1.7754,-1.8581,-2.1123,-2.2407,-2.299,0.0,0.0,0.0,0.0,0.0,-2.6174,0.0,0.0,0.0,0.0,0.0,0.0,0.0,0.0,0.0,0.0,0.0,0.0,0.0,0.0,0.0,0.0,0.0,0.0,0.0,0.0,0.0,0.0,0.0,0.0,0.0,0.0,0.0,0.0,-0.8211,-0.8153,-0.7988,-0.8088,-0.8746,-0.992,-1.0318,-1.1851,-1.4146,-1.5178,-1.5802,0.0,0.0,0.0,0.0,0.0,0.0,0.0,0.0,0.0,0.0,0.0,0.0,0.0,0.0,0.0,0.0,0.0,0.0,0.0,0.0,0.0,0.0,0.0,0.0,0.0,0.0,0.0,0.0,0.0,0.0,0.0,0.0,0.0,0.0,0.0,0.0,0.0,0.0,-1.0848,-1.0717,-0.9305,-1.0502,-1.126,0.0,0.0,0.0,0.0,0.0,0.0,-1.3066,-1.4503,-1.5381,-1.5381,-1.5878,-1.6129,-1.6129,-1.6129,-1.6129,-1.6129,-1.6129,-1.6129,-1.6134,-1.6255,-1.6467,-1.6708,-1.7207,-1.7543,-1.7992,-2.0854,-2.2129,-2.2636,-2.4941,-2.5872,-2.5876,-2.5876,-2.5874,-2.5788,0.0,0.0,0.0,0.0,0.0,0.0,0.0,0.0,0.0,0.0,0.0,0.0,0.0,0.0,0.0,0.0,0.0,0.0,0.0,0.0,0.0,0.0,0.0,0.0,0.0,0.0,0.0,-0.8002,-0.8002,-0.7995,-0.7988,-0.8283,-0.8435,-0.8592,-1.0113,-1.2208,-1.4665,-1.4716,-1.5481,-1.6657,0.0,0.0,0.0,0.0,0.0,0.0,0.0,0.0,0.0,0.0,0.0,0.0,0.0,0.0,0.0,0.0,0.0,0.0,0.0,0.0,0.0,0.0,0.0,0.0,0.0,0.0,0.0,0.0,0.0,0.0,0.0,0.0,0.0,0.0,0.0,0.0,0.0,0.0,0.0,-0.7577,-0.8915,0.0,0.0,0.0,0.0,-1.0811,-1.0329,-1.1107,-1.3513,-1.3149,-1.3693,-1.5515,-1.5634,-1.5639,-1.5639,-1.5639,-1.5639,-1.5639,-1.5639,-1.5639,-1.5645,-1.6167,-1.6398,-1.647,-1.7372,-1.7784,-1.7968,-1.9694,-2.1074,-2.2245,-2.3677,-2.4935,-2.5876,-2.5876,-2.5711,-2.5451,0.0,0.0,0.0,0.0,0.0,0.0,0.0,0.0,0.0,0.0,0.0,0.0,0.0,0.0,0.0,0.0,0.0,0.0,0.0,0.0,0.0,0.0,0.0,0.0,0.0,0.0,-0.5782,-0.5927,-0.5927,-0.5927,-0.5977,-0.6731,-0.7282,-0.7673,-0.8962,-1.0614,-1.2535,-1.3877,-1.4814,-1.5496,-1.6146,-1.6843,0.0,0.0,0.0,0.0,0.0,0.0,0.0,0.0,0.0,0.0,0.0,0.0,0.0,0.0,0.0,0.0,0.0,0.0,0.0,0.0,0.0,0.0,0.0,0.0,0.0,0.0,0.0,0.0,0.0,0.0,0.0,0.0,0.0,0.0,0.0,0.0,0.0,-0.7447,-0.7689,0.0,-0.7447,-0.7747,-0.805,-0.8299,-0.9025,-1.0229,-1.1972,-1.2877,-1.4028,-1.5537,-1.5601,-1.5601,-1.5601,-1.5601,-1.5601,-1.5601,-1.5601,-1.572,-1.5903,-1.611,-1.6447,-1.6805,-1.7136,-1.741,-1.7643,-1.8233,-1.9746,-2.1862,-2.3216,-2.4318,-2.5158,-2.5158,-2.5138,-2.5018,0.0,0.0,0.0,0.0,0.0,0.0,0.0,0.0,0.0,0.0,0.0,0.0,0.0,0.0,0.0,0.0,0.0,0.0,0.0,0.0,0.0,0.0,0.0,0.0,0.0,-0.4327,-0.4626,-0.4824,-0.4824,-0.4824,-0.4824,-0.5829,-0.6581,-0.7273,-0.8421,-0.9657,-1.1033,-1.2937,-1.4094,-1.4758,-1.5588,-1.6327,-1.6889,0.0,0.0,0.0,0.0,0.0,0.0,0.0,0.0,0.0,0.0,0.0,0.0,0.0,0.0,0.0,0.0,0.0,0.0,0.0,0.0,0.0,0.0,0.0,0.0,0.0,0.0,0.0,0.0,0.0,0.0,0.0,0.0,0.0,0.0,0.0,-0.775,-0.7447,-0.7204,-0.7023,-0.69,-0.6773,-0.6834,-0.7021,-0.8172,-0.938,-1.0649,-1.2213,-1.3605,-1.4932,-1.5359,-1.5601,-1.5601,-1.5601,-1.5601,-1.5601,-1.5601,-1.5779,-1.6087,-1.62,-1.649,-1.7026,-1.7138,-1.7309,-1.7543,-1.7941,-1.9374,-2.1467,-2.2333,-2.3529,-2.4821,-2.4821,-2.4821,-2.4821,0.0,0.0,0.0,0.0,0.0,0.0,0.0,0.0,0.0,0.0,0.0,0.0,0.0,0.0,0.0,0.0,0.0,0.0,0.0,0.0,0.0,0.0,0.0,0.0,-0.3172,-0.4175,-0.4724,-0.4724,-0.4724,-0.4724,-0.4724,-0.5577,-0.6376,-0.7223,-0.8566,-0.9612,-1.0462,-1.2024,-1.342,-1.4711,-1.5242,-1.5913,-1.6636,0.0,0.0,0.0,0.0,0.0,0.0,0.0,0.0,0.0,0.0,0.0,0.0,0.0,0.0,0.0,0.0,0.0,0.0,0.0,0.0,0.0,0.0,0.0,0.0,0.0,0.0,0.0,0.0,0.0,0.0,0.0,0.0,0.0,-0.7872,-0.7872,-0.775,-0.7447,-0.7385,-0.7266,-0.6962,-0.7204,-0.7385,-0.7385,-0.7689,-0.8416,-0.9744,-1.1008,-1.2337,-1.3665,-1.4932,-1.5601,-1.5601,-1.5601,-1.5601,-1.5601,-1.5601,-1.5779,-1.6146,-1.6366,-1.672,-1.7026,-1.7367,-1.7485,-1.7596,-1.8803,-1.9998,-2.1123,-2.1123,-2.262,-2.4821,-2.4821,-2.4821,-2.4868,0.0,0.0,0.0,0.0,0.0,0.0,0.0,0.0,0.0,0.0,0.0,0.0,0.0,0.0,0.0,0.0,0.0,0.0,0.0,0.0,0.0,0.0,0.0,0.0,-0.2019,-0.2321,-0.2471,-0.2471,-0.2471,-0.2672,-0.3073,-0.4074,-0.5077,-0.6082,-0.7232,-0.8524,-0.9908,-1.0886,-1.2296,-1.3992,-1.5609,-1.6615,-1.7192,0.0,0.0,0.0,0.0,0.0,0.0,0.0,0.0,0.0,0.0,0.0,0.0,0.0,0.0,0.0,0.0,0.0,0.0,0.0,0.0,0.0,0.0,0.0,0.0,0.0,0.0,0.0,0.0,0.0,0.0,0.0,0.0,-0.7872,-0.7872,-0.7689,-0.7508,-0.7385,-0.6954,-0.6712,-0.69,-0.653,-0.653,-0.7023,-0.7143,-0.7811,-0.938,-1.0887,-1.2337,-1.3665,-1.4932,-1.5601,-1.5601,-1.5601,-1.5601,-1.5601,-1.5844,-1.6135,-1.6425,-1.6726,-1.7073,-1.7367,-1.7485,-1.7485,-1.7596,-1.8803,-1.9998,-2.1187,-2.2112,-2.344,-2.4821,-2.4821,-2.4923,-2.5119,0.0,0.0,0.0,0.0,0.0,0.0,0.0,0.0,0.0,0.0,0.0,0.0,0.0,0.0,0.0,0.0,0.0,0.0,0.0,0.0,0.0,0.0,0.0,-0.0929,-0.1085,-0.0888,-0.074,-0.069,-0.0888,-0.1085,-0.1281,-0.2656,-0.3882,-0.4961,-0.6428,-0.789,-0.934,-1.0437,-1.1823,-1.3393,-1.523,-1.6488,-1.7372,-1.7939,-1.8265,-1.845,-1.9083,-1.9439,-1.9677,-1.9771,0.0,0.0,0.0,0.0,0.0,0.0,0.0,0.0,0.0,0.0,0.0,0.0,0.0,0.0,0.0,0.0,0.0,0.0,0.0,0.0,0.0,0.0,0.0,0.0,-0.7811,-0.7689,-0.7689,-0.7508,-0.7385,-0.7385,-0.6832,-0.6464,-0.6653,-0.6346,-0.6283,-0.6653,-0.6959,-0.7505,-0.8477,-1.0525,-1.2032,-1.2817,-1.4629,-1.5601,-1.5601,-1.5601,-1.5601,-1.5601,-1.5963,-1.6253,-1.6537,-1.6844,-1.7197,0.0,-1.7485,-1.7485,-1.7655,-1.937,-2.0451,0.0,0.0,0.0,0.0,0.0,-2.5072,-2.5221,0.0,0.0,0.0,0.0,0.0,0.0,0.0,0.0,0.0,0.0,0.0,0.0,0.0,0.0,0.0,0.0,0.0,0.0,0.0,0.0,0.0,-0.1708,-0.103,-0.0655,-0.0524,-0.0095,0.0238,0.0524,0.0095,0.0,0.0143,-0.1429,-0.2759,-0.3845,-0.5787,-0.7346,-0.866,-1.0135,-1.1585,-1.2896,-1.4229,-1.5724,-1.7138,-1.7279,-1.7885,-1.8775,-1.9138,-1.9273,-1.9399,-1.9903,0.0,0.0,0.0,0.0,0.0,0.0,0.0,0.0,0.0,0.0,0.0,0.0,0.0,0.0,0.0,0.0,0.0,0.0,0.0,0.0,0.0,0.0,0.0,0.0,-0.763,-0.7385,-0.7385,-0.7324,-0.7263,-0.7263,-0.6709,-0.6342,-0.6342,-0.6342,-0.6342,-0.6342,-0.6957,-0.7324,-0.7324,0.0,0.0,0.0,0.0,-1.5601,-1.5601,-1.5601,-1.5601,-1.5601,-1.5963,-1.6253,-1.6537,-1.6844,-1.7197,-1.7485,-1.7485,-1.7485,-1.7713,-2.0099,-2.1244,-2.1643,-2.2741,-2.384,-2.4821,-2.5119,-2.5221,0.0,0.0,0.0,0.0,0.0,0.0,0.0,0.0,0.0,0.0,0.0,0.0,0.0,0.0,0.0,0.0,0.0,0.0,0.0,0.0,0.0,-0.3558,-0.2651,-0.2541,-0.2135,-0.1287,-0.1192,-0.0763,0.0048,-0.0048,-0.0286,-0.0666,-0.1238,-0.1952,-0.285,-0.4368,-0.5784,-0.7139,-0.8784,-1.0575,-1.2338,-1.3013,-1.4427,-1.6204,-1.6976,-1.7677,-1.8295,-1.8736,-1.909,-1.9312,-1.8993,-1.8518,-1.8062,-1.7562,0.0,0.0,0.0,0.0,0.0,0.0,0.0,0.0,0.0,0.0,0.0,0.0,0.0,0.0,0.0,0.0,0.0,0.0,0.0,0.0,-0.7872,-0.763,-0.7385,-0.7385,-0.6957,-0.6587,-0.6587,-0.6221,-0.5978,-0.5978,-0.5978,-0.5978,-0.5978,-0.6591,-0.7023,-0.7023,-0.9983,0.0,-1.1671,-1.4267,-1.5601,-1.5601,-1.5601,-1.5601,-1.5601,0.0,0.0,-1.6537,-1.6844,-1.7197,-1.7485,-1.7485,-1.7485,-1.7713,-2.0099,-2.2274,-2.4128,-2.4359,-2.459,-2.4821,-2.5119,-2.5395,-2.5624,0.0,0.0,0.0,0.0,0.0,0.0,0.0,0.0,0.0,0.0,0.0,0.0,0.0,0.0,0.0,0.0,0.0,0.0,0.0,-0.5155,-0.396,-0.3462,-0.2769,-0.1941,-0.0971,-0.0694,-0.0046,0.1064,0.0694,0.0416,0.0231,-0.0601,-0.134,-0.1984,-0.3229,-0.4654,-0.625,-0.7524,-0.9162,-1.0909,-1.1664,-1.2666,-1.3951,-1.5826,-1.7109,-1.7917,-1.7994,-1.8202,-1.8331,-1.8205,-1.8108,-1.7844,-1.7343,-1.6964,-1.6552,0.0,0.0,0.0,0.0,0.0,0.0,0.0,0.0,0.0,0.0,0.0,0.0,0.0,0.0,-0.8671,0.0,0.0,-0.7872,-0.7872,-0.7508,-0.7143,-0.7143,-0.6591,-0.6221,-0.6403,-0.6099,-0.5916,-0.5916,-0.5916,-0.5916,-0.5916,-0.6346,-0.6714,-0.69,-0.9805,-1.1551,-1.1671,-1.4267,-1.5601,-1.5601,-1.5601,-1.5601,-1.5601,-1.5963,-1.6253,-1.6537,-1.6844,-1.7197,-1.7485,-1.7485,-1.7485,-1.7713,-2.0099,-2.2564,-2.4821,-2.4821,-2.4821,-2.4876,-2.5293,-2.5569,-2.5743,0.0,0.0,0.0,0.0,0.0,0.0,0.0,0.0,0.0,0.0,0.0,0.0,0.0,0.0,0.0,0.0,0.0,0.0,0.0,-0.6293,-0.4933,-0.4308,-0.3114,-0.1879,-0.0628,-0.0179,0.0717,0.2064,0.1391,0.1166,0.13,0.0045,-0.0762,-0.1164,-0.2329,-0.3803,-0.5494,-0.641,-0.7764,-0.9477,-1.0274,-1.0974,-1.1822,-1.4134,-1.5927,-1.7163,-1.7109,-1.7109,-1.7153,-1.7413,-1.7523,-1.7478,-1.7089,-1.6588,-1.5927,-1.4596,-1.3296,0.0,0.0,0.0,0.0,0.0,0.0,0.0,0.0,-0.7861,-0.7614,-0.8052,-0.8113,-0.793,-0.7255,-0.7317,-0.7503,-0.7439,-0.7141,-0.69,-0.6839,-0.6285,-0.5978,-0.6283,-0.6039,-0.5916,-0.5916,-0.5916,-0.5916,-0.5916,-0.6221,-0.6528,-0.69,-0.938,-1.1129,-1.1671,-1.4023,-1.5359,-1.5601,-1.5601,-1.5601,-1.5601,-1.5844,-1.6194,-1.6537,-1.6779,-1.7132,-1.7485,-1.7485,-1.7655,-1.8,-2.0221,-2.2394,-2.4479,-2.471,-2.4821,-2.4923,-2.5523,-2.5688,-2.5798,0.0,0.0,0.0,0.0,0.0,0.0,0.0,0.0,0.0,0.0,0.0,0.0,0.0,0.0,0.0,0.0,0.0,0.0,-0.9016,-0.8935,-0.7879,-0.5352,-0.5065,-0.3846,-0.1343,-0.1208,-0.0313,0.148,0.1211,0.1121,0.1121,0.0314,-0.009,-0.0224,-0.1836,-0.3266,-0.4512,-0.5267,-0.6776,-0.8656,-0.9003,-0.9917,-1.1144,-1.1906,-1.3489,-1.5399,-1.6082,-1.6325,-1.6285,-1.6123,-1.5474,-1.4751,-1.4682,-1.4476,-1.4007,-1.3046,-1.1901,-1.0862,-1.007,-0.934,-0.8613,-0.7557,-0.7349,-0.7187,0.0,-0.6143,-0.5957,-0.5468,-0.5347,-0.5163,-0.4488,-0.5351,-0.6029,-0.5718,-0.634,-0.6775,-0.6528,-0.6162,-0.5916,-0.5978,-0.5916,-0.5916,-0.5916,-0.5916,-0.5916,-0.5916,-0.6221,-0.6528,-0.69,-0.8535,-1.0165,-1.1671,-1.3122,-1.4451,-1.5596,-1.5601,-1.5601,-1.5601,-1.5661,-1.5952,-1.6478,-1.6537,-1.6891,-1.7485,-1.7485,-1.8117,-1.9203,-2.0558,-2.1934,-2.332,-2.4359,-2.497,-2.5229,-2.5569,-2.5688,-2.5798,0.0,0.0,0.0,0.0,0.0,0.0,0.0,0.0,0.0,0.0,0.0,0.0,0.0,0.0,0.0,0.0,0.0,0.0,-1.1992,-1.0426,-0.8943,-0.7489,-0.6118,-0.4652,-0.3127,-0.2147,-0.1029,0.0179,0.0538,0.0673,0.0673,-0.0359,-0.0673,-0.0448,-0.1747,-0.3132,-0.4514,-0.4956,-0.6372,-0.8328,-0.8448,-0.905,-0.9963,-1.0468,-1.1447,-1.2641,-1.3328,-1.3564,0.0,0.0,-1.3508,-1.2893,-1.3756,-1.3306,-1.2364,-1.2303,-1.1179,-0.9672,-0.831,-0.7743,-0.7314,-0.6035,-0.5522,-0.5293,-0.5339,-0.5042,-0.4794,-0.4855,-0.5533,-0.5841,-0.5167,-0.6151,-0.695,0.0,-0.6773,-0.6775,-0.6464,-0.6099,-0.5916,-0.5916,-0.5916,-0.5916,-0.5916,-0.5916,-0.5916,-0.5916,-0.6221,-0.6528,-0.69,-0.8413,-1.0044,-1.1671,-1.3002,-1.4326,-1.5596,-1.5601,-1.5601,-1.5601,-1.5601,-1.5893,-1.6478,-1.6478,-1.6891,-1.7485,-1.7485,-1.8169,-1.9377,-2.0616,-2.1877,-2.3095,-2.4359,-2.497,-2.5221,-2.5569,-2.5798,-2.6017,0.0,0.0,0.0,0.0,0.0,0.0,0.0,0.0,0.0,0.0,0.0,0.0,0.0,0.0,0.0,0.0,0.0,0.0,0.0,-1.2093,-1.0346,-0.9086,-0.7455,-0.5847,-0.4334,-0.3217,-0.2145,-0.1073,-0.0626,-0.0269,-0.0045,-0.1389,-0.1658,-0.1121,-0.2282,-0.3621,-0.5003,-0.5001,-0.611,-0.7804,-0.7804,-0.814,-0.8672,-0.922,-0.9789,-1.0294,-1.0963,-1.1178,0.0,0.0,-1.1274,-1.1124,-1.2232,-1.1849,-1.098,-1.1142,-0.9954,-0.8195,-0.6674,-0.6376,-0.6093,-0.4719,-0.4093,-0.3869,-0.4052,-0.3696,-0.3448,-0.3753,-0.492,-0.5598,-0.4923,-0.6213,-0.7197,-0.6768,-0.6837,-0.6778,-0.6344,-0.6039,-0.5916,-0.5916,-0.5916,-0.5916,-0.5916,-0.5916,-0.5916,-0.5916,-0.6101,-0.6467,-0.69,-0.7991,-0.9562,-1.1611,-1.2637,-1.3968,-1.5596,-1.5601,-1.5601,-1.5601,-1.5601,-1.5893,-1.6537,-1.6714,-1.7067,-1.7485,-1.7485,-1.8,-1.8919,-2.0444,-2.1643,-2.2628,-2.4184,-2.5026,-2.5395,-2.5624,-2.5852,-2.6127,0.0,0.0,0.0,0.0,0.0,0.0,0.0,0.0,0.0,0.0,0.0,0.0,0.0,0.0,0.0,0.0,0.0,0.0,0.0,-1.4312,-1.2774,-0.9445,-0.9411,-0.7859,-0.4376,-0.4681,-0.3964,-0.2054,-0.2278,-0.1966,-0.1074,-0.2773,-0.2998,-0.2104,-0.3575,-0.491,-0.6024,-0.5317,-0.5722,-0.684,-0.684,-0.7054,-0.7449,-0.8103,-0.8492,-0.8787,-0.9646,0.0,0.0,0.0,-0.8579,-0.9265,-0.9314,-0.9641,0.0,-0.9105,-0.7717,-0.6251,-0.5435,-0.5375,-0.5222,-0.3851,-0.365,-0.3507,-0.2337,-0.2099,-0.1853,-0.1235,-0.2157,-0.2895,-0.2219,-0.4247,-0.5722,-0.5109,-0.6035,-0.6655,-0.5978,-0.5916,-0.5916,-0.5916,-0.5916,-0.5916,0.0,-0.5916,-0.5916,-0.5916,-0.5916,-0.6223,-0.6839,-0.6962,-0.8413,-1.1611,-1.1732,-1.2997,-1.5601,-1.5601,-1.5601,-1.5601,-1.5601,-1.5893,-1.6537,-1.7185,-1.7485,-1.7485,-1.7485,-1.7537,-1.7713,-2.0106,-2.1123,-2.1415,-2.384,-2.5145,-2.5688,-2.5688,-2.5852,-2.6127,0.0,0.0,0.0,0.0,0.0,0.0,0.0,0.0,0.0,0.0,0.0,0.0,0.0,0.0,0.0,0.0,0.0,0.0,0.0,-1.551,-1.4038,-1.1852,-1.0695,-0.9252,-0.7372,-0.5916,-0.4681,-0.3578,-0.3042,-0.2685,-0.2504,-0.358,-0.3803,-0.3352,-0.4336,-0.5184,-0.5849,-0.6419,-0.7258,-0.8245,-0.907,-0.9183,-0.8893,-0.8703,-0.8,-0.7009,0.0,0.0,0.0,-0.6943,-0.6421,-0.62,-0.7273,-0.6798,-0.5916,-0.5926,-0.5502,-0.5004,-0.5142,-0.5243,-0.493,-0.3769,-0.3533,-0.3284,-0.2207,-0.1947,-0.1853,-0.142,-0.2898,-0.4125,-0.3694,-0.5598,-0.7013,-0.6344,-0.6591,-0.6655,-0.5978,-0.5916,-0.5916,-0.5916,-0.5916,0.0,0.0,0.0,0.0,-0.5916,-0.6099,-0.6405,-0.69,-0.7082,-0.8596,-1.1611,-1.1671,-1.2937,-1.5601,-1.5601,-1.5601,-1.5601,-1.6011,-1.6301,-1.6537,-1.7185,-1.7485,-1.7485,-1.7485,-1.7485,-1.7713,-2.0099,-2.1123,-2.1358,-2.384,-2.5026,-2.5395,-2.5624,-2.5692,-2.5739,0.0,0.0,0.0,0.0,0.0,0.0,0.0,0.0,0.0,0.0,0.0,0.0,0.0,0.0,0.0,0.0,0.0,0.0,0.0,0.0,-1.6101,-1.3955,-1.2513,-1.0907,-0.896,-0.7288,-0.5885,-0.479,-0.4518,-0.4289,-0.4107,-0.5442,-0.5791,-0.5338,-0.6319,-0.6902,-0.7258,-0.8151,-0.8625,-0.8907,-0.9656,-0.9511,-0.8746,-0.8262,-0.7176,0.0,0.0,0.0,0.0,-0.4502,-0.391,-0.3718,-0.4752,-0.4385,-0.3613,-0.4103,-0.4214,-0.4298,-0.4949,-0.5128,-0.4854,-0.3723,-0.3445,-0.3209,-0.2169,-0.1924,-0.1902,-0.1542,-0.3329,-0.4802,-0.4493,-0.6335,-0.7689,-0.7023,-0.69,-0.6655,-0.5978,-0.5916,-0.5916,-0.5916,-0.5916,-0.5916,0.0,0.0,0.0,-0.5916,-0.6099,-0.6407,-0.69,-0.7082,-0.8596,-1.1611,-1.1671,-1.2937,-1.5601,-1.5601,-1.5601,-1.5601,-1.6183,-1.6478,-1.6537,-1.7185,-1.7485,-1.7485,-1.7485,-1.7713,-1.8286,-2.0279,-2.1358,-2.1991,-2.4008,-2.497,-2.5203,-2.541,-2.5487,-2.5549,0.0,0.0,0.0,0.0,0.0,0.0,0.0,0.0,0.0,0.0,0.0,0.0,0.0,0.0,0.0,0.0,0.0,0.0,0.0,0.0,0.0,-1.5604,-1.4778,-1.2753,-0.9131,-0.875,-0.7709,-0.5822,-0.67,-0.6691,-0.5927,-0.8129,-0.8694,-0.7928,-0.9257,-0.9836,-0.9893,-1.0189,-0.9782,-0.8878,-0.8804,-0.818,-0.7279,-0.6968,0.0,0.0,0.0,0.0,0.0,-0.1511,-0.1341,-0.1967,-0.2019,-0.248,-0.3066,-0.3641,-0.3817,-0.4051,-0.4808,-0.503,-0.4827,-0.3608,-0.3433,-0.3215,-0.2156,-0.1964,-0.1876,-0.1536,-0.3386,-0.4862,-0.4488,0.0,-0.7689,-0.7023,-0.69,-0.6655,-0.5978,-0.5916,-0.5916,0.0,0.0,0.0,0.0,0.0,0.0,-0.5916,0.0,-0.6162,-0.6839,-0.69,-0.8352,-1.1551,-1.1671,-1.2937,-1.5601,-1.5601,-1.5601,-1.5601,-1.6183,-1.6478,-1.6537,-1.7185,-1.7485,-1.7485,-1.7485,-1.8175,-1.9319,-2.0565,-2.182,-2.303,-2.4278,-2.4936,-2.5151,-2.511,-2.5237,-2.5486,0.0,0.0,0.0,0.0,0.0,0.0,0.0,0.0,0.0,0.0,0.0,0.0,0.0,0.0,0.0,0.0,0.0,0.0,0.0,0.0,0.0,0.0,0.0,0.0,0.0,0.0,0.0,0.0,0.0,-0.779,-0.8093,-0.8492,-0.875,-0.8873,-0.9056,-0.9235,-0.941,-1.0212,-1.0367,-1.0202,0.0,-1.0417,-0.8889,0.0,0.0,0.0,0.0,0.0,-0.3162,-0.2055,-0.1588,-0.1566,-0.2458,-0.264,-0.2717,-0.3636,-0.3793,-0.3877,-0.4777,-0.4939,-0.47,-0.3987,-0.3572,-0.3201,-0.2553,-0.2877,-0.2963,-0.1668,-0.406,-0.6006,-0.4667,-0.6346,-0.7689,-0.7023,-0.69,0.0,-0.5978,-0.5916,0.0,-0.5916,-0.5916,-0.5916,-0.5916,-0.5916,0.0,0.0,-0.5916,-0.6101,-0.6528,-0.6775,-0.8233,-1.1249,-1.1551,-1.2937,-1.5601,-1.5601,-1.5601,-1.5601,-1.6183,-1.6478,-1.6537,-1.7185,-1.7485,-1.7485,-1.7485,-1.7655,-1.811,-2.0221,-2.1301,-2.179,-2.3638,-2.4376,-2.4487,-2.4588,-2.4482,-2.4398,0.0,0.0,0.0,0.0,0.0,0.0,0.0,0.0,0.0,0.0,0.0,0.0,0.0,0.0,0.0,0.0,0.0,0.0,0.0,0.0,0.0,0.0,0.0,0.0,0.0,0.0,0.0,0.0,0.0,0.0,0.0,-0.9892,-1.0335,-1.0295,-1.0825,-1.0869,-1.0479,0.0,0.0,0.0,0.0,0.0,0.0,0.0,0.0,0.0,0.0,0.0,-0.357,-0.3569,-0.2746,-0.182,-0.2471,-0.2435,-0.2441,-0.3409,-0.381,-0.4183,-0.5178,-0.5581,-0.5532,-0.5033,-0.4629,-0.4223,-0.371,-0.3907,-0.392,-0.3079,-0.4889,-0.6317,-0.536,-0.6696,-0.7689,0.0,0.0,0.0,-0.5978,-0.5916,-0.5916,-0.5916,-0.5916,-0.5916,-0.5916,-0.5916,-0.5916,0.0,-0.5916,-0.6039,-0.6403,-0.6714,-0.8233,-1.1129,-1.1551,-1.2937,-1.5601,-1.5601,-1.5601,-1.5601,-1.6183,-1.6478,-1.6537,-1.7185,-1.7485,-1.7485,0.0,-1.811,-1.9196,-2.0558,-2.1617,-2.2593,-2.3754,-2.4136,-2.401,-2.4193,-2.4067,-2.3965,0.0,0.0,0.0,0.0,0.0,0.0,0.0,0.0,0.0,0.0,0.0,0.0,0.0,0.0,0.0,0.0,0.0,0.0,0.0,0.0,0.0,0.0,0.0,0.0,0.0,0.0,0.0,0.0,0.0,0.0,0.0,0.0,0.0,0.0,0.0,0.0,0.0,0.0,0.0,0.0,0.0,0.0,0.0,0.0,0.0,0.0,0.0,0.0,-0.4636,-0.55,-0.4345,-0.2589,-0.2635,-0.2594,-0.2695,-0.348,-0.419,-0.4922,-0.5811,-0.6387,-0.6631,-0.6182,-0.5855,-0.5541,-0.5059,-0.4945,-0.4921,-0.4713,-0.5629,-0.637,-0.6177,-0.7052,-0.7627,-0.7023,-0.6839,-0.6591,-0.5978,-0.5916,-0.5916,-0.5916,-0.5916,-0.5916,-0.5916,-0.5916,-0.5916,-0.5916,-0.5916,-0.6039,-0.6344,-0.6714,-0.8233,-1.1189,-1.1912,-1.3301,-1.5596,-1.5601,-1.5601,-1.5601,-1.6188,-1.6478,-1.6537,-1.7126,-1.7485,-1.7485,0.0,0.0,-2.0608,-2.0901,-2.2067,-2.3712,-2.394,-2.3896,-2.3632,-2.3754,-2.381,-2.3859,0.0,0.0,0.0,0.0,0.0,0.0,0.0,0.0,0.0,0.0,-3.3783,-3.3208,0.0,0.0,0.0,0.0,0.0,0.0,0.0,0.0,0.0,0.0,0.0,0.0,0.0,0.0,0.0,0.0,0.0,0.0,0.0,0.0,0.0,0.0,0.0,0.0,0.0,0.0,0.0,0.0,0.0,0.0,0.0,0.0,0.0,0.0,0.0,-0.726,-0.6948,-0.6856,-0.5353,-0.3725,-0.4635,-0.5185,-0.5496,-0.5479,-0.5899,-0.6356,-0.6339,-0.6387,-0.6437,-0.6334,-0.5949,-0.5537,-0.5276,-0.5817,-0.5911,-0.4399,-0.606,-0.7425,-0.6027,-0.67,-0.7385,-0.6962,-0.6653,-0.6344,-0.5978,-0.5916,-0.5916,-0.5916,-0.5916,-0.5916,-0.5916,-0.5916,0.0,0.0,0.0,-0.5916,-0.5978,-0.6594,-0.8355,-1.1491,-1.3784,-1.5116,-1.5601,-1.5601,-1.5601,-1.5601,-1.5963,-1.6312,-1.6537,-1.6903,-1.725,-1.7485,0.0,0.0,-1.7944,-1.9914,-2.0789,-2.107,-2.2673,-2.3271,-2.322,-2.319,-2.3302,-2.3545,0.0,0.0,0.0,0.0,0.0,0.0,0.0,-3.5709,-3.5386,-3.4522,-3.4175,-3.3796,-3.3221,-3.2083,0.0,0.0,0.0,0.0,0.0,0.0,0.0,0.0,0.0,0.0,0.0,0.0,-1.4979,-1.4366,0.0,0.0,0.0,0.0,0.0,0.0,0.0,0.0,0.0,0.0,0.0,0.0,0.0,0.0,0.0,0.0,0.0,0.0,0.0,-0.7332,-0.6942,-0.6805,-0.6144,-0.5477,-0.6107,-0.6345,-0.6434,-0.6395,-0.6779,-0.7179,-0.7083,-0.7232,-0.7434,-0.7434,-0.7135,-0.6803,-0.6561,-0.7327,-0.7639,-0.6035,-0.7358,-0.8363,-0.7012,-0.709,-0.7263,-0.6962,-0.6589,-0.628,-0.5916,-0.5916,-0.5916,-0.5916,-0.5916,-0.5916,-0.5916,-0.5916,-0.5916,0.0,0.0,-0.5916,-0.5916,-0.78,-1.0098,-1.2637,-1.457,-1.5601,-1.5601,-1.5601,-1.5601,-1.5601,-1.6076,-1.6366,-1.6537,-1.7015,-1.7295,-1.728,-1.728,0.0,-1.7985,-1.9709,-2.0565,-2.1009,-2.2493,-2.2989,-2.2843,-2.2965,-2.3147,-2.3447,0.0,0.0,0.0,0.0,0.0,0.0,0.0,-3.6096,-3.5696,-3.5019,-3.4634,-3.431,-3.4082,-3.2948,-3.1876,0.0,0.0,0.0,0.0,0.0,0.0,0.0,0.0,0.0,0.0,0.0,0.0,-1.576,-1.4389,0.0,0.0,0.0,0.0,0.0,-1.7055,0.0,0.0,0.0,0.0,0.0,0.0,0.0,0.0,0.0,0.0,0.0,0.0,-0.8141,-0.7672,-0.7604,-0.7785,-0.8017,-0.7834,-0.7449,-0.7024,-0.6992,-0.7519,-0.8115,-0.8035,-0.852,-0.9019,-0.9019,-0.8825,-0.8577,-0.8283,-0.8976,-0.941,-0.8293,-0.894,-0.9408,-0.8328,-0.7914,-0.763,-0.7023,-0.6589,-0.628,-0.5916,-0.5916,-0.5916,-0.5916,-0.5916,0.0,-0.5916,-0.5916,0.0,0.0,0.0,0.0,-0.6526,-0.9306,-1.1723,-1.3665,-1.4932,-1.5601,-1.5601,-1.5601,-1.5601,-1.5601,-1.607,-1.6332,-1.6457,-1.6985,-1.714,-1.7008,-1.7008,0.0,0.0,-1.9493,-2.0445,-2.1157,-2.2465,-2.2809,-2.2644,-2.2896,-2.3147,-2.3447,0.0,0.0,0.0,0.0,0.0,0.0,0.0,-3.7309,-3.6763,-3.6685,-3.5332,-3.4703,-3.544,-3.4258,-3.2959,0.0,0.0,0.0,0.0,0.0,0.0,0.0,0.0,0.0,0.0,0.0,0.0,-1.7841,-1.7639,0.0,0.0,0.0,0.0,0.0,0.0,-1.7986,0.0,0.0,0.0,0.0,0.0,0.0,0.0,0.0,0.0,0.0,0.0,-1.1495,-1.1793,-1.1415,-1.1628,-1.1854,-1.0699,-0.9323,-0.799,-0.7625,-0.8674,-0.9865,-0.9504,-1.0141,-1.0925,-1.0925,-1.0925,-1.0783,-1.0243,-1.0437,-1.0654,-1.031,-1.0663,-1.0682,-0.9623,-0.9289,-0.8656,-0.7143,0.0,-0.628,-0.5916,-0.5916,-0.5916,-0.5916,0.0,0.0,-0.5916,-0.5916,0.0,0.0,0.0,0.0,-0.8459,-1.0219,-1.1912,-1.3665,-1.4932,-1.5601,-1.5601,-1.5601,-1.5601,-1.5601,-1.5655,-1.5836,-1.6143,-1.62,-1.6407,-1.6736,0.0,0.0,0.0,-1.8784,-1.9557,-1.9635,-2.1817,-2.2628,-2.2644,-2.2896,-2.3147,-2.3447,0.0,0.0,0.0,0.0,0.0,0.0,-3.8897,-3.814,-3.7309,-3.632,-3.5588,-3.5114,-3.495,-3.4408,-3.3757,0.0,0.0,0.0,0.0,0.0,0.0,0.0,0.0,0.0,0.0,0.0,-1.9438,-1.8942,-1.8404,0.0,0.0,0.0,0.0,0.0,0.0,-1.9263,-1.9857,0.0,0.0,0.0,0.0,0.0,0.0,0.0,0.0,0.0,0.0,0.0,-1.2103,-1.1981,-1.2144,-1.2279,-1.1773,-1.1069,-1.0289,-0.9388,-1.001,-1.0984,-1.0641,-1.0877,-1.1219,-1.1219,-1.1072,-1.0877,-1.0489,-1.1189,-1.1675,-1.0795,-1.1612,-1.2125,-1.1061,-1.0364,-0.9498,-0.8224,0.0,0.0,-0.5978,-0.5916,-0.5916,-0.5916,-0.5916,0.0,0.0,0.0,0.0,0.0,0.0,0.0,-0.9849,-1.0635,-1.2144,-1.4748,-1.5359,-1.5601,-1.5601,-1.5601,-1.5601,-1.5596,-1.5627,-1.5798,-1.6103,-1.6177,-1.6313,-1.6465,0.0,0.0,0.0,-1.8471,-1.9293,-1.9435,-2.1717,-2.2594,-2.2594,-2.2695,-2.3046,-2.3361,0.0,0.0,0.0,0.0,0.0,-4.0643,-3.9648,-3.8891,-3.8073,-3.695,-3.6175,-3.5548,-3.5182,-3.4716,-3.4241,-3.3862,0.0,0.0,0.0,0.0,0.0,0.0,0.0,0.0,0.0,0.0,-2.0031,-1.972,-1.9088,-1.9096,0.0,0.0,-1.95,-2.0781,0.0,0.0,0.0,0.0,0.0,0.0,0.0,0.0,0.0,0.0,0.0,0.0,0.0,0.0,0.0,0.0,0.0,-1.3259,-1.2888,-1.289,-1.2729,-1.1098,-1.132,-1.2025,-1.181,-1.2053,-1.235,-1.235,-1.2152,-1.192,-1.1689,-1.2471,-1.2929,-1.2105,-1.2951,-1.3541,-1.2483,-1.1611,-1.0525,0.0,0.0,-0.7133,-0.6039,-0.5916,-0.5916,-0.5916,0.0,-0.5916,0.0,-0.5916,0.0,0.0,0.0,0.0,0.0,-1.1238,-1.2564,-1.5537,-1.5601,-1.5601,-1.5601,-1.5531,-1.5499,-1.5494,-1.5478,-1.5612,-1.5881,-1.5985,-1.6097,-1.6181,0.0,0.0,0.0,-1.829,-1.9176,-1.9435,-2.1717,-2.2594,-2.2603,-2.2695,-2.2926,-2.3183,0.0,0.0,0.0,0.0,0.0,0.0,-4.0591,-3.9665,-3.9151,-3.9354,-3.7218,-3.6002,-3.6802,-3.5413,-3.4397,-3.4384,0.0,0.0,0.0,0.0,0.0,0.0,0.0,0.0,0.0,0.0,-2.1212,-2.0292,-2.0292,-2.0292,-2.0292,-2.0292,-2.0292,-2.0309,0.0,0.0,0.0,0.0,0.0,0.0,0.0,0.0,0.0,0.0,0.0,0.0,0.0,0.0,0.0,0.0,0.0,0.0,0.0,-1.4767,0.0,0.0,-1.2486,-1.3226,-1.3096,-1.4061,-1.505,-1.505,-1.4841,-1.4651,-1.4549,-1.4582,-1.463,-1.4834,-1.5017,-1.4849,-1.387,-1.3122,-1.1848,-0.9246,0.0,0.0,-0.6101,-0.5916,-0.5916,0.0,0.0,-0.5916,-0.5916,0.0,0.0,0.0,0.0,0.0,0.0,-1.2213,-1.3241,-1.5537,-1.5601,-1.5601,-1.5601,-1.5311,-1.5194,-1.5194,-1.5004,-1.5098,-1.5418,-1.5412,-1.5602,0.0,0.0,0.0,0.0,-1.829,-1.9176,-1.9435,-2.1717,-2.2594,-2.2644,-2.2896,-2.2851,-2.2762,0.0,0.0,0.0,0.0,0.0,0.0,0.0,-4.0762,-3.9794,-3.9272,-3.7628,-3.6425,-3.6122,-3.506,-3.4356,-3.4202,0.0,0.0,0.0,0.0,0.0,0.0,0.0,0.0,0.0,0.0,-2.0731,-2.0694,-2.0694,-2.0628,-2.0495,-2.0495,-2.0305,-1.998,-2.0102,-2.0151,0.0,0.0,0.0,0.0,0.0,0.0,0.0,0.0,0.0,0.0,0.0,0.0,0.0,0.0,0.0,0.0,0.0,0.0,0.0,-1.5706,-1.4884,-1.4132,-1.3929,-1.4174,-1.448,-1.448,-1.4407,-1.4353,-1.4333,-1.4581,-1.4814,-1.491,-1.5208,-1.5392,-1.5041,-1.4097,-1.2891,-1.1366,0.0,0.0,0.0,0.0,0.0,-0.7864,-0.7864,-0.762,0.0,0.0,0.0,0.0,0.0,0.0,0.0,-1.2637,-1.3725,-1.5537,-1.5445,-1.5301,-1.5301,-1.5122,-1.4999,-1.4999,-1.4756,-1.4878,-1.5401,-1.5235,0.0,0.0,0.0,0.0,0.0,-1.829,-1.9176,-1.9435,-2.1717,-2.2594,-2.2568,-2.2419,-2.2386,-2.2456,0.0,0.0,0.0,0.0,0.0,0.0,0.0,-4.1707,-4.0889,-4.0062,-3.8384,-3.7102,-3.66,-3.5207,-3.4243,-3.4118,0.0,0.0,0.0,0.0,0.0,0.0,0.0,0.0,-2.2931,-2.2026,-2.1342,-2.0796,-2.0796,-2.0629,-2.0313,-2.0313,-2.0119,-1.9794,-1.9913,-1.9976,0.0,0.0,0.0,0.0,0.0,0.0,-1.9232,0.0,0.0,0.0,0.0,0.0,0.0,0.0,0.0,0.0,0.0,0.0,0.0,0.0,-1.6346,-1.5398,-1.5323,-1.543,-1.5378,-1.508,-1.496,-1.4913,-1.4687,-1.4805,-1.5047,-1.5133,-1.5392,-1.5537,-1.5294,-1.4401,-1.332,-1.2037,0.0,0.0,0.0,0.0,0.0,-0.8775,0.0,0.0,0.0,0.0,0.0,0.0,0.0,0.0,0.0,-1.3411,-1.4148,-1.5408,-1.5269,-1.5145,-1.5112,-1.4875,-1.4751,-1.4751,-1.4624,-1.4778,-1.5264,-1.5217,0.0,0.0,0.0,0.0,0.0,-1.829,-1.9176,-1.942,-2.1518,-2.2388,-2.2345,-2.1919,-2.1833,-2.1883,0.0,0.0,0.0,0.0,0.0,0.0,0.0,0.0,-4.2186,-4.1572,-3.9425,-3.796,-3.796,-3.568,-3.414,-3.4098,0.0,0.0,0.0,0.0,0.0,0.0,0.0,0.0,-2.3765,-2.3626,-2.2593,-2.0685,-2.0637,-2.0313,-1.9809,-1.9809,-1.9809,-1.9775,-2.0082,-2.0216,0.0,0.0,0.0,0.0,-2.0822,-2.0814,0.0,0.0,0.0,0.0,0.0,0.0,0.0,0.0,0.0,0.0,0.0,0.0,0.0,0.0,0.0,0.0,0.0,-1.7417,-1.7325,-1.6562,-1.6331,-1.6148,-1.553,-1.5388,0.0,-1.5553,-1.5601,-1.5418,-1.4689,-1.4097,-1.32,-1.1679,0.0,0.0,0.0,-0.9019,0.0,0.0,-0.8961,0.0,0.0,0.0,0.0,0.0,0.0,0.0,0.0,-1.4402,-1.4571,-1.514,-1.514,-1.5033,-1.4859,-1.4627,-1.4509,-1.4509,-1.4554,-1.4767,-1.5041,-1.5374,0.0,0.0,0.0,0.0,0.0,-1.8342,-1.9213,-1.9472,-2.1312,-2.1978,-2.191,-2.1516,-2.1298,-2.1183,0.0,0.0,0.0,0.0,0.0,0.0,0.0,0.0,0.0,0.0,-4.0076,-3.8511,-3.8294,-3.6171,-3.4551,0.0,0.0,0.0,0.0,0.0,0.0,0.0,0.0,0.0,-2.4351,-2.2952,-2.2053,-2.1686,-2.0802,-2.0242,-2.0053,-2.0053,-1.9806,-1.9412,-1.9486,-1.9516,0.0,0.0,0.0,0.0,-2.0138,-2.0042,0.0,0.0,0.0,0.0,-1.9004,-1.8907,0.0,0.0,0.0,0.0,0.0,0.0,0.0,0.0,-1.8743,-1.8691,-1.8795,0.0,-1.6947,-1.7003,-1.7155,-1.7092,0.0,-1.6437,-1.6399,-1.5763,-1.5601,-1.5418,-1.4689,-1.4097,-1.3384,-1.2535,0.0,-1.1349,-1.1103,0.0,0.0,-1.0058,-1.0611,0.0,0.0,0.0,0.0,0.0,0.0,0.0,0.0,-1.4635,-1.4715,-1.4652,-1.4646,-1.462,-1.4616,-1.439,-1.4375,-1.4581,-1.458,-1.488,-1.5369,-1.5482,0.0,0.0,0.0,0.0,-1.7318,-1.8655,-1.9552,-2.0186,-2.147,-2.1807,-2.1508,-2.1139,-2.0998,-2.0971,0.0,0.0,0.0,0.0,0.0,0.0,0.0,0.0,0.0,0.0,0.0,0.0,0.0,0.0,0.0,0.0,0.0,0.0,0.0,0.0,0.0,0.0,0.0,-2.553,-2.4136,-2.3148,-2.2183,-2.1119,-2.0514,-2.0056,-1.9732,-1.9732,-1.9576,-1.9279,-1.9279,-1.9279,-1.9279,-1.9279,-1.9279,-1.9331,-1.9628,0.0,0.0,0.0,0.0,0.0,-1.9279,-1.9279,0.0,-1.9279,-1.9279,-1.9279,0.0,0.0,0.0,0.0,-1.9434,-1.9551,-1.9551,-1.8851,-1.8089,-1.7868,-1.8068,-1.808,-1.6866,-1.6809,-1.6703,-1.5774,-1.5601,-1.5418,-1.4689,-1.4336,-1.3799,-1.284,-1.2427,0.0,0.0,0.0,-1.1591,-1.1039,0.0,0.0,0.0,0.0,0.0,0.0,0.0,0.0,0.0,-1.4684,-1.4665,-1.448,-1.4433,-1.4379,-1.4379,-1.4256,-1.4245,-1.4396,-1.4665,-1.4934,-1.5261,-1.5583,0.0,0.0,0.0,0.0,-1.7674,-1.861,-1.9524,-2.0395,-2.1166,-2.1353,-2.1122,-2.0746,-2.0609,-2.0629,0.0,0.0,0.0,0.0,0.0,0.0,0.0,0.0,0.0,0.0,0.0,0.0,0.0,0.0,0.0,0.0,0.0,0.0,0.0,0.0,0.0,0.0,-2.6924,-2.5897,-2.389,-2.3642,-2.2484,-2.0233,-2.0078,-1.9732,-1.9279,-1.9279,-1.9279,-1.9279,-1.9279,-1.9279,-1.9279,-1.9279,-1.9279,-1.9279,-1.9279,0.0,0.0,0.0,0.0,0.0,0.0,0.0,0.0,-1.9382,-1.9404,-1.936,-1.9411,0.0,0.0,0.0,0.0,0.0,-1.9835,-1.9925,-1.974,-1.9017,-1.9195,-1.9081,-1.7467,-1.7246,-1.7114,-1.6065,-1.5833,-1.5591,-1.4748,-1.4629,-1.4152,0.0,0.0,0.0,-1.2014,-1.1953,-1.1897,-1.1837,0.0,0.0,0.0,0.0,0.0,0.0,0.0,0.0,0.0,0.0,0.0,-1.4427,-1.4299,-1.4196,-1.4196,-1.4196,-1.4245,-1.4353,-1.4773,-1.5035,-1.5143,-1.5678,-1.5891,0.0,0.0,0.0,-1.7848,-1.8557,-1.9453,-2.0409,-2.0791,-2.084,-2.0746,-2.0412,-2.0292,-2.0292,0.0,0.0,0.0,0.0,0.0,0.0,0.0,0.0,0.0,0.0,0.0,0.0,0.0,0.0,0.0,0.0,0.0,0.0,0.0,0.0,0.0,-2.7663,-2.6947,-2.5897,-2.4393,-2.3493,-2.2291,-2.0783,-1.9879,-1.9376,-1.9279,-1.9279,-1.9279,-1.9279,-1.9279,-1.9279,-1.9279,-1.9279,-1.9279,-1.9279,-1.9279,0.0,0.0,0.0,0.0,0.0,0.0,0.0,0.0,-1.9647,-1.9742,-1.9786,-2.0003,0.0,0.0,0.0,0.0,0.0,-2.0164,-2.0362,-2.0518,-2.04,-2.0424,-2.028,-1.9506,-1.9312,-1.8874,-1.7114,-1.6762,-1.6349,-1.4862,-1.4629,-1.4152,0.0,0.0,-1.2659,0.0,0.0,-1.2367,0.0,0.0,0.0,0.0,0.0,0.0,0.0,0.0,0.0,0.0,0.0,0.0,-1.4245,-1.4213,-1.4196,-1.4196,-1.4196,-1.4401,-1.488,-1.4982,-1.525,-1.5785,-1.5838,-1.5891,0.0,0.0,-1.7497,-1.8593,-1.9319,-2.0103,-2.0793,-2.0879,-2.0677,-2.0377,-2.0317,-2.0292,-2.0337,0.0,0.0,0.0,0.0,0.0,0.0,0.0,0.0,0.0,0.0,0.0,0.0,0.0,0.0,0.0,0.0,0.0,0.0,0.0,0.0,-2.7551,-2.6657,-2.6069,-2.5254,-2.4017,-2.2885,-2.1703,-2.0514,-2.0058,-1.9798,-1.9798,-1.9798,-1.9798,-1.9798,-1.9798,-1.9798,-1.9798,-1.9798,-1.9798,-1.9798,0.0,0.0,0.0,0.0,0.0,0.0,0.0,0.0,0.0,0.0,-2.0018,-2.004,-2.0132,0.0,0.0,0.0,0.0,0.0,-2.0446,-2.0679,-2.0984,-2.0984,-2.0984,-2.0736,-1.9954,-1.9815,-1.9403,-1.8046,-1.7343,-1.6762,0.0,0.0,-1.4813,-1.3854,0.0,-1.3264,-1.3264,0.0,0.0,0.0,0.0,0.0,0.0,0.0,0.0,0.0,0.0,0.0,0.0,0.0,0.0,0.0,-1.4196,-1.4196,-1.4196,-1.4347,-1.4557,-1.4767,-1.5095,-1.5422,-1.5684,-1.5694,-1.568,-1.5715,0.0,-1.7443,-1.8559,-1.921,-2.005,-2.0857,-2.0643,-2.0454,-2.0292,-2.0292,-2.0292,-2.0337,0.0,0.0,0.0,0.0,0.0,0.0,0.0,0.0,0.0,0.0,0.0,0.0,0.0,0.0,0.0,0.0,0.0,0.0,0.0,0.0,-2.7378,-2.5992,-2.5354,-2.4474,-2.319,-2.2293,-2.1287,-2.0183,-2.0183,-2.0183,-2.0183,-2.0183,-2.0183,-2.0183,-2.0183,-2.0183,-2.0183,-2.0183,-2.0183,-2.0183,0.0,0.0,0.0,0.0,0.0,0.0,0.0,0.0,0.0,0.0,0.0,0.0,0.0,0.0,0.0,-2.0409,-2.064,-2.0837,-2.0837,-2.102,-2.1211,-2.1211,-2.1211,-2.1039,-2.0277,-2.0104,-1.9866,-1.8919,-1.8163,-1.7525,0.0,-1.6118,0.0,-1.4873,-1.4336,-1.3923,0.0,0.0,0.0,0.0,0.0,0.0,0.0,0.0,0.0,0.0,0.0,0.0,0.0,0.0,0.0,0.0,-1.4196,-1.4245,-1.4293,-1.4502,-1.4657,-1.4713,-1.5198,-1.5441,-1.5488,-1.5425,-1.5409,-1.5442,-1.6174,-1.7125,-1.8221,-1.8853,-1.9764,-2.0711,-2.0412,-2.0292,-2.0292,-2.0292,-2.0292,-2.0292,0.0,0.0,0.0,0.0,0.0,0.0,0.0,0.0,0.0,0.0,0.0,0.0,0.0,0.0,0.0,0.0,0.0,0.0,0.0,0.0,-2.8077,-2.684,-2.5465,-2.3888,-2.1987,-2.1818,-2.1287,-2.0183,-2.0183,-2.0183,-2.0183,-2.0183,-2.0183,-2.0183,-2.0183,-2.0183,-2.0183,-2.0183,-2.0183,-2.0183,-2.0183,0.0,0.0,0.0,0.0,0.0,0.0,0.0,0.0,0.0,0.0,0.0,0.0,0.0,-2.1137,-2.1137,-2.1159,-2.1174,-2.1174,-2.1196,-2.1211,-2.1211,-2.1211,-2.1153,-2.1096,-2.1096,-2.0802,-1.9866,-1.9642,-1.9049,-1.7349,-1.5693,-1.4873,-1.5418,-1.4992,0.0,0.0,0.0,0.0,0.0,0.0,0.0,0.0,0.0,0.0,0.0,0.0,0.0,0.0,0.0,0.0,0.0,0.0,-1.4293,-1.4552,-1.4596,-1.4707,-1.4982,-1.5059,-1.5262,-1.5465,-1.5258,-1.5137,-1.517,-1.5933,-1.6808,-1.7779,-1.8543,-1.9442,-2.0335,-2.03,-2.0292,-2.0292,-2.0292,-2.0292,-2.0292,0.0,0.0,0.0,0.0,0.0,0.0,0.0,0.0,0.0,0.0,0.0,0.0,0.0,0.0,0.0,0.0,0.0,0.0,0.0,-2.894,-2.7726,-2.5599,-2.4994,-2.3667,-2.144,-2.144,-2.1223,-2.0837,-2.0837,-2.0837,-2.0837,-2.0837,-2.0837,-2.0837,-2.0837,-2.0837,-2.0837,-2.0837,-2.0837,-2.0837,-2.0837,-2.0837,0.0,0.0,0.0,0.0,0.0,0.0,0.0,0.0,-2.1523,-2.2143,0.0,0.0,-2.2312,-2.2312,-2.1767,-2.1211,-2.1211,-2.1211,-2.1211,-2.1211,-2.1211,-2.1211,-2.1211,-2.1211,-2.1096,-2.0744,-2.022,-1.9223,-1.7349,0.0,-1.5994,-1.5655,0.0,0.0,0.0,0.0,0.0,0.0,0.0,0.0,0.0,0.0,0.0,0.0,0.0,0.0,0.0,0.0,0.0,0.0,0.0,-1.423,-1.4325,-1.4556,-1.4734,-1.4833,-1.4991,-1.5149,-1.5246,-1.4986,-1.4865,-1.4947,-1.6292,-1.7101,-1.7559,-1.9082,-1.9965,-2.0292,-2.0292,-2.0292,-2.0266,-2.0035,-1.9905,-1.9915,0.0,0.0,0.0,0.0,0.0,0.0,0.0,0.0,0.0,0.0,0.0,0.0,0.0,0.0,0.0,0.0,0.0,0.0,-2.9036,-2.8388,-2.7006,-2.4774,-2.4339,-2.3247,-2.1268,-2.1211,-2.1211,-2.1211,-2.1211,-2.1211,-2.1211,-2.1211,-2.1211,-2.1211,-2.1211,-2.1211,-2.1211,-2.1211,-2.1211,-2.1211,-2.1211,-2.1211,0.0,0.0,0.0,0.0,0.0,0.0,0.0,0.0,-2.1767,-2.2482,0.0,0.0,0.0,0.0,-2.2425,-2.171,-2.1318,-2.1211,-2.1211,-2.1211,-2.1211,-2.1211,-2.1211,-2.1211,-2.1211,-2.1211,-2.0457,-1.9403,-1.811,-1.7636,0.0,0.0,0.0,0.0,0.0,0.0,0.0,0.0,0.0,0.0,0.0,0.0,0.0,0.0,0.0,0.0,0.0,0.0,0.0,0.0,0.0,-1.4186,-1.4337,-1.4497,-1.4628,-1.4678,-1.479,-1.4896,-1.4974,-1.4708,-1.4582,-1.4667,-1.6171,-1.7016,-1.7436,-1.9117,-2.0011,-2.0292,-2.0292,-2.0223,-2.0086,-1.9794,-1.9623,-1.9521,0.0,0.0,0.0,0.0,0.0,0.0,0.0,0.0,0.0,0.0,0.0,0.0,0.0,0.0,0.0,0.0,0.0,0.0,-2.8684,-2.7295,-2.5963,-2.4727,-2.3631,-2.2425,-2.1211,-2.1211,-2.1211,-2.1211,-2.1211,-2.1211,-2.1211,-2.1211,-2.1211,-2.1211,-2.1211,-2.1211,-2.1211,-2.1211,-2.1211,-2.1211,-2.1211,-2.1211,-2.1211,0.0,0.0,0.0,0.0,0.0,0.0,0.0,-2.1211,-2.1432,0.0,0.0,0.0,0.0,-2.3038,-2.2757,-2.1539,-2.1211,-2.1211,-2.1211,-2.1211,-2.1211,-2.1211,-2.1211,-2.1211,-2.1211,-2.045,-1.9815,-1.9815,-1.9042,0.0,0.0,0.0,0.0,0.0,0.0,0.0,0.0,0.0,0.0,0.0,0.0,0.0,0.0,0.0,0.0,0.0,0.0,0.0,0.0,0.0,0.0,-1.4689,-1.4436,-1.4412,-1.4708,-1.4431,-1.4443,-1.4702,-1.4425,-1.4298,-1.4346,-1.5371,-1.6358,-1.739,-1.8419,-1.9401,-2.0292,-2.0292,-2.0061,-1.97,-1.9691,-1.9495,-1.9213,0.0,0.0,0.0,0.0,0.0,0.0,0.0,0.0,0.0,0.0,0.0,0.0,0.0,0.0,0.0,0.0,0.0,0.0,-2.8684,-2.7295,-2.5963,-2.4727,-2.3631,-2.2425,-2.1211,-2.1211,-2.1211,-2.1211,-2.1211,-2.1211,-2.1211,-2.1211,-2.1211,-2.1211,-2.1211,-2.1211,-2.1211,-2.1211,-2.1211,-2.1211,-2.1211,-2.1211,-2.1211,0.0,0.0,0.0,0.0,0.0,0.0,0.0,0.0,0.0,0.0,0.0,0.0,-2.547,-2.4855,-2.3958,-2.2757,-2.2482,-2.2263,-2.1432,-2.1211,-2.1211,-2.1211,-2.1211,-2.1211,-2.1211,-2.0974,-2.0572,-1.9931,-1.9577,0.0,0.0,0.0,0.0,0.0,0.0,0.0,0.0,0.0,0.0,0.0,0.0,0.0,0.0,0.0,0.0,0.0,0.0,0.0,0.0,0.0,0.0,-1.4424,-1.4356,-1.4322,-1.4419,-1.4334,-1.434,-1.4419,-1.4334,-1.4298,-1.4346,-1.5371,-1.6358,-1.7436,-1.9163,-2.0011,-2.0266,-2.0009,-1.9794,-1.9631,-1.9127,-1.8853,-1.8725,0.0,0.0,0.0,0.0,0.0,0.0,0.0,0.0,0.0,0.0,-3.6323,-3.5835,0.0,0.0,0.0,0.0,0.0,0.0,0.0,-2.6789,-2.5452,-2.4727,-2.3135,-2.193,-2.1211,-2.1211,-2.1211,-2.1211,-2.1211,-2.1211,-2.1211,-2.1211,-2.1211,-2.1211,-2.1211,-2.1211,-2.1211,-2.1211,-2.1211,-2.1211,-2.1211,-2.1211,-2.1211,0.0,0.0,0.0,0.0,0.0,0.0,0.0,0.0,0.0,0.0,0.0,0.0,-2.5908,-2.5287,-2.4339,-2.27,-2.2263,-2.2093,-2.1375,-2.1211,-2.1211,-2.1211,-2.1211,-2.1211,-2.1211,-2.1211,-2.1031,-2.045,-2.0335,0.0,0.0,0.0,0.0,0.0,0.0,0.0,0.0,0.0,0.0,0.0,0.0,0.0,0.0,0.0,0.0,0.0,0.0,0.0,0.0,0.0,0.0,-1.4301,-1.428,-1.4298,-1.4298,-1.4298,-1.4298,-1.4298,-1.4298,-1.4298,-1.4394,-1.5798,-1.7196,-1.8588,-1.9624,-2.0069,-2.0035,-1.9658,-1.9418,-1.923,-1.8759,-1.8494,-1.834,0.0,0.0,0.0,0.0,0.0,0.0,0.0,0.0,0.0,0.0,-3.6098,-3.5452,0.0,0.0,0.0,0.0,0.0,0.0,0.0,0.0,-2.4663,-2.4561,-2.2425,-2.1211,-2.1211,-2.1211,-2.1211,-2.1211,-2.1211,-2.1211,-2.1211,-2.1211,-2.1211,-2.1211,-2.1211,-2.1211,-2.1211,-2.1211,-2.1211,-2.1211,-2.1211,-2.1211,-2.1211,-2.1211,0.0,0.0,0.0,0.0,0.0,0.0,0.0,0.0,-2.6236,-2.6636,-2.6463,-2.5342,-2.4948,-2.4339,-2.2142,-2.1432,-2.1318,-2.1211,-2.1211,-2.1211,-2.1211,-2.1211,-2.1211,-2.1211,0.0,-2.1211,-2.1211,-2.1211,0.0,0.0,0.0,0.0,0.0,0.0,0.0,0.0,0.0,0.0,0.0,0.0,0.0,0.0,0.0,0.0,0.0,0.0,0.0,0.0,0.0,0.0,-1.4298,-1.4298,-1.4298,0.0,-1.4298,-1.4298,-1.4298,-1.4298,-1.4346,-1.4532,-1.6452,-1.8357,-2.0079,-1.9792,-1.9683,-1.9606,-1.9264,-1.8896,-1.8579,-1.8545,-1.8323,-1.8,0.0,0.0,0.0,0.0,0.0,0.0,0.0,0.0,0.0,0.0,0.0,0.0,0.0,0.0,0.0,0.0,0.0,0.0,0.0,0.0,-2.4283,-2.3416,-2.1979,-2.1211,-2.1211,-2.1211,-2.1211,-2.1211,-2.1211,-2.1211,-2.1211,-2.1211,-2.1211,-2.1211,-2.1211,-2.1211,-2.1211,-2.1211,-2.1211,-2.1211,-2.1211,-2.1211,-2.1211,-2.1211,-2.1211,0.0,0.0,0.0,0.0,0.0,0.0,0.0,-2.7232,-2.7906,-2.7853,-2.7618,-2.6844,-2.5799,-2.4347,-2.3303,-2.2369,-2.1432,-2.1211,-2.1211,-2.1211,-2.1211,-2.1211,-2.1211,-2.1211,-2.1211,-2.1211,0.0,0.0,0.0,0.0,0.0,0.0,0.0,0.0,0.0,0.0,0.0,0.0,0.0,0.0,0.0,0.0,0.0,0.0,0.0,0.0,0.0,0.0,-1.425,-1.4298,-1.4298,-1.4298,0.0,-1.4298,-1.4298,-1.4298,-1.4298,-1.4717,-1.5561,-1.6781,-1.7804,-1.8705,-1.9415,-1.952,-1.9256,-1.8862,-1.8656,-1.8554,-1.8263,-1.8068,-1.8,0.0,0.0,0.0,0.0,0.0,0.0,0.0,0.0,0.0,0.0,0.0,0.0,0.0,0.0,0.0,0.0,0.0,0.0,0.0,0.0,-2.3902,-2.2207,-2.1539,-2.1211,-2.1211,-2.1211,-2.1211,-2.1211,-2.1211,-2.1211,-2.1211,-2.1211,-2.1211,-2.1211,-2.1211,-2.1211,-2.1211,-2.1211,-2.1211,-2.1211,-2.1211,-2.1211,-2.1211,-2.1211,-2.1211,-2.1211,-2.1211,0.0,0.0,0.0,0.0,0.0,0.0,0.0,-2.8184,-2.7628,-2.6961,-2.6136,-2.4356,-2.364,-2.3151,-2.1938,0.0,-2.1546,-2.1268,-2.1211,-2.1211,-2.1211,-2.1211,-2.1211,0.0,0.0,0.0,0.0,0.0,0.0,0.0,0.0,0.0,0.0,0.0,0.0,0.0,0.0,0.0,0.0,0.0,0.0,0.0,0.0,0.0,0.0,-1.5313,-1.4765,-1.4298,-1.4298,-1.4298,-1.4298,-1.4298,-1.4232,-1.4117,-1.4238,-1.5022,-1.6237,-1.6793,-1.7666,-1.8693,-1.8781,-1.8854,-1.8853,-1.827,-1.8158,-1.8305,-1.8068,-1.8,-1.8,0.0,0.0,0.0,0.0,0.0,0.0,0.0,0.0,0.0,0.0,0.0,0.0,0.0,0.0,0.0,0.0,0.0,0.0,0.0,0.0,0.0,-2.1268,-2.1211,-2.1211,-2.1211,-2.1211,-2.1211,-2.1211,-2.1211,-2.1211,-2.1211,-2.1211,-2.1211,-2.1211,-2.1211,-2.1211,-2.1211,-2.1211,-2.1211,-2.1211,-2.1211,-2.1211,-2.1211,-2.1211,-2.1211,-2.1211,-2.1211,-2.1816,-2.2926,-2.4236,0.0,0.0,0.0,0.0,-2.8121,-2.7079,-2.6636,-2.6082,-2.4142,-2.376,-2.36,-2.2392,-2.2116,0.0,-2.1489,-2.1382,-2.1325,-2.1211,-2.1211,0.0,0.0,0.0,0.0,0.0,0.0,0.0,0.0,0.0,0.0,0.0,0.0,0.0,0.0,0.0,0.0,0.0,0.0,0.0,0.0,0.0,-1.8531,-1.6496,-1.6197,-1.5535,-1.4512,-1.4649,-1.4576,-1.4391,-1.4391,-1.4368,-1.4297,-1.4292,-1.5105,-1.6521,-1.6605,-1.7499,-1.8837,-1.8162,-1.8046,-1.8211,-1.763,-1.7595,-1.7919,-1.7951,-1.8,-1.8,0.0,0.0,0.0,0.0,0.0,0.0,0.0,0.0,0.0,0.0,-3.2939,-3.1706,0.0,0.0,0.0,0.0,0.0,0.0,0.0,0.0,0.0,-2.1211,-2.1211,-2.1211,-2.1211,-2.1211,-2.1211,-2.1211,-2.1211,-2.1211,-2.1211,-2.1211,-2.1211,-2.1211,-2.1211,-2.1211,-2.1211,-2.1211,-2.1211,-2.1211,-2.1211,-2.1211,-2.1211,-2.1211,-2.1211,-2.1211,-2.1211,-2.1318,-2.1759,-2.3958,-2.4837,0.0,0.0,0.0,-2.8291,-2.813,-2.7295,-2.6409,-2.6136,0.0,-2.36,0.0,-2.2116,-2.2059,0.0,0.0,-2.1831,0.0,0.0,0.0,0.0,0.0,0.0,0.0,0.0,0.0,0.0,0.0,0.0,0.0,0.0,0.0,0.0,0.0,0.0,0.0,0.0,0.0,0.0,-2.0378,-1.9558,-1.8933,-1.7725,-1.6514,-1.5286,-1.6017,-1.5832,-1.4714,-1.4714,-1.5145,-1.5826,-1.4714,-1.4798,-1.5871,-1.6212,-1.6824,-1.7564,-1.7802,-1.7522,-1.6958,-1.7286,-1.7432,-1.7514,-1.7878,-1.8,-1.8,0.0,0.0,0.0,0.0,0.0,0.0,0.0,0.0,0.0,0.0,0.0,-3.1462,0.0,0.0,0.0,-2.8291,0.0,0.0,0.0,0.0,0.0,-2.1211,-2.1211,-2.1211,-2.1211,-2.1211,-2.1211,-2.1211,-2.1211,-2.1546,-2.2207,-2.2207,-2.1873,-2.1211,-2.1211,-2.1596,-2.2207,-2.2207,-2.2587,-2.3135,-2.2482,-2.2207,-2.215,-2.1489,-2.1211,-2.1211,-2.1211,-2.1653,-2.2482,-2.4117,-2.5177,-2.6018,-2.7736,0.0,0.0,0.0,-2.7906,-2.7295,-2.6291,-2.558,-2.4816,0.0,-2.3584,-2.376,-2.3416,0.0,-2.2505,0.0,0.0,0.0,0.0,0.0,0.0,0.0,0.0,0.0,0.0,0.0,0.0,0.0,0.0,0.0,0.0,0.0,0.0,0.0,0.0,-2.1732,-2.1405,-2.0562,-1.9614,-1.847,-1.7838,-1.6966,-1.584,-1.6237,-1.612,-1.5578,-1.5578,-1.5715,-1.5944,-1.5078,-1.5253,-1.6161,-1.6067,-1.6362,-1.6961,-1.6919,-1.6824,-1.673,-1.6943,-1.7188,-1.7432,-1.7838,-1.8,-1.8,0.0,0.0,0.0,0.0,0.0,0.0,0.0,0.0,0.0,0.0,0.0,0.0,0.0,0.0,0.0,0.0,-2.7187,0.0,0.0,0.0,0.0,-2.1211,-2.1211,-2.1211,-2.1211,-2.1211,-2.1211,-2.1211,-2.1489,-2.2093,-2.3038,-2.3303,-2.2974,-2.2093,-2.2093,-2.2587,-2.3416,-2.3416,-2.3902,-2.4616,-2.3799,-2.3416,-2.3303,-2.2093,-2.1653,-2.1596,-2.1318,-2.1987,-2.3199,-2.4339,-2.5507,-2.669,-2.7906,-2.8291,0.0,0.0,0.0,-2.795,-2.6336,0.0,-2.6236,-2.5168,-2.5223,-2.5342,0.0,0.0,0.0,0.0,0.0,0.0,0.0,0.0,0.0,0.0,0.0,0.0,0.0,0.0,0.0,0.0,0.0,0.0,0.0,0.0,0.0,0.0,0.0,-2.1482,-2.0634,-2.0317,-1.9527,-1.8127,-1.8067,-1.7577,-1.6483,-1.6394,-1.6443,-1.666,-1.6443,-1.6273,-1.6169,-1.5497,-1.5625,-1.6388,-1.5922,-1.5958,-1.6368,-1.617,-1.6211,-1.6368,-1.6492,-1.682,-1.727,-1.7676,-1.7919,-1.8,0.0,0.0,0.0,0.0,0.0,0.0,0.0,0.0,0.0,0.0,0.0,0.0,-2.8601,-2.8344,-2.8291,-2.8291,-2.7187,-2.5525,-2.3143,-2.1873,0.0,-2.1211,-2.1211,0.0,-2.1211,-2.1211,-2.1211,-2.1211,-2.2377,-2.2926,-2.303,-2.4125,-2.4561,-2.4505,-2.4505,-2.4561,-2.4616,-2.4616,-2.4671,-2.4663,-2.4671,-2.4616,-2.4505,-2.3359,-2.2926,-2.2757,-2.1596,-2.1987,-2.3199,-2.4339,-2.5507,-2.669,-2.7906,-2.8291,-2.8291,0.0,0.0,0.0,-2.7096,-2.7267,0.0,-2.6599,-2.6427,0.0,0.0,0.0,0.0,0.0,0.0,0.0,0.0,0.0,0.0,0.0,0.0,0.0,0.0,0.0,0.0,0.0,0.0,0.0,0.0,0.0,0.0,0.0,0.0,0.0,-1.9819,-1.9734,-1.9546,-1.9144,-1.9127,-1.8522,-1.727,-1.6838,-1.709,-1.7889,-1.709,-1.6918,-1.7253,-1.5963,-1.5639,-1.611,-1.5631,-1.5423,-1.5506,-1.5922,-1.5846,-1.5514,-1.5963,-1.6368,-1.6771,-1.727,-1.7676,-1.8,0.0,0.0,0.0,0.0,0.0,0.0,0.0,0.0,0.0,0.0,0.0,0.0,0.0,-2.8291,-2.8291,-2.8291,-2.6509,-2.4356,-2.1987,-2.1432,0.0,-2.1211,-2.1211,-2.1211,-2.1211,-2.1211,-2.1596,-2.2369,-2.2813,-2.376,-2.525,-2.5689,-2.6291,-2.6952,-2.5388,-2.5122,-2.5854,-2.5854,-2.6291,-2.6952,-2.6182,-2.5854,-2.5735,-2.4514,-2.4069,-2.4014,-2.3575,-2.4245,-2.5305,-2.5744,-2.6681,-2.7736,-2.8184,-2.8291,-2.8291,-2.8291,-2.8408,-2.8291,-2.7006,0.0,0.0,-2.7375,-2.7482,-2.7805,-2.7536,-2.6997,0.0,0.0,0.0,0.0,0.0,0.0,0.0,0.0,0.0,0.0,0.0,0.0,0.0,0.0,0.0,0.0,0.0,0.0,0.0,0.0,0.0,0.0,-1.941,-1.9136,-1.8828,-1.8459,-1.8442,-1.832,-1.8121,-1.823,-1.8465,-1.8768,-1.8111,-1.7891,-1.7992,-1.6927,-1.6513,-1.6642,-1.6239,-1.5796,-1.5431,-1.559,-1.5548,-1.5472,-1.5922,-1.6335,-1.6779,-1.7229,-1.7635,-1.8,0.0,0.0,0.0,0.0,0.0,0.0,0.0,0.0,-3.3438,-3.183,0.0,0.0,0.0,0.0,-2.813,-2.7736,-2.5836,-2.3902,-2.193,-2.1432,-2.1211,-2.1211,-2.1211,-2.1211,-2.1211,-2.1596,-2.2207,-2.2974,-2.3815,-2.4974,-2.6527,-2.6907,-2.752,-2.8237,-2.6617,-2.6345,-2.7079,-2.7079,-2.7574,-2.8237,-2.7413,-2.7079,-2.6961,-2.5735,-2.5058,-2.4727,-2.4727,-2.5232,-2.5963,-2.6354,-2.7349,-2.8408,-2.8344,-2.8291,-2.8291,-2.8291,-2.8408,-2.8398,-2.7565,-2.8315,-2.9132,0.0,0.0,-2.8963,-2.8741,0.0,0.0,0.0,0.0,0.0,0.0,0.0,0.0,0.0,0.0,0.0,0.0,0.0,0.0,0.0,0.0,0.0,0.0,0.0,0.0,0.0,0.0,0.0,-1.9239,-1.8964,-1.8674,-1.8425,-1.8417,-1.8537,-1.8785,-1.9084,-1.9127,-1.8947,-1.8594,-1.824,-1.7901,-1.7255,-1.6911,-1.6771,-1.6507,-1.6133,-1.5745,-1.5745,-1.5745,-1.5773,-1.5965,-1.6297,-1.6698,-1.7024,-1.7432,-1.7838,0.0,0.0,0.0,0.0,0.0,0.0,0.0,0.0,-3.3388,-3.183,0.0,0.0,0.0,0.0,0.0,-2.6581,-2.5397,-2.4236,-2.3087,-2.1873,-2.1261,-2.1261,0.0,0.0,0.0,-2.2425,-2.3095,-2.3087,-2.536,-2.6527,-2.6581,-2.7736,-2.8291,-2.8291,-2.8291,-2.8291,-2.8291,-2.8291,-2.8291,-2.8291,-2.8291,-2.8291,-2.8184,-2.7025,-2.5854,-2.4837,-2.4837,-2.4837,-2.5003,-2.6182,-2.752,-2.8621,-2.8398,-2.8291,-2.8291,-2.8291,-2.8291,-2.8398,0.0,0.0,0.0,-2.9784,0.0,0.0,-2.8827,0.0,0.0,0.0,0.0,0.0,0.0,0.0,0.0,0.0,0.0,0.0,0.0,0.0,0.0,0.0,0.0,0.0,0.0,0.0,0.0,0.0,0.0,-1.952,-1.9239,-1.9213,-1.9213,-1.9213,-1.923,-1.9196,-1.9196,-1.9247,-1.8981,-1.8446,-1.8403,-1.7933,-1.7029,-1.7029,-1.6809,-1.6441,-1.6433,-1.6426,-1.6426,-1.6404,-1.6404,-1.6367,-1.6023,-1.6156,-1.6587,-1.6658,-1.6984,-1.7473,0.0,0.0,0.0,0.0,0.0,0.0,-3.5668,-3.3895,-3.2325,0.0,0.0,0.0,-2.8344,-2.8291,-2.7789,-2.6581,-2.5397,-2.4236,-2.3087,-2.2708,-2.2482,-2.2482,-2.3303,-2.3735,-2.3735,-2.4069,-2.468,-2.5525,-2.6191,-2.6971,-2.7799,-2.813,-2.8291,-2.8291,-2.8291,-2.8291,-2.8291,-2.8291,-2.8291,-2.8291,-2.8291,-2.8291,-2.8237,-2.7906,-2.7565,-2.7286,-2.7286,-2.7286,-2.7349,-2.7682,-2.8067,-2.8408,-2.8291,-2.8291,-2.8291,-2.8291,-2.8461,-2.8568,-2.8504,0.0,0.0,0.0,0.0,0.0,0.0,0.0,0.0,0.0,0.0,0.0,0.0,0.0,0.0,0.0,0.0,0.0,0.0,0.0,0.0,0.0,0.0,0.0,0.0,0.0,0.0,0.0,-1.9692,-1.9281,-1.9222,-1.9213,-1.9213,-1.9213,-1.9444,-1.9546,-1.9546,-1.9847,-1.9751,-1.9249,-1.8888,-1.8397,-1.7766,-1.7392,-1.7154,-1.7047,-1.6866,-1.6763,-1.6727,-1.6228,-1.6038,-1.6009,-1.5687,-1.5814,-1.6258,-1.6572,-1.6984,-1.7473,0.0,0.0,0.0,0.0,0.0,0.0,-3.5464,-3.3487,-3.192,0.0,0.0,0.0,-2.8291,-2.8291,-2.8014,-2.7295,-2.6127,-2.5186,-2.4475,-2.3966,-2.3687,-2.3687,-2.4339,-2.4727,-2.4727,-2.5168,-2.579,-2.6527,-2.7025,-2.7628,-2.8291,-2.8291,-2.8291,-2.8291,-2.8291,-2.8291,-2.8291,-2.8291,-2.8291,-2.8291,-2.8291,-2.8291,-2.8291,-2.8291,-2.796,-2.7628,-2.813,-2.796,-2.7628,-2.8121,-2.8291,-2.8291,-2.8451,-2.8398,-2.8291,-2.8291,-2.8398,-2.8568,-2.8611,-2.879,-2.8965,-2.9122,0.0,0.0,-2.8971,-2.8659,0.0,0.0,0.0,0.0,0.0,0.0,0.0,0.0,0.0,0.0,0.0,0.0,0.0,0.0,0.0,0.0,0.0,0.0,0.0,0.0,-1.9744,-1.9478,-1.9632,-1.9641,-1.9641,-1.9641,-1.9855,-1.9975,-1.9975,-2.0,-1.9737,-1.9279,-1.8727,-1.8272,-1.7753,-1.7333,-1.7128,-1.7113,-1.6837,-1.6697,-1.6661,-1.6118,-1.5987,-1.6074,-1.5752,-1.5804,-1.6076,-1.6547,-1.6861,-1.7188,0.0,0.0,0.0,0.0,0.0,0.0,-3.532,-3.3388,-3.1891,0.0,-2.9804,-2.8428,-2.8428,-2.8389,-2.8389,-2.8428,-2.7281,-2.6591,-2.6591,-2.5578,-2.4936,-2.4893,-2.5003,-2.5113,-2.5113,-2.6127,0.0,0.0,0.0,0.0,0.0,-2.8291,-2.8291,-2.8291,-2.8291,-2.8291,-2.8291,-2.8291,-2.8291,-2.8291,-2.8291,-2.8291,-2.8291,-2.8291,-2.7628,-2.6853,-2.7906,-2.7628,-2.6853,-2.796,-2.8291,-2.8344,-2.8568,-2.8514,-2.8291,-2.8291,-2.8262,-2.8382,-2.885,-2.854,-2.8211,-2.8973,-2.8685,0.0,-2.8495,-2.8183,-2.7852,0.0,0.0,0.0,0.0,0.0,0.0,0.0,0.0,0.0,0.0,0.0,0.0,0.0,0.0,0.0,0.0,-2.1346,-2.0722,-2.0447,-1.9984,-1.9905,-2.0275,-2.0249,-2.0232,-2.0232,-2.0189,-2.0172,-2.0118,-1.9711,-1.9203,-1.8617,-1.8203,-1.7695,-1.7208,-1.693,-1.6844,-1.6829,-1.6499,-1.6316,-1.6338,-1.5987,-1.6045,-1.6331,-1.5979,-1.5819,-1.5911,-1.6477,-1.6738,-1.6935,-3.6405,0.0,0.0,0.0,0.0,0.0,-3.5524,-3.3338,-3.1768,-3.2036,-3.0478,-2.9381,-2.9381,-2.9004,-2.8935,-2.9287,-2.7938,-2.7077,-2.7077,-2.6837,-2.6526,-2.6145,-2.707,-2.7618,-2.7618,-2.7843,0.0,0.0,0.0,0.0,0.0,0.0,-2.8291,-2.8291,-2.8291,-2.8291,-2.8291,-2.8291,-2.8291,-2.8291,-2.8291,-2.8291,-2.8291,-2.8291,-2.8121,-2.796,-2.8237,-2.813,-2.796,-2.8237,-2.8291,-2.8291,-2.8344,-2.8344,-2.8291,-2.8291,-2.8206,-2.8097,-2.8192,-2.8194,-2.8218,-2.836,-2.8162,0.0,-2.801,-2.7707,-2.7434,0.0,0.0,0.0,0.0,0.0,0.0,0.0,0.0,0.0,0.0,0.0,0.0,0.0,0.0,0.0,0.0,-2.2041,-2.1275,-2.1177,-2.0576,-2.0215,-2.0292,-2.0009,-1.9802,-1.9802,-1.9555,-1.9219,-1.8862,-1.8767,-1.8285,-1.7447,-1.7359,-1.704,-1.655,-1.6536,-1.6507,-1.6492,-1.614,-1.6001,-1.5979,-1.5657,-1.5716,-1.5972,-1.565,-1.5484,-1.5602,-1.6392,-1.7057,-1.7619,-3.6405,-3.6405,0.0,0.0,0.0,0.0,0.0,-3.3044,-3.1717,-3.1145,-2.9978,-2.9248,-2.9248,-2.9248,-2.9336,-2.9551,-2.8864,-2.8396,-2.8396,-2.8206,-2.7933,-2.7725,-2.8076,-2.8291,-2.8291,-2.8291,-2.8291,0.0,0.0,0.0,0.0,0.0,0.0,-2.8514,-2.8344,-2.8344,-2.8514,-2.8344,-2.8291,-2.8291,-2.8291,0.0,-2.8291,-2.8291,-2.8291,-2.8291,-2.8291,-2.8291,-2.8291,-2.8291,-2.8291,0.0,-2.8291,-2.8398,-2.8465,-2.8196,-2.8189,-2.8231,-2.8114,-2.7986,-2.789,-2.8039,-2.7837,0.0,0.0,-2.7417,-2.7309,0.0,0.0,0.0,0.0,0.0,0.0,0.0,0.0,0.0,0.0,0.0,0.0,0.0,0.0,0.0,0.0,-2.2872,-2.2157,-2.1445,-2.0873,-2.0411,-2.0018,-1.9658,-1.9461,-1.9461,-1.9273,-1.8955,-1.8516,-1.8257,-1.7814,-1.7115,-1.6852,-1.6632,-1.6404,-1.6213,-1.614,-1.6126,-1.5811,-1.563,-1.5657,-1.5455,-1.5484,-1.5615,-1.5455,-1.5389,-1.5548,-1.6771,-1.7416,-1.7853,-3.6405,-3.6405,-3.6323,0.0,0.0,0.0,0.0,-3.2846,-3.1675,-3.0124,-2.956,-2.9268,-2.917,-2.9404,-2.9626,-2.9626,-2.9492,-2.9482,-2.956,-2.9238,-2.9004,-2.8926,-2.8594,-2.8379,-2.8291,-2.8291,-2.8291,0.0,0.0,0.0,0.0,0.0,0.0,-2.8674,-2.8504,-2.8568,-2.8684,-2.8461,-2.8354,-2.8291,0.0,-2.8291,-2.8291,-2.8291,-2.8291,-2.8291,-2.8291,-2.8291,-2.8291,-2.8291,-2.8291,-2.8291,-2.8291,-2.8402,0.0,-2.812,-2.8161,-2.8258,-2.8106,-2.7768,-2.7518,0.0,0.0,-2.7309,0.0,0.0,0.0,0.0,0.0,0.0,0.0,0.0,0.0,0.0,0.0,0.0,0.0,0.0,0.0,0.0,0.0,0.0,0.0,-2.3467,-2.2834,-2.154,-2.0965,-2.0401,-1.9808,-1.935,-1.9059,-1.9059,-1.8948,-1.8608,-1.8173,-1.7701,-1.7227,-1.6751,-1.6402,-1.6191,-1.6177,-1.5935,-1.5783,-1.5804,-1.5498,-1.5389,-1.5389,-1.5389,-1.5506,-1.5624,-1.5465,-1.5506,-1.5831,-1.7212,-1.7893,-1.8327,-3.6405,-3.6405,-3.6323,0.0,0.0,0.0,0.0,0.0,-3.171,-3.0323,-3.0438,-3.0508,-3.0098,-2.9766,-2.9626,-2.9626,-2.9219,-2.916,-2.9541,-2.9521,-2.9316,-2.8935,-2.8877,-2.8672,-2.8301,-2.8291,-2.8291,0.0,0.0,0.0,0.0,0.0,0.0,0.0,-2.893,-2.8877,-2.8684,-2.8684,-2.8514,0.0,-2.8291,-2.8291,0.0,-2.8291,-2.8291,-2.8291,-2.8291,-2.8291,-2.8291,0.0,-2.8291,-2.8291,0.0,-2.8196,-2.809,-2.8031,0.0,0.0,0.0,0.0,0.0,0.0,-2.734,0.0,0.0,0.0,-2.7185,-2.6781,0.0,0.0,0.0,0.0,0.0,0.0,0.0,0.0,0.0,0.0,0.0,0.0,0.0,0.0,0.0,0.0,-2.2559,-2.1706,-2.0753,-2.0162,-2.0077,-1.9148,-1.8656,-1.8656,-1.797,-1.7392,-1.6899,-1.6493,-1.6077,-1.5575,-1.5533,-1.5491,-1.5491,-1.5455,-1.5447,-1.544,-1.5403,-1.5389,-1.5389,-1.5389,-1.5865,-1.6501,-1.5707,-1.5865,-1.6665,-1.7408,-1.8527,-1.9747,-3.6405,-3.6405,-3.6323,-3.6063,0.0,0.0,0.0,0.0,-3.0579,-3.0221,-3.0361,-3.042,-3.0215,-3.0283,-3.0332,-3.0332,-3.0166,-3.0029,-2.9941,-2.9707,-2.9375,-2.8935,-2.8682,-2.8476,-2.8301,-2.8291,-2.8291,-2.8291,-2.8291,0.0,0.0,0.0,0.0,0.0,-2.9132,-2.9132,-2.9195,-2.9036,-2.8781,0.0,0.0,0.0,0.0,-2.8291,-2.8291,-2.8291,-2.8291,-2.8291,-2.8252,0.0,-2.793,0.0,0.0,0.0,0.0,-2.7743,0.0,0.0,0.0,0.0,0.0,0.0,0.0,0.0,-2.6967,0.0,-2.677,0.0,0.0,0.0,0.0,0.0,0.0,0.0,-2.4786,0.0,0.0,0.0,0.0,0.0,0.0,0.0,0.0,0.0,0.0,0.0,0.0,-2.0557,-1.9772,-1.9167,-1.8629,-1.8271,-1.7719,-1.7188,-1.6689,-1.6294,-1.5839,-1.5389,-1.5389,-1.5389,-1.5389,-1.5389,-1.5389,-1.5389,-1.5389,-1.5389,-1.5431,-1.5948,-1.6378,-1.6698,-1.687,-1.7115,-1.7594,-1.8598,-1.9392,-2.006,-3.6405,-3.6405,-3.6275,-3.5955,0.0,0.0,0.0,-3.1196,-3.0039,-3.0342,-3.0391,-3.0332,-3.0205,-3.0498,-3.0654,-3.0537,-3.0527,-3.0439,-3.0215,-2.9912,-2.9551,-2.9111,-2.8809,-2.8525,-2.8301,-2.8291,-2.8291,0.0,0.0,0.0,0.0,0.0,0.0,0.0,0.0,-2.9265,-2.937,0.0,-2.8675,-2.8423,-2.8361,-2.8203,-2.7969,-2.8203,-2.8223,-2.8125,-2.8125,-2.8047,-2.79,-2.7588,-2.7532,0.0,-2.7447,0.0,-2.7673,0.0,0.0,0.0,-2.7392,0.0,0.0,0.0,0.0,0.0,0.0,0.0,0.0,0.0,0.0,0.0,0.0,0.0,-2.489,-2.4559,0.0,-2.4497,0.0,0.0,0.0,0.0,0.0,0.0,0.0,0.0,0.0,0.0,-2.166,0.0,-1.9925,-1.9307,-1.8803,-1.8282,-1.7595,-1.7025,-1.6689,-1.6162,-1.5722,-1.5389,-1.5389,-1.5389,-1.5389,-1.5389,-1.5389,-1.5389,-1.5389,-1.5548,-1.5824,-1.646,-1.6984,-1.7472,-1.8118,-1.8479,-1.8798,-1.9629,-2.006,-2.0382,-3.6405,-3.6405,-3.6228,-3.5704,-3.6051,0.0,0.0,-3.204,-3.085,-3.0869,-3.0869,-3.0693,-3.0244,-3.0205,-3.0059,-2.9704,-2.9665,-2.9785,-3.0166,-3.0185,-2.999,-2.9626,-2.9597,-2.9141,-2.831,-2.8291,-2.8291,0.0,0.0,0.0,0.0,0.0,0.0,0.0,-2.9415,-2.9188,-2.8911,-2.8421,-2.8066,-2.7804,-2.754,-2.7296,-2.7148,0.0,-2.8047,-2.7738,-2.7738,0.0,0.0,-2.7041,-2.7174,0.0,0.0,0.0,0.0,0.0,0.0,0.0,0.0,0.0,0.0,-2.675,0.0,0.0,0.0,0.0,-2.5771,0.0,0.0,0.0,0.0,-2.4518,-2.4518,-2.4497,-2.4497,0.0,0.0,0.0,0.0,0.0,0.0,0.0,0.0,0.0,0.0,-2.2482,-2.1495,-2.0886,-2.0848,-1.9666,-1.9002,-1.8962,-1.7505,-1.673,-1.6689,-1.5839,-1.5431,-1.5389,-1.5389,-1.5389,-1.5389,-1.5389,-1.5389,-1.5389,-1.5389,-1.5865,-1.6657,-1.6698,-1.7674,-1.9222,-1.9262,-1.9775,-2.0479,-2.007,-2.043,-2.1205,-3.6405,-3.6405,-3.6228,-3.5716,-3.6063,-3.5791,0.0,-3.2081,-3.0889,-3.0889,-3.0889,-3.083,-3.0674,-3.0654,-3.0596,-3.0459,-3.0439,-3.0371,-3.0205,-3.0195,-2.9883,-2.917,-2.9141,-2.8877,-2.8301,-2.8291,-2.8291,0.0,0.0,0.0,0.0,0.0,0.0,0.0,0.0,-2.8805,0.0,0.0,0.0,0.0,0.0,-2.75,-2.7286,0.0,0.0,-2.7236,-2.7236,-2.7139,0.0,-2.6881,-2.6923,-2.6963,-2.7039,-2.7092,-2.7125,-2.7308,-2.7338,0.0,0.0,0.0,-2.6739,-2.6227,0.0,0.0,0.0,0.0,0.0,0.0,0.0,0.0,0.0,-2.4978,-2.5179,-2.4583,-2.4978,-2.5137,0.0,0.0,0.0,0.0,0.0,0.0,0.0,0.0,0.0,-2.2066,-2.1699,-2.1339,0.0,-2.0079,-1.9411,-1.9002,-1.7505,-1.6689,-1.6689,-1.5839,-1.5389,-1.5389,-1.5389,-1.5389,-1.5389,-1.5389,-1.5389,-1.5389,-1.5389,-1.5906,-1.6739,-1.7302,-1.8247,-1.9341,-1.9932,-2.0411,-2.0819,-2.076,-2.0964,-2.1244,-3.6405,-3.6108,-3.5775,-3.562,-3.5351,-3.4866,0.0,0.0,0.0,-3.0889,-3.0889,-3.0889,-3.0889,-3.0889,-3.0889,-3.0889,-3.0889,-3.0762,-3.0459,-3.0293,-2.9883,-2.918,-2.9004,-2.8721,-2.8301,-2.8291,-2.8354,-2.8461,0.0,-2.8983,0.0,0.0,0.0,0.0,0.0,-2.8369,-2.8359,-2.8204,-2.8043,0.0,0.0,-2.7302,0.0,0.0,-2.6701,-2.6787,0.0,-2.6831,-2.6654,-2.6675,-2.6723,-2.681,-2.6886,-2.6948,-2.7051,-2.7065,-2.7061,-2.6957,-2.6501,-2.6366,0.0,-2.5761,-2.5647,0.0,-2.5044,0.0,0.0,0.0,0.0,0.0,0.0,-2.574,-2.5703,-2.4861,-2.5035,-2.4999,0.0,-2.3815,0.0,0.0,0.0,0.0,0.0,0.0,-2.2128,-2.1828,-2.1807,-2.1645,0.0,0.0,-1.9913,-1.9134,-1.7772,-1.6853,-1.6492,-1.5756,-1.5389,-1.5389,-1.5389,-1.5389,-1.5389,-1.5389,-1.5389,-1.5431,-1.5748,-1.6345,-1.7229,-1.8118,-1.8975,-1.9814,-2.045,-2.078,-2.0906,-2.1138,-2.1282,-2.1464,-3.6405,-3.5523,-3.4945,-3.5501,-3.4039,0.0,0.0,0.0,-3.0889,0.0,-3.0889,-3.0889,-3.0889,-3.0889,-3.0889,-3.0889,-3.0889,-3.0879,-3.0859,-3.0439,-3.0,-2.956,-2.9141,-2.8721,-2.8301,-2.8344,-2.8451,-2.8737,0.0,0.0,0.0,0.0,0.0,0.0,-2.8336,0.0,-2.7862,-2.7438,-2.7309,-2.7262,-2.7034,-2.6747,-2.6496,-2.6245,0.0,-2.6457,-2.6685,-2.6506,-2.6149,-2.6448,-2.6699,-2.69,-2.688,-2.7051,-2.7185,-2.6718,-2.6584,-2.648,-2.5968,-2.5889,-2.574,-2.5261,0.0,0.0,0.0,0.0,-2.5861,0.0,0.0,0.0,0.0,0.0,-2.6081,-2.529,-2.4654,-2.4032,-2.3274,-2.3193,-2.3017,0.0,0.0,0.0,0.0,-2.2066,-2.1807,-2.1807,-2.1807,-2.1807,0.0,0.0,0.0,-1.9423,-1.8318,-1.7253,-1.6252,-1.5714,-1.5472,-1.5472,-1.5431,-1.5389,-1.5389,-1.5389,-1.5431,-1.5506,-1.6337,-1.7229,-1.8118,-1.8975,-1.9814,-2.0605,-2.0819,-2.0906,-2.0945,-2.1128,-2.1464,-2.1807,-3.6405,-3.5379,-3.4651,0.0,-3.3429,-3.2203,0.0,0.0,0.0,0.0,-3.0889,-3.0889,-3.0889,-3.0889,-3.0889,-3.0889,-3.0889,0.0,0.0,-3.0264,-2.9863,-2.9121,-2.9213,-2.9075,-2.8631,-2.8771,-2.892,-2.8983,0.0,0.0,-2.9116,0.0,0.0,0.0,0.0,-2.8121,-2.7475,-2.7351,-2.7309,-2.7309,-2.7225,-2.7034,0.0,0.0,-2.6625,-2.6483,-2.6318,-2.6345,-2.6448,-2.6699,-2.6853,-2.6887,-2.6728,-2.6698,-2.6708,-2.6241,-2.6096,-2.5958,-2.5513,-2.5399,-2.5285,-2.4786,-2.5167,-2.5614,0.0,0.0,0.0,0.0,0.0,0.0,0.0,0.0,0.0,-2.4761,-2.4385,-2.3914,-2.2827,-2.3197,0.0,-2.2112,0.0,0.0,0.0,-2.188,-2.1807,-2.1807,-2.1807,0.0,0.0,0.0,0.0,-2.0274,-1.9244,-1.8447,-1.8055,-1.6911,-1.6378,-1.6378,-1.5707,-1.5389,-1.5389,-1.5389,-1.5748,-1.6378,-1.6617,-1.7553,-1.8975,-1.9222,-1.9814,-2.0605,-2.0819,-2.1099,-2.1359,-2.1387,-2.1578,-2.1807,-3.6405,-3.503,-3.3699,-3.3139,0.0,0.0,-3.3003,-3.2313,0.0,-3.1496,-3.1158,0.0,-3.0889,-3.0713,-3.0586,-3.0586,-3.042,0.0,-2.9941,0.0,0.0,-2.9119,-2.9193,-2.9136,-2.8887,-2.9026,-2.9386,-3.0005,-3.0129,0.0,-2.9779,0.0,0.0,0.0,0.0,-2.7809,-2.7309,-2.7309,-2.7309,-2.7309,-2.7309,0.0,0.0,-2.6948,-2.6768,-2.6489,-2.6252,-2.6383,-2.6668,-2.675,-2.6783,-2.6701,-2.6367,-2.6314,-2.6175,-2.573,-2.5595,-2.5502,-2.5003,-2.5173,-2.5391,-2.5126,-2.5552,-2.6006,-2.6006,-2.6514,-2.6866,0.0,0.0,0.0,0.0,0.0,0.0,-2.5004,-2.4187,-2.3497,-2.28,0.0,0.0,0.0,-2.1807,0.0,0.0,-2.1807,-2.1807,-2.1807,0.0,0.0,0.0,0.0,0.0,-2.0313,-1.9708,-1.9076,-1.8407,-1.7634,-1.7269,-1.7269,-1.6386,-1.5982,-1.5982,-1.5982,-1.6221,-1.6739,-1.7513,-1.8407,-1.9341,-1.9696,-2.0216,-2.077,-2.1051,-2.1359,-2.1617,-2.1617,-2.1693,-2.1807,-3.6405,-3.4678,-3.2634,0.0,0.0,0.0,0.0,-3.3158,0.0,-3.2166,0.0,-3.0887,-3.0781,-3.0351,-3.0117,-3.0174,0.0,-2.9653,-2.9603,-2.9535,-2.9416,-2.9357,-2.9246,-2.9185,-2.9185,-2.9124,-2.9713,-3.0936,0.0,0.0,0.0,0.0,0.0,0.0,0.0,0.0,0.0,-2.7309,-2.7309,-2.7309,-2.7309,-2.7268,-2.7169,-2.6952,-2.6701,-2.6486,-2.6264,-2.6427,-2.675,-2.6574,-2.6532,-2.6449,-2.5937,-2.5792,-2.5709,-2.523,-2.5184,-2.5178,-2.4762,-2.5263,-2.5856,-2.5856,-2.6105,-2.638,-2.638,-2.6691,-2.6951,-2.6879,-2.7483,0.0,0.0,0.0,0.0,-2.5336,-2.4118,0.0,0.0,0.0,0.0,0.0,0.0,0.0,0.0,0.0,0.0,0.0,0.0,0.0,0.0,0.0,0.0,0.0,-2.006,0.0,-1.8399,0.0,-1.8158,-1.8158,-1.731,-1.6862,-1.6862,-1.6862,-1.6935,-1.7098,-1.8647,-1.9341,-1.9539,-2.0333,-2.077,-2.1022,-2.1359,-2.1617,-2.1807,-2.1807,-2.1807,-2.1807,-3.6405,-3.4678,-3.3085,0.0,0.0,-3.4288,-3.346,-3.3201,-3.276,-3.1818,-3.1409,-3.0828,-2.9907,-2.9726,-2.98,-3.0033,-2.9964,0.0,0.0,0.0,0.0,-2.9166,-2.9384,-2.9501,-2.9501,-2.9352,-2.9363,0.0,0.0,0.0,0.0,0.0,0.0,0.0,0.0,0.0,-2.7309,-2.7309,0.0,-2.7309,-2.7309,-2.7081,-2.6739,-2.6693,-2.6403,-2.5999,-2.5954,-2.6016,-2.6067,-2.603,-2.6044,-2.5916,-2.5482,-2.5303,-2.521,-2.4755,-2.5147,-2.5687,-2.56,-2.5905,-2.62,-2.62,-2.6442,-2.6719,-2.6719,-2.731,-2.774,-2.7292,-2.7347,-2.7293,-2.6864,0.0,0.0,0.0,0.0,0.0,0.0,0.0,0.0,0.0,0.0,-2.2515,0.0,0.0,0.0,0.0,0.0,0.0,0.0,0.0,0.0,0.0,0.0,0.0,0.0,0.0,0.0,-1.9054,-1.8198,-1.7755,-1.7755,-1.7755,-1.8158,-1.8856,-1.9183,-1.9696,-2.0411,-2.0741,-2.1051,-2.1397,-2.1474,-2.1617,-2.1807,-2.1807,-2.1807,-2.1807,-3.4824,0.0,-3.3845,-3.33,0.0,0.0,0.0,-3.4393,0.0,-3.3291,-3.2596,-3.2061,-3.1529,-3.1277,-3.1238,-3.1517,-3.1338,-3.1159,-3.1093,-3.1239,-3.1236,-3.1011,-3.103,-3.1063,-3.1063,-3.0634,-3.0729,-3.1255,0.0,0.0,-3.0997,0.0,0.0,0.0,0.0,-2.9669,0.0,0.0,0.0,-2.7604,-2.6862,-2.6459,-2.6262,-2.6262,-2.5937,-2.5544,-2.5544,-2.5677,-2.5837,-2.5584,-2.5834,-2.6136,-2.5668,-2.5819,-2.6147,-2.5917,-2.5945,-2.6061,-2.6061,-2.6302,-2.6573,-2.6573,-2.6801,-2.7053,-2.7053,-2.7181,-2.7216,-2.6952,-2.6889,-2.6813,-2.6549,-2.6176,0.0,0.0,0.0,0.0,0.0,0.0,-2.3827,0.0,0.0,0.0,0.0,0.0,0.0,0.0,0.0,0.0,0.0,0.0,0.0,0.0,0.0,0.0,0.0,0.0,0.0,-1.9971,-1.9094,-1.8687,-1.8687,-1.8687,-1.8895,-1.9341,-1.9775,-2.0255,-2.077,-2.1089,-2.132,-2.1502,-2.1617,-2.1693,-2.1807,-2.1807,-2.1807,-2.1845,-3.3371,-3.3907,0.0,0.0,-3.4268,0.0,-3.4812,-3.5548,-3.5695,-3.4684,-3.3685,-3.2919,-3.2709,-3.2171,-3.1954,-3.2265,-3.1965,-3.1792,-3.1945,-3.2258,-3.2413,-3.2499,-3.2342,-3.2185,-3.2185,-3.1634,-3.1785,0.0,0.0,0.0,0.0,0.0,0.0,0.0,0.0,0.0,0.0,0.0,-2.8098,-2.802,-2.6901,-2.6385,-2.629,-2.629,-2.6015,-2.558,-2.558,-2.5797,-2.601,-2.5701,-2.6077,-2.6576,-2.619,-2.6457,-2.6949,-2.6949,-2.6662,-2.6429,-2.6429,-2.6635,-2.6918,-2.6918,-2.7014,-2.714,-2.714,-2.6801,-2.6499,-2.6499,-2.6499,-2.6499,-2.6499,-2.6499,0.0,0.0,0.0,0.0,0.0,0.0,0.0,0.0,0.0,0.0,-2.2317,0.0,0.0,0.0,0.0,0.0,0.0,0.0,0.0,0.0,0.0,0.0,-2.0984,0.0,-2.0605,0.0,-1.9893,-1.9578,-1.9578,-1.9578,-1.9578,-1.9618,-2.0333,-2.0809,-2.1061,-2.1359,-2.154,-2.1578,-2.1731,-2.1807,-2.1807,-2.1807,-2.1807,-2.1883,0.0,0.0,0.0,0.0,0.0,0.0,0.0,-3.5667,-3.5883,-3.4592,-3.3281,-3.2082,-3.1056,-3.0015,-2.9552,-2.9868,-2.9879,-3.0181,-3.0902,-3.098,-3.1168,-3.1584,-3.1622,-3.1588,-3.1588,-3.1097,-3.0927,0.0,0.0,-3.1324,0.0,0.0,0.0,0.0,0.0,0.0,0.0,-2.8701,-2.8441,-2.8441,-2.8309,-2.7983,-2.7598,-2.7598,-2.7334,-2.6933,-2.6933,-2.6951,-2.6987,-2.6921,-2.6974,-2.7044,-2.6999,-2.6708,-2.6382,-2.6382,-2.6562,-2.6735,-2.6735,-2.7005,-2.7249,-2.7249,-2.6907,-2.6562,-2.6562,-2.6537,-2.6499,-2.6499,-2.6499,-2.6499,-2.6499,-2.6499,-2.6245,0.0,0.0,0.0,0.0,0.0,-2.5886,-2.5158,0.0,0.0,0.0,0.0,0.0,0.0,0.0,0.0,0.0,0.0,0.0,-2.1769,0.0,-2.1167,-2.1167,-2.0809,0.0,-2.0605,-2.0527,-2.0489,-2.0489,-2.0489,-2.0489,-2.0489,-2.078,-2.1089,-2.1436,-2.1464,-2.1617,-2.1769,-2.1807,-2.1807,-2.1807,-2.1807,-2.1807,-2.1921,0.0,0.0,0.0,0.0,0.0,0.0,0.0,-3.5089,-3.5182,-3.4659,-3.4316,-3.3922,-3.3463,-3.2686,-3.2356,-3.2657,-3.2657,-3.2815,-3.3137,-3.3125,-3.3217,-3.3385,-3.3116,-3.2959,-3.2959,-3.2426,-3.2204,0.0,0.0,0.0,0.0,0.0,0.0,0.0,0.0,-3.094,-3.0501,-2.9427,-2.9005,-2.8886,-2.8029,-2.7538,-2.7367,-2.7367,-2.7241,-2.711,-2.711,-2.7226,-2.7408,-2.7408,-2.7408,-2.7408,-2.7408,-2.7403,-2.7377,-2.7377,-2.7274,-2.7113,-2.7113,-2.698,-2.6826,-2.6826,-2.6663,-2.6499,-2.6499,-2.6499,-2.6499,-2.6499,-2.6499,-2.6499,-2.6499,-2.6499,-2.6383,0.0,0.0,0.0,0.0,0.0,0.0,-2.5347,0.0,-2.4445,0.0,0.0,0.0,0.0,0.0,0.0,0.0,0.0,0.0,-2.1807,0.0,-2.1397,-2.1397,-2.0974,-2.078,-2.078,-2.0654,-2.0605,-2.0605,-2.0731,-2.0858,-2.0964,-2.1167,-2.1359,-2.1502,-2.1617,-2.1731,-2.1807,-2.1807,-2.1807,-2.1807,-2.1807,-2.2166,-2.2734,-3.2719,0.0,-3.4286,0.0,-3.4474,-3.4537,-3.47,-3.468,-3.468,-3.468,-3.479,-3.4761,-3.4585,-3.3905,-3.3523,-3.372,-3.3766,-3.3842,-3.3979,-3.4012,-3.4085,-3.4204,-3.3872,0.0,-3.3658,-3.3269,-3.2993,-3.283,-3.283,0.0,0.0,0.0,0.0,0.0,-3.1235,-3.116,-3.1082,-2.9958,-2.9443,-2.9366,-2.8326,-2.7891,-2.7891,-2.7891,-2.7785,-2.7615,-2.7615,-2.7666,-2.7759,-2.7759,-2.7624,-2.7552,-2.7711,-2.7792,-2.7858,-2.7858,-2.7469,-2.7077,-2.7077,-2.6788,-2.6499,-2.6499,-2.6499,-2.6499,-2.6499,-2.6499,-2.6499,-2.6499,-2.6499,-2.6499,-2.6499,-2.6499,-2.6499,-2.6499,0.0,0.0,0.0,0.0,0.0,0.0,-2.5146,-2.4696,-2.4492,0.0,0.0,0.0,0.0,0.0,0.0,0.0,0.0,0.0,0.0,0.0,0.0,0.0,-2.0945,-2.0906,-2.078,-2.0693,-2.0693,-2.0896,-2.1099,-2.1282,-2.1436,-2.154,-2.1617,-2.1731,-2.1807,-2.1807,-2.1807,-2.1949,-2.2138,-2.2203,-2.2771,-2.3635,-3.1825,-3.2419,-3.3269,-3.3822,-3.3909,-3.4098,-3.4638,-3.468,-3.468,-3.468,-3.4248,-3.3697,-3.3174,-3.2183,-3.1519,-3.1519,-3.1519,-3.1738,-3.2285,-3.2352,-3.2573,0.0,0.0,-3.3124,-3.3124,-3.3124,-3.2805,-3.2227,0.0,0.0,-3.0645,0.0,0.0,-3.1361,-3.0859,-3.062,-3.0583,-3.003,-2.9804,-2.9804,-2.9753,-2.9753,-2.9753,-2.9753,-2.9402,-2.8863,-2.8863,-2.8549,-2.8073,-2.8073,-2.7745,-2.7394,-2.7946,-2.7733,-2.7329,-2.7329,-2.6939,-2.6499,-2.6499,-2.6499,-2.6499,-2.6499,-2.6499,-2.6499,-2.6499,-2.6499,-2.6499,-2.6499,-2.6499,-2.6499,-2.6499,-2.6499,-2.6499,-2.6499,0.0,0.0,0.0,0.0,0.0,-2.6499,-2.6499,-2.6164,-2.5382,0.0,0.0,0.0,0.0,0.0,0.0,0.0,0.0,-2.1845,-2.1617,0.0,-2.1502,-2.132,-2.1099,-2.0906,-2.0906,-2.0906,-2.0906,-2.1089,-2.132,-2.1502,-2.1502,-2.1617,-2.1807,-2.1807,-2.1807,-2.1807,-2.1807,-2.2289,-2.3001,-2.3132,-2.3697,-2.448,-3.2711,-3.2896,-3.3131,-3.3307,-3.3332,-3.3395,-3.3571,-3.3608,-3.3608,-3.3608,-3.3445,-3.3308,-3.3107,-3.2811,-3.2576,0.0,-3.2576,-3.2648,0.0,-3.2841,-3.2941,-3.3081,-3.2704,-3.2491,-3.2491,-3.2114,-3.1838,-3.165,0.0,0.0,0.0,-3.062,-3.0507,-3.0294,-3.0131,-3.0055,-3.0043,-2.9867,-2.9792,-2.9792,-2.9792,-2.9553,-2.9202,-2.9202,-2.885,-2.836,-2.836,-2.8009,-2.7544,-2.7544,-2.7216,-2.6788,-2.6964,-2.6901,-2.6751,-2.6751,-2.6637,-2.6499,-2.6499,-2.6499,-2.6499,-2.6499,-2.6499,-2.6499,-2.6499,-2.6499,-2.6499,-2.6499,-2.6499,-2.6499,-2.6499,-2.6499,-2.6499,-2.6499,0.0,0.0,0.0,0.0,0.0,-2.6499,-2.6499,-2.6176,0.0,-2.5087,0.0,0.0,0.0,0.0,0.0,0.0,0.0,0.0,-2.1731,0.0,-2.1693,-2.1512,-2.1359,-2.132,-2.1167,-2.1177,-2.132,-2.1397,-2.1502,-2.1693,-2.1693,-2.1731,-2.1807,-2.1807,-2.1807,-2.1835,-2.2402,-2.2777,-2.3065,-2.3756,-2.4576,-2.5405,-3.2441,-3.2441,-3.2441,-3.2441,-3.2616,-3.2679,-3.2478,-3.2616,-3.2679,-3.2466,-3.2441,-3.2441,-3.2441,-3.2441,0.0,-3.2729,-3.2754,-3.2667,-3.2453,-3.2441,-3.2441,-3.2441,-3.2102,-3.1901,-3.1901,0.0,0.0,-3.1097,-3.0896,-3.062,-3.0306,-3.0306,-3.0118,-2.9792,-2.9792,-2.9792,-2.9779,-2.9566,-2.9465,-2.9453,-2.9239,-2.895,-2.8612,-2.8612,-2.8285,-2.7795,-2.7795,-2.7444,-2.7002,-2.7002,-2.6788,-2.6499,-2.6499,-2.6499,-2.6499,-2.6499,-2.6499,-2.6499,-2.6499,-2.6499,-2.6499,-2.6499,-2.6499,-2.6499,-2.6499,-2.6499,-2.6499,-2.6499,-2.6499,-2.6499,-2.6499,-2.6499,-2.6499,-2.6499,0.0,-2.6499,-2.6499,0.0,0.0,0.0,0.0,0.0,0.0,-2.5312,0.0,0.0,0.0,0.0,0.0,0.0,0.0,-2.1807,-2.1807,0.0,-2.1807,-2.1693,-2.1578,-2.1502,-2.1349,-2.1397,-2.1502,-2.1578,-2.1693,-2.1807,-2.1807,-2.1807,-2.1807,-2.2138,-2.2252,-2.2327,-2.3128,-2.3607,-2.3936,-2.466,-2.5475,-2.6299,-3.1386,-3.1386,0.0,0.0,-3.1813,0.0,-3.1474,-3.1825,-3.1976,-3.1461,-3.1386,-3.1386,-3.1386,-3.1386,-3.1587,-3.2064,0.0,0.0,0.0,-3.1386,-3.1386,-3.1386,-3.1348,0.0,-3.1336,-3.1298,-3.1035,-3.0557,-3.0043,-2.9792,-2.9792,-2.9792,-2.9792,-2.9792,-2.9754,-2.9729,-2.9691,-2.9076,-2.8838,-2.8787,-2.831,-2.8084,-2.8047,-2.8047,-2.7708,-2.7218,-2.7218,-2.6927,-2.6499,-2.6499,-2.6499,-2.6499,-2.6499,-2.6499,-2.6499,-2.6499,-2.6499,-2.6499,-2.6499,-2.6499,-2.6499,-2.6499,-2.6499,-2.6499,-2.6499,-2.6499,-2.6499,-2.6499,-2.6499,-2.6499,-2.6499,-2.6499,-2.6499,-2.6499,-2.6499,-2.6499,-2.6499,0.0,0.0,0.0,0.0,0.0,0.0,-2.5312,-2.4981,0.0,0.0,0.0,0.0,0.0,-2.3475,-2.1911,-2.1845,-2.1845,-2.1873,-2.1845,-2.1693,-2.1512,-2.1512,-2.154,-2.1617,-2.1807,-2.1873,-2.1883,-2.1949,-2.1911,-2.1959,-2.274,-2.3075,-2.3139,-2.3877,-2.4636,-2.5335,-2.5732,-2.6346,-2.7045,0.0,0.0,-3.1386,-3.1386,-3.1499,-3.1537,-3.1411,-3.1499,-3.1537,-3.1411,-3.1386,-3.1386,-3.1386,-3.1386,-3.1286,-3.1022,-3.1348,-3.1537,-3.1399,-3.1386,-3.1386,-3.1386,-3.1009,-3.0796,-3.0796,-3.0382,-3.0118,-2.9993,-2.9854,-2.9792,-2.9792,-2.9792,-2.9792,-2.9779,-2.934,-2.9101,-2.9101,-2.8536,-2.8298,-2.8285,-2.816,-2.7846,-2.7482,-2.7482,-2.7165,-2.6688,-2.6688,-2.66,-2.6499,-2.6499,-2.6499,-2.6499,-2.6499,-2.6499,-2.6499,-2.6499,-2.6499,-2.6499,-2.6499,-2.6499,-2.6499,-2.6499,-2.6499,-2.6499,-2.6499,-2.6499,-2.6499,-2.6499,-2.6499,-2.6499,-2.6499,-2.6499,-2.6499,-2.6499,-2.6499,-2.6499,-2.6499,-2.6499,0.0,0.0,-2.6499,-2.6176,-2.5382,-2.5312,-2.5229,0.0,0.0,0.0,0.0,0.0,-2.4324,-2.2767,-2.2101,-2.2101,-2.2703,-2.2111,-2.1769,-2.1731,-2.1731,-2.2063,-2.2665,-2.2703,-2.2703,-2.274,-2.329,-2.3228,-2.2767,-2.3522,-2.3829,-2.3913,-2.4719,-2.5123,-2.5418,-2.6371,-2.6841,-2.7045,-3.0658,-3.0658,-3.0658,-3.0658,-3.0871,-3.0947,-3.0696,-3.0871,-3.0947,-3.0696,-3.0658,-3.0658,-3.0658,-3.0658,-3.0545,-3.0269,-3.0721,-3.0934,-3.067,-3.0658,-3.0658,-3.0658,-3.0394,-3.0231,-3.0231,-2.9942,-2.9792,-2.9792,-2.9528,-2.9402,-2.939,-2.9139,-2.9026,-2.9013,-2.8699,-2.8512,-2.8511,-2.7959,-2.772,-2.7708,-2.7457,-2.7168,-2.6939,-2.6939,-2.6751,-2.6499,-2.6499,-2.6499,-2.6499,-2.6499,-2.6499,-2.6499,-2.6499,-2.6499,-2.6499,-2.6499,-2.6499,-2.6499,-2.6499,-2.6499,-2.6499,-2.6499,-2.6499,-2.6499,-2.6499,-2.6499,-2.6499,-2.6499,-2.6499,-2.6499,-2.6499,-2.6499,-2.6499,-2.6499,-2.6499,-2.6499,-2.6499,-2.6499,0.0,-2.6499,-2.6499,-2.6314,-2.5886,-2.5851,-2.5851,-2.5851,0.0,0.0,-2.5851,-2.5146,-2.4348,-2.3522,-2.308,-2.308,-2.3486,-2.308,-2.2857,-2.2857,-2.2857,-2.308,-2.3486,-2.3486,-2.3486,-2.3522,-2.3938,-2.3866,-2.3559,-2.4312,-2.4636,-2.4743,-2.5511,-2.5873,-2.6013,-2.6739,-2.7045,-2.718,-2.9753,-2.9792,-2.9792,-2.9792,-3.0181,-3.0331,-2.9867,-3.0193,-3.0319,-2.9854,-2.9792,-2.9792,-2.9792,-2.9792,-2.9792,-2.9792,-3.0143,-3.0206,-2.9817,-2.9792,-2.9792,-2.9792,-2.9704,-2.9666,-2.9666,-2.9578,-2.9541,-2.9541,-2.9051,-2.8762,-2.8762,-2.8323,-2.8109,-2.8109,-2.8021,-2.7984,-2.7946,-2.7394,-2.719,-2.7153,-2.6688,-2.6499,-2.6499,-2.6499,-2.6499,-2.6499,-2.6499,-2.6499,-2.6499,-2.6499,-2.6499,-2.6499,-2.6499,-2.6499,-2.6499,-2.6499,-2.6499,-2.6499,-2.6499,-2.6499,-2.6499,-2.6499,-2.6499,-2.6499,-2.6499,-2.6499,-2.6499,-2.6499,-2.6499,-2.6499,-2.6499,-2.6499,-2.6499,-2.6499,-2.6499,-2.6499,-2.6499,0.0,-2.6499,-2.6499,-2.6499,-2.6499,-2.6499,-2.6499,-2.6499,-2.6499,-2.5886,0.0,0.0,-2.5205,-2.448,-2.448,-2.4228,-2.4108,-2.4108,-2.4228,-2.4228,-2.4108,-2.4108,-2.4156,-2.4264,-2.4264,-2.4264,-2.4301,-2.4409,-2.4373,-2.4337,-2.5158,-2.5488,-2.5558,-2.6245,-2.6589,-2.6726,-2.6943,-2.7146,-2.7302,-2.9663,-2.9792,-2.9792,-2.9792,-2.9867,-2.9892,-2.9804,-2.9867,-2.9892,-2.9804,-2.9792,-2.9792,-2.9792,-2.9792,-2.9792,-2.9792,-2.9428,-2.9327,-2.9767,-2.9792,-2.9792,-2.9792,-2.9327,-2.9026,-2.9026,-2.8612,-2.836,-2.836,-2.8285,-2.8235,-2.8235,-2.8147,-2.8109,-2.8084,-2.762,-2.7406,-2.7369,-2.6851,-2.6625,-2.6612,-2.6524,-2.6499,-2.6499,-2.6499,-2.6499,-2.6499,-2.6499,-2.6499,-2.6499,-2.6499,-2.6499,-2.6499,-2.6499,-2.6499,-2.6499,-2.6499,-2.6499,-2.6499,-2.6499,-2.6499,-2.6499,-2.6499,-2.6499,-2.6499,-2.6499,-2.6499,-2.6499,-2.6499,-2.6499,-2.6499,-2.6499,-2.6499,-2.6499,-2.6499,-2.6499,-2.6499,-2.6499,0.0,-2.6499,-2.6499,-2.6499,-2.6499,-2.6499,-2.6499,-2.6499,-2.6499,-2.6383,-2.6383,-2.6499,-2.6267,-2.6129,-2.6129,-2.4814,-2.4108,-2.4108,-2.4779,-2.4779,-2.4108,-2.4108,-2.4445,-2.5123,-2.5123,-2.5123,-2.5158,-2.5838,-2.5734,-2.5194,-2.599,-2.6314,-2.6349,-2.6589,-2.6692,-2.6748,-2.71,-2.7268,-2.7302,-2.8499,-2.8727,-2.8941,-2.9651,-2.9792,-2.9792,-2.9792,-2.9792,-2.9792,-2.9792,-2.9528,-2.9327,-2.9327,-2.9063,-2.8875,-2.8875,-2.8637,-2.8599,-2.8863,-2.8875,-2.8875,-2.8875,-2.8637,-2.8486,-2.8486,-2.8235,-2.8109,-2.8109,-2.7808,-2.7657,-2.7657,-2.7356,-2.7253,-2.7241,-2.6989,-2.6876,-2.6851,-2.66,-2.6499,-2.6499,-2.6499,-2.6499,-2.6499,-2.6499,-2.6499,-2.6499,-2.6499,-2.6499,-2.6499,-2.6499,-2.6499,-2.6499,-2.6499,-2.6499,-2.6499,-2.6499,-2.6499,-2.6499,-2.6499,-2.6499,-2.6499,-2.6499,-2.6499,-2.6499,-2.6499,-2.6499,-2.6499,-2.6499,-2.6499,-2.6499,-2.6499,-2.6499,-2.6499,-2.6499,-2.6499,0.0,0.0,-2.6499,-2.6499,-2.6499,-2.6499,-2.6499,-2.6499,-2.6499,-2.6499,-2.6499,-2.6499,-2.6499,-2.6499,-2.6499,-2.6499,-2.6499,-2.5791,-2.5394,-2.5394,-2.5769,-2.5769,-2.5394,-2.5394,-2.5581,-2.5955,-2.5955,-2.5955,-2.5955,-2.6349,-2.628,-2.599,-2.6349,-2.6499,-2.6499,-2.6658,-2.676,-2.6909,-2.7201,-2.7335,-2.7436,-2.7124,-2.7464,-2.7878,-2.8727,-2.8994,-2.9109,-2.9109,-2.9275,-2.9402,-2.9402,-2.9013,-2.87,-2.87,-2.836,-2.8109,-2.8109,-2.7996,-2.7908,-2.7908,-2.7795,-2.7833,-2.8097,-2.7984,-2.7858,-2.772,-2.772,-2.772,-2.772,-2.7341,-2.7128,-2.7115,-2.6688,-2.6499,-2.6499,-2.6499,-2.6499,-2.6499,-2.6499,-2.6499,-2.6499,-2.6499,-2.6499,-2.6499,-2.6499,-2.6499,-2.6499,-2.6499,-2.6499,-2.6499,-2.6499,-2.6499,-2.6499,-2.6499,-2.6499,-2.6499,-2.6499,-2.6499,-2.6499,-2.6499,-2.6499,-2.6499,-2.6499,-2.6499,-2.6499,-2.6499,-2.6499,-2.6499,-2.6499,-2.6499,-2.6499,-2.6499,-2.6499,-2.6499,-2.6499,0.0,0.0,0.0,-2.6499,-2.6499,-2.6499,-2.6499,-2.6499,-2.6499,-2.6499,-2.6499,-2.6499,-2.6499,-2.6499,-2.6499,-2.6499,-2.6499,-2.6499,-2.6499,-2.6499,-2.6499,-2.6499,-2.6499,-2.6499,-2.6499,-2.6499,-2.6499,-2.6499,-2.6499,-2.6499,-2.6499,-2.6499,-2.6499,-2.6499,-2.6499,-2.6521,-2.6692,-2.6863,-2.7024,-2.7268,-2.7403,-2.749,-2.5885,-2.6496,-2.6761,-2.6212,-2.6669,-2.7109,-2.7109,-2.7755,-2.8235,-2.8235,-2.8197,-2.816,-2.816,-2.8134,-2.8109,-2.8109,-2.7645,-2.7379,-2.7379,-2.6901,-2.7065,-2.8059,-2.762,-2.714,-2.6625,-2.6612,-2.6612,-2.6612,-2.6575,-2.6549,-2.6549,-2.6512,-2.6499,-2.6499,-2.6499,-2.6499,-2.6499,-2.6499,-2.6499,-2.6499,-2.6499,-2.6499,-2.6499,-2.6499,-2.6499,-2.6499,-2.6499,-2.6499,-2.6499,-2.6499,-2.6499,-2.6499,-2.6499,-2.6499,-2.6499,-2.6499,-2.6499,-2.6499,-2.6499,-2.6499,-2.6499,-2.6499,-2.6499,-2.6499,-2.6499,-2.6499,-2.6499,-2.6499,-2.6499,-2.6499,-2.6499,-2.6499,-2.6499,-2.6499,0.0,0.0,-2.6499,-2.6499,-2.6499,-2.6499,-2.6499,-2.6499,-2.6499,-2.6499,-2.6499,-2.6499,-2.6499,-2.6499,-2.6499,-2.6499,-2.6499,-2.6499,-2.6499,-2.6499,-2.6499,-2.6499,-2.6499,-2.6499,-2.6499,-2.6499,-2.6499,-2.6499,-2.6499,-2.6499,-2.6499,-2.6499,-2.6499,-2.6499,-2.6499,-2.6521,-2.6841,-2.699,-2.7045,-2.7369,-2.749,-2.749,-2.4386,-2.4774,-2.5142,-2.5704,-2.603,-2.6209,-2.6209,-2.6486,-2.6837,-2.7323,-2.7079,-2.7041,-2.7559,-2.7329,-2.7115,-2.7115,-2.6927,-2.6801,-2.6801,-2.6612,-2.6688,-2.7102,-2.6927,-2.6713,-2.6499,-2.6499,-2.6499,-2.6499,-2.6499,-2.6499,-2.6499,-2.6499,-2.6499,-2.6499,-2.6499,-2.6499,-2.6499,-2.6499,-2.6499,-2.6499,-2.6499,-2.6499,-2.6499,-2.6499,-2.6499,-2.6499,-2.6499,-2.6499,-2.6499,-2.6499,-2.6499,-2.6499,-2.6499,-2.6499,-2.6499,-2.6499,-2.6499,-2.6499,-2.6499,-2.6499,-2.6499,-2.6499,-2.6499,-2.6499,-2.6499,-2.6499,-2.6499,-2.6499,-2.6499,-2.6499,-2.6499,-2.6499,-2.6499,-2.6499,0.0,-2.6499,-2.6499,-2.6499,-2.6499,-2.6499,-2.6499,-2.6499,-2.6499,-2.6499,-2.6499,-2.6499,-2.6499,-2.6499,-2.6499,-2.6499,-2.6499,-2.6499,-2.6499,-2.6499,-2.6499,-2.6499,-2.6499,-2.6499,-2.6499,-2.6499,-2.6499,-2.6499,-2.6499,-2.6499,-2.6499,-2.6499,-2.6499,-2.6499,-2.6499,-2.6521,-2.6875,-2.699,-2.7045,-2.7369,-2.749,-2.7438,-2.3053,-2.3384,-2.3748,-2.4435,-2.477,-2.4922,-2.4922,-2.5138,-2.5541,-2.6284,-2.5863,-2.5769,-2.6581,-2.6317,-2.6129,-2.6129,-2.6349,-2.6499,-2.6499,-2.6499,-2.6499,-2.6499,-2.6499,-2.6499,-2.6499,-2.6499,-2.6499,-2.6499,-2.6499,-2.6499,-2.6499,-2.6499,-2.6499,-2.6499,-2.6499,-2.6499,-2.6499,-2.6499,-2.6499,-2.6499,-2.6499,-2.6499,-2.6499,-2.6499,-2.6499,-2.6499,-2.6499,-2.6499,-2.6499,-2.6499,-2.6499,-2.6499,-2.6499,-2.6499,-2.6499,-2.6499,-2.6499,-2.6499,-2.6499,-2.6499,-2.6499,-2.6499,-2.6499,-2.6499,-2.6499,-2.6499,-2.6499,-2.6499,-2.6499,-2.6499,-2.6499,-2.6499,-2.6499,-2.6499,-2.6499,-2.6499,-2.6499,-2.6499,-2.6499,-2.6499,-2.6499,-2.6499,-2.6499,-2.6499,-2.6499,-2.6499,-2.6499,-2.6499,-2.6499,-2.6499,-2.6499,-2.6499,-2.6499,-2.6499,-2.6499,-2.6499,-2.6499,-2.6499,-2.6499,-2.6499,-2.6499,-2.6499,-2.6499,-2.6499,-2.6499,-2.6499,-2.6499,-2.6499,-2.6499,-2.6533,-2.6807,-2.6794,-2.6708,-2.7043,-2.7058,-2.687,-2.1959,-2.244,-2.274,-2.1959,-2.2478,-2.3001,-2.3001,-2.3632,-2.4373,-2.5194,-2.46,-2.4409,-2.5194,-2.5312,-2.5312,-2.5312,-2.6025,-2.6499,-2.6499,-2.6499,-2.6499,-2.6499,-2.6499,-2.6499,-2.6499,-2.6499,-2.6499,-2.6499,-2.6499,-2.6499,-2.6499,-2.6499,-2.6499,-2.6499,-2.6499,-2.6499,-2.6499,-2.6499,-2.6499,-2.6499,-2.6499,-2.6499,-2.6499,-2.6499,-2.6499,-2.6499,-2.6499,-2.6499,-2.6499,-2.6499,-2.6499,-2.6499,-2.6499,-2.6499,-2.6499,-2.6499,-2.6499,-2.6499,-2.6499,-2.6499,-2.6499,-2.6499,-2.6499,-2.6499,-2.6499,-2.6499,-2.6499,-2.6499,-2.6499,-2.6499,-2.6499,-2.6499,-2.6499,-2.6499,-2.6499,-2.6499,-2.6499,-2.6499,-2.6499,-2.6499,-2.6499,-2.6499,-2.6499,-2.6499,-2.6499,-2.6499,-2.6499,-2.6499,-2.6499,-2.6499,-2.6499,-2.6499,-2.6499,-2.6499,-2.6499,-2.6499,-2.6499,-2.6499,-2.6499,-2.6499,-2.6499,-2.6499,-2.6499,-2.6499,-2.6499,-2.6499,-2.6499,-2.6499,-2.6499,-2.6521,-2.6645,-2.6371,-2.5909,-2.6251,-2.6065,-2.5617,-2.1845,-2.1987,-2.2063,-2.1845,-2.1997,-2.2138,-2.2138,-2.2354,-2.2756,-2.357,-2.346,-2.3632,-2.4384,-2.4969,-2.5312,-2.5312,-2.6025,-2.6499,-2.6499,-2.6499,-2.6499,-2.6499,-2.6499,-2.6499,-2.6499,-2.6499,-2.6499,-2.6499,-2.6499,-2.6499,-2.6499,-2.6499,-2.6499,-2.6499,-2.6499,-2.6499,-2.6499,-2.6499,-2.6499,-2.6499,-2.6499,-2.6499,-2.6499,-2.6499,-2.6499,-2.6499,-2.6499,-2.6499,-2.6499,-2.6499,-2.6499,-2.6499,-2.6499,-2.6499,-2.6499,-2.6499,-2.6499,-2.6499,-2.6499,-2.6499,-2.6499,-2.6499,-2.6499,-2.6499,-2.6499,-2.6499,-2.6499,-2.6499,-2.6499,-2.6499,-2.6499,-2.6499,-2.6499,-2.6499,-2.6499,-2.6499,-2.6499,-2.6499,-2.6499,-2.6499,-2.6499,-2.6499,-2.6499,-2.6499,-2.6499,-2.6499,-2.6499,-2.6499,-2.6499,-2.6499,-2.6499,-2.6499,-2.6499,-2.6499,-2.6499,-2.6499,-2.6499,-2.6499,-2.6499,-2.6499,-2.6499,-2.6499,-2.6499,-2.6499,-2.6499,-2.6499,-2.6499,-2.6499,-2.6248,-2.5883,-2.6063,-2.58,-2.537,-2.5563,-2.562,-2.5553,-2.1807,-2.1807,-2.1807,-2.1807,-2.1807,-2.1807,-2.1807,-2.1807,-2.2111,-2.2889,-2.274,-2.2804,-2.3596,-2.4107,-2.4407,-2.4407,-2.5382,-2.6164,-2.6499,-2.6499,-2.6499,-2.6499,-2.6499,-2.6499,-2.6499,-2.6499,-2.6499,-2.6499,-2.6499,-2.6499,-2.6499,-2.6499,-2.6499,-2.6499,-2.6499,-2.6499,-2.6499,-2.6499,-2.6499,-2.6499,-2.6499,-2.6499,-2.6499,-2.6499,-2.6499,-2.6499,-2.6499,-2.6499,-2.6499,-2.6499,-2.6499,-2.6499,-2.6499,-2.6499,-2.6499,-2.6499,-2.6499,-2.6499,-2.6499,-2.6499,-2.6499,-2.6499,-2.6499,-2.6499,-2.6499,-2.6499,-2.6499,-2.6499,-2.6499,-2.6499,-2.6499,-2.6499,-2.6499,-2.6499,-2.6499,-2.6499,-2.6499,-2.6499,-2.6499,-2.6499,-2.6499,-2.6499,-2.6499,-2.6499,-2.6499,-2.6499,-2.6499,-2.6499,-2.6499,-2.6499,-2.6499,-2.6499,-2.6499,-2.6499,-2.6499,-2.6499,-2.6499,-2.6499,-2.6499,-2.6499,-2.6499,-2.6499,-2.6499,-2.6499,-2.6499,-2.6361,-2.6147,-2.6147,-2.5787,-2.5297,-2.5428,-2.5133,-2.4672,-2.4817,-2.4814,-2.4708,-2.1731,-2.1731,-2.1769,-2.1769,-2.1769,-2.1769,-2.1807,-2.1807,-2.2063,-2.2815,-2.2252,-2.2063,-2.2815,-2.2964,-2.3001,-2.3001,-2.4407,-2.5594,-2.6349,-2.6452,-2.6499,-2.6499,-2.6499,-2.6499,-2.6499,-2.6499,-2.6499,-2.6499,-2.6499,-2.6499,-2.6499,-2.6499,-2.6499,-2.6499,-2.6499,-2.6499,-2.6499,-2.6499,-2.6499,-2.6499,-2.6499,-2.6499,-2.6499,-2.6499,-2.6499,-2.6499,-2.6499,-2.6499,-2.6499,-2.6499,-2.6499,-2.6499,-2.6499,-2.6499,-2.6499,-2.6499,-2.6499,-2.6499,-2.6499,-2.6499,-2.6487,-2.6436,-2.6411,-2.6436,-2.6487,-2.6499,-2.6499,-2.6499,-2.6499,-2.6499,-2.6499,-2.6449,-2.6411,-2.6411,-2.6386,-2.6348,-2.6348,-2.6348,-2.6348,-2.6348,-2.6348,-2.6348,-2.6348,-2.6386,-2.6411,-2.6411,-2.6461,-2.6499,-2.6499,-2.6499,-2.6499,-2.6499,-2.6499,-2.6499,-2.6499,-2.6499,-2.6499,-2.6499,-2.6499,-2.6499,-2.6499,-2.6499,-2.6499,-2.6499,-2.6436,-2.6122,-2.5598,-2.5548,-2.5222,-2.4713,-2.4713,-2.4406,-2.3916,-2.4071,-2.3804,-2.3463,-2.132,-2.132,-2.1397,-2.154,-2.1589,-2.1617,-2.1769,-2.1807,-2.1845,-2.2025,-2.1921,-2.1883,-2.2025,-2.2628,-2.3001,-2.3001,-2.4407,-2.5382,-2.5558,-2.6129,-2.6499,-2.6499,-2.6499,-2.6499,-2.6499,-2.6499,-2.6499,-2.6499,-2.6499,-2.6499,-2.6499,-2.6499,-2.6499,-2.6499,-2.6499,-2.6499,-2.6499,-2.6499,-2.6499,-2.6499,-2.6499,-2.6499,-2.6499,-2.6499,-2.6499,-2.6499,-2.6499,-2.6499,-2.6499,-2.6499,-2.6499,-2.6499,-2.6499,-2.6499,-2.6499,-2.6499,-2.6499,-2.6499,-2.6499,-2.6499,-2.6386,-2.59,-2.5787,-2.5933,-2.6386,-2.6499,-2.6499,-2.6499,-2.6499,-2.6499,-2.6499,-2.6122,-2.5787,-2.5787,-2.5435,-2.5172,-2.5172,-2.5172,-2.5172,-2.5172,-2.5172,-2.5172,-2.5172,-2.5548,-2.5787,-2.5787,-2.6235,-2.6499,-2.6499,-2.6499,-2.6499,-2.6499,-2.6499,-2.6499,-2.6499,-2.6499,-2.6499,-2.6499,-2.6499,-2.6499,-2.6499,-2.6499,-2.6499,-2.6461,-2.6009,-2.5711,-2.5561,-2.5159,-2.4669,-2.418,-2.418,-2.3797,-2.3296,-2.3314,-2.3371,-2.3463,-2.1205,-2.1205,-2.1244,-2.1359,-2.1359,-2.1397,-2.1502,-2.1589,-2.1655,-2.1655,-2.1731,-2.1807,-2.1807,-2.2176,-2.2729,-2.3449,-2.424,-2.504,-2.5816,-2.628,-2.6499,-2.6499,-2.6499,-2.6499,-2.6499,-2.6499,-2.6499,-2.6499,-2.6499,-2.6499,-2.6499,-2.6499,-2.6499,-2.6499,-2.6499,-2.6499,-2.6499,-2.6499,-2.6499,-2.6499,-2.6499,-2.6499,-2.6499,-2.6499,-2.6499,-2.6499,-2.6499,-2.6499,-2.6499,-2.6499,-2.6499,-2.6499,-2.6499,-2.6499,-2.6436,-2.6172,-2.6084,-2.6021,-2.5749,-2.5674,-2.5598,-2.531,-2.5222,-2.531,-2.5611,-2.5674,-2.5674,-2.5674,-2.5674,-2.5674,-2.5674,-2.5435,-2.5222,-2.5222,-2.4963,-2.4788,-2.4788,-2.4788,-2.4788,-2.4788,-2.4788,-2.4788,-2.4788,-2.5039,-2.5222,-2.5222,-2.5511,-2.5787,-2.6072,-2.6084,-2.621,-2.6487,-2.6499,-2.6499,-2.6499,-2.6499,-2.6361,-2.6084,-2.6361,-2.6499,-2.6487,-2.621,-2.6084,-2.6047,-2.5473,-2.5071,-2.4808,-2.4544,-2.4061,-2.359,-2.359,-2.3371,-2.3108,-2.3108,-2.3241,-2.3433,-2.1089,-2.1089,-2.1128,-2.1128,-2.1177,-2.1205,-2.1244,-2.1436,-2.154,-2.154,-2.1693,-2.1807,-2.1807,-2.1807,-2.2306,-2.361,-2.3829,-2.4528,-2.5978,-2.6233,-2.6349,-2.6487,-2.6499,-2.6499,-2.6499,-2.6499,-2.6499,-2.6499,-2.6499,-2.6499,-2.6499,-2.6499,-2.6499,-2.6499,-2.6499,-2.6499,-2.6499,-2.6499,-2.6499,-2.6499,-2.6499,-2.6499,-2.6499,-2.6499,-2.6499,-2.6499,-2.6499,-2.6499,-2.6499,-2.6499,-2.6424,-2.6348,-2.6348,-2.6285,-2.6122,-2.5598,-2.546,-2.5372,-2.4913,-2.4788,-2.4763,-2.4675,-2.465,-2.4625,-2.4525,-2.465,-2.4788,-2.4788,-2.4788,-2.4788,-2.4788,-2.4713,-2.465,-2.465,-2.4562,-2.4499,-2.4499,-2.4499,-2.4499,-2.4499,-2.4499,-2.4499,-2.4499,-2.4587,-2.465,-2.465,-2.4738,-2.4976,-2.5435,-2.546,-2.5686,-2.6197,-2.6223,-2.6223,-2.6223,-2.6223,-2.5971,-2.5473,-2.5984,-2.6223,-2.6197,-2.5686,-2.546,-2.5435,-2.4908,-2.4418,-2.3991,-2.3891,-2.3534,-2.3108,-2.3108,-2.3108,-2.3108,-2.3108,-2.321,-2.336,-2.0683,-2.0683,-2.0731,-2.0906,-2.1099,-2.1244,-2.1425,-2.1617,-2.1769,-2.1769,-2.1769,-2.1807,-2.1807,-2.1807,-2.1873,-2.209,-2.2729,-2.3522,-2.4373,-2.5075,-2.5781,-2.6452,-2.6499,-2.6499,-2.6499,-2.6499,-2.6499,-2.6499,-2.6499,-2.6499,-2.6499,-2.6499,-2.6499,-2.6499,-2.6499,-2.6499,-2.6499,-2.6499,-2.6499,-2.6499,-2.6499,-2.6499,-2.6499,-2.6499,-2.6499,-2.6499,-2.6499,-2.6499,-2.6499,-2.6499,-2.616,-2.5711,-2.5711,-2.541,-2.4988,-2.4913,-2.4888,-2.4876,-2.4813,-2.4788,-2.4675,-2.423,-2.4117,-2.3979,-2.3446,-2.4086,-2.4788,-2.4788,-2.4788,-2.4788,-2.4788,-2.4431,-2.4117,-2.4117,-2.3659,-2.3333,-2.3333,-2.3333,-2.3333,-2.3333,-2.3333,-2.3333,-2.3333,-2.3816,-2.4117,-2.4117,-2.4556,-2.4825,-2.4888,-2.4888,-2.4958,-2.5046,-2.5046,-2.5046,-2.5046,-2.5046,-2.5008,-2.4888,-2.5008,-2.5046,-2.5046,-2.4958,-2.4888,-2.4895,-2.4343,-2.4067,-2.3966,-2.3421,-2.317,-2.3108,-2.3108,-2.3108,-2.3108,-2.3108,-2.3108,-2.3168,-2.0605,-2.0605,-2.0644,-2.0731,-2.0809,-2.0886,-2.0992,-2.1272,-2.1464,-2.1464,-2.1655,-2.1807,-2.1807,-2.1807,-2.2166,-2.2995,-2.3401,-2.4131,-2.5358,-2.5769,-2.6141,-2.6487,-2.6499,-2.6499,-2.6499,-2.6499,-2.6499,-2.6499,-2.6499,-2.6499,-2.6499,-2.6499,-2.6499,-2.6499,-2.6499,-2.6499,-2.6499,-2.6499,-2.6499,-2.6499,-2.6499,-2.6499,-2.6499,-2.6499,-2.6499,-2.6449,-2.6135,-2.5787,-2.5548,-2.5548,-2.5372,-2.5159,-2.5159,-2.5008,-2.4725,-2.4456,-2.4356,-2.4293,-2.3935,-2.3847,-2.3785,-2.3547,-2.3484,-2.3421,-2.3158,-2.3496,-2.3847,-2.3847,-2.3847,-2.3847,-2.3847,-2.3647,-2.3484,-2.3484,-2.3271,-2.3108,-2.3108,-2.3108,-2.3108,-2.3108,-2.3108,-2.3108,-2.3108,-2.3333,-2.3484,-2.3484,-2.371,-2.3998,-2.4343,-2.4356,-2.4506,-2.4775,-2.4788,-2.4788,-2.4788,-2.4788,-2.4637,-2.4356,-2.4356,-2.4519,-2.4775,-2.4506,-2.4356,-2.433,-2.3766,-2.3484,-2.3471,-2.3208,-2.3108,-2.3108,-2.3108,-2.3108,-2.3108,-2.3108,-2.3108,-2.3108]}]]